<?xml version="1.0" encoding="UTF-8" standalone="no" ?>
<gpx xmlns="http://www.topografix.com/GPX/1/1" xmlns:xsi="http://www.w3.org/2001/XMLSchema-instance" xsi:schemaLocation="http://www.topografix.com/GPX/1/1 http://www.topografix.com/GPX/1/1/gpx.xsd" version="1.1" creator="VisuGPX - https://www.visugpx.com">
  <metadata>
    <name>Pic de Piau</name>
    <desc><![CDATA[https://subircumbres.wordpress.com/2019/03/31/pic-de-piau-2696m/]]></desc>
  </metadata>
  <trk>
    <name><![CDATA[PIAUAR-19 11:43:44]]></name>
    <trkseg>
      <trkpt lat="42.78345" lon="0.16807">
        <ele>1725.22</ele>
        <time>2019-03-30T06:11:58Z</time>
      </trkpt>
      <trkpt lat="42.78345" lon="0.16807">
        <ele>1724.26</ele>
        <time>2019-03-30T06:11:59Z</time>
      </trkpt>
      <trkpt lat="42.78345" lon="0.16806">
        <ele>1724.74</ele>
        <time>2019-03-30T06:12:02Z</time>
      </trkpt>
      <trkpt lat="42.78346" lon="0.16806">
        <ele>1724.74</ele>
        <time>2019-03-30T06:12:14Z</time>
      </trkpt>
      <trkpt lat="42.78346" lon="0.16805">
        <ele>1723.3</ele>
        <time>2019-03-30T06:12:23Z</time>
      </trkpt>
      <trkpt lat="42.78344" lon="0.16806">
        <ele>1723.78</ele>
        <time>2019-03-30T06:12:39Z</time>
      </trkpt>
      <trkpt lat="42.78344" lon="0.16807">
        <ele>1723.3</ele>
        <time>2019-03-30T06:12:54Z</time>
      </trkpt>
      <trkpt lat="42.78344" lon="0.16806">
        <ele>1723.78</ele>
        <time>2019-03-30T06:13:14Z</time>
      </trkpt>
      <trkpt lat="42.78344" lon="0.16807">
        <ele>1723.3</ele>
        <time>2019-03-30T06:13:32Z</time>
      </trkpt>
      <trkpt lat="42.78345" lon="0.16807">
        <ele>1723.3</ele>
        <time>2019-03-30T06:13:48Z</time>
      </trkpt>
      <trkpt lat="42.78344" lon="0.16806">
        <ele>1723.78</ele>
        <time>2019-03-30T06:14:05Z</time>
      </trkpt>
      <trkpt lat="42.78346" lon="0.16807">
        <ele>1725.22</ele>
        <time>2019-03-30T06:14:09Z</time>
      </trkpt>
      <trkpt lat="42.78344" lon="0.16807">
        <ele>1724.26</ele>
        <time>2019-03-30T06:14:14Z</time>
      </trkpt>
      <trkpt lat="42.78343" lon="0.16807">
        <ele>1724.74</ele>
        <time>2019-03-30T06:14:19Z</time>
      </trkpt>
      <trkpt lat="42.78344" lon="0.16807">
        <ele>1725.22</ele>
        <time>2019-03-30T06:14:24Z</time>
      </trkpt>
      <trkpt lat="42.78345" lon="0.16806">
        <ele>1725.22</ele>
        <time>2019-03-30T06:14:33Z</time>
      </trkpt>
      <trkpt lat="42.78344" lon="0.16806">
        <ele>1725.22</ele>
        <time>2019-03-30T06:14:40Z</time>
      </trkpt>
      <trkpt lat="42.78345" lon="0.16806">
        <ele>1725.22</ele>
        <time>2019-03-30T06:14:46Z</time>
      </trkpt>
      <trkpt lat="42.78344" lon="0.16807">
        <ele>1724.74</ele>
        <time>2019-03-30T06:15:00Z</time>
      </trkpt>
      <trkpt lat="42.78344" lon="0.16808">
        <ele>1724.74</ele>
        <time>2019-03-30T06:15:14Z</time>
      </trkpt>
      <trkpt lat="42.78344" lon="0.16808">
        <ele>1725.22</ele>
        <time>2019-03-30T06:15:26Z</time>
      </trkpt>
      <trkpt lat="42.78344" lon="0.16808">
        <ele>1725.22</ele>
        <time>2019-03-30T06:15:37Z</time>
      </trkpt>
      <trkpt lat="42.78345" lon="0.16807">
        <ele>1725.22</ele>
        <time>2019-03-30T06:15:43Z</time>
      </trkpt>
      <trkpt lat="42.78344" lon="0.16806">
        <ele>1724.26</ele>
        <time>2019-03-30T06:15:50Z</time>
      </trkpt>
      <trkpt lat="42.78345" lon="0.16806">
        <ele>1725.7</ele>
        <time>2019-03-30T06:15:57Z</time>
      </trkpt>
      <trkpt lat="42.78345" lon="0.16807">
        <ele>1725.22</ele>
        <time>2019-03-30T06:16:05Z</time>
      </trkpt>
      <trkpt lat="42.78346" lon="0.16807">
        <ele>1724.26</ele>
        <time>2019-03-30T06:16:14Z</time>
      </trkpt>
      <trkpt lat="42.78345" lon="0.16808">
        <ele>1725.22</ele>
        <time>2019-03-30T06:16:18Z</time>
      </trkpt>
      <trkpt lat="42.78342" lon="0.16823">
        <ele>1724.26</ele>
        <time>2019-03-30T06:16:26Z</time>
      </trkpt>
      <trkpt lat="42.78342" lon="0.16827">
        <ele>1724.26</ele>
        <time>2019-03-30T06:16:28Z</time>
      </trkpt>
      <trkpt lat="42.78341" lon="0.16829">
        <ele>1723.78</ele>
        <time>2019-03-30T06:16:29Z</time>
      </trkpt>
      <trkpt lat="42.78339" lon="0.16836">
        <ele>1723.3</ele>
        <time>2019-03-30T06:16:33Z</time>
      </trkpt>
      <trkpt lat="42.78335" lon="0.16848">
        <ele>1722.34</ele>
        <time>2019-03-30T06:16:40Z</time>
      </trkpt>
      <trkpt lat="42.78334" lon="0.1685">
        <ele>1722.82</ele>
        <time>2019-03-30T06:16:42Z</time>
      </trkpt>
      <trkpt lat="42.78332" lon="0.16862">
        <ele>1722.34</ele>
        <time>2019-03-30T06:16:50Z</time>
      </trkpt>
      <trkpt lat="42.78332" lon="0.16864">
        <ele>1722.34</ele>
        <time>2019-03-30T06:16:51Z</time>
      </trkpt>
      <trkpt lat="42.7833" lon="0.16866">
        <ele>1722.82</ele>
        <time>2019-03-30T06:16:57Z</time>
      </trkpt>
      <trkpt lat="42.78328" lon="0.16867">
        <ele>1722.82</ele>
        <time>2019-03-30T06:17:04Z</time>
      </trkpt>
      <trkpt lat="42.78328" lon="0.16867">
        <ele>1723.3</ele>
        <time>2019-03-30T06:17:10Z</time>
      </trkpt>
      <trkpt lat="42.78327" lon="0.16867">
        <ele>1724.26</ele>
        <time>2019-03-30T06:17:15Z</time>
      </trkpt>
      <trkpt lat="42.78326" lon="0.16868">
        <ele>1726.18</ele>
        <time>2019-03-30T06:17:24Z</time>
      </trkpt>
      <trkpt lat="42.78324" lon="0.16871">
        <ele>1727.63</ele>
        <time>2019-03-30T06:17:31Z</time>
      </trkpt>
      <trkpt lat="42.78319" lon="0.16874">
        <ele>1728.11</ele>
        <time>2019-03-30T06:17:37Z</time>
      </trkpt>
      <trkpt lat="42.78315" lon="0.16877">
        <ele>1728.11</ele>
        <time>2019-03-30T06:17:43Z</time>
      </trkpt>
      <trkpt lat="42.7831" lon="0.16873">
        <ele>1729.55</ele>
        <time>2019-03-30T06:17:50Z</time>
      </trkpt>
      <trkpt lat="42.78305" lon="0.16866">
        <ele>1730.99</ele>
        <time>2019-03-30T06:17:59Z</time>
      </trkpt>
      <trkpt lat="42.78305" lon="0.16866">
        <ele>1730.99</ele>
        <time>2019-03-30T06:18:00Z</time>
      </trkpt>
      <trkpt lat="42.78303" lon="0.16859">
        <ele>1732.43</ele>
        <time>2019-03-30T06:18:07Z</time>
      </trkpt>
      <trkpt lat="42.78301" lon="0.16853">
        <ele>1733.39</ele>
        <time>2019-03-30T06:18:14Z</time>
      </trkpt>
      <trkpt lat="42.78299" lon="0.16847">
        <ele>1734.84</ele>
        <time>2019-03-30T06:18:21Z</time>
      </trkpt>
      <trkpt lat="42.78298" lon="0.16841">
        <ele>1735.8</ele>
        <time>2019-03-30T06:18:28Z</time>
      </trkpt>
      <trkpt lat="42.78297" lon="0.16837">
        <ele>1736.76</ele>
        <time>2019-03-30T06:18:34Z</time>
      </trkpt>
      <trkpt lat="42.78296" lon="0.16831">
        <ele>1737.24</ele>
        <time>2019-03-30T06:18:41Z</time>
      </trkpt>
      <trkpt lat="42.78295" lon="0.16826">
        <ele>1739.16</ele>
        <time>2019-03-30T06:18:48Z</time>
      </trkpt>
      <trkpt lat="42.78294" lon="0.16821">
        <ele>1739.16</ele>
        <time>2019-03-30T06:18:54Z</time>
      </trkpt>
      <trkpt lat="42.78294" lon="0.16819">
        <ele>1739.64</ele>
        <time>2019-03-30T06:18:55Z</time>
      </trkpt>
      <trkpt lat="42.78294" lon="0.16814">
        <ele>1740.12</ele>
        <time>2019-03-30T06:19:00Z</time>
      </trkpt>
      <trkpt lat="42.78294" lon="0.16806">
        <ele>1741.57</ele>
        <time>2019-03-30T06:19:08Z</time>
      </trkpt>
      <trkpt lat="42.78293" lon="0.16798">
        <ele>1742.53</ele>
        <time>2019-03-30T06:19:16Z</time>
      </trkpt>
      <trkpt lat="42.78291" lon="0.16793">
        <ele>1743.97</ele>
        <time>2019-03-30T06:19:23Z</time>
      </trkpt>
      <trkpt lat="42.78291" lon="0.16791">
        <ele>1743.97</ele>
        <time>2019-03-30T06:19:24Z</time>
      </trkpt>
      <trkpt lat="42.78292" lon="0.16786">
        <ele>1745.41</ele>
        <time>2019-03-30T06:19:29Z</time>
      </trkpt>
      <trkpt lat="42.78293" lon="0.16779">
        <ele>1745.89</ele>
        <time>2019-03-30T06:19:36Z</time>
      </trkpt>
      <trkpt lat="42.78293" lon="0.16774">
        <ele>1747.33</ele>
        <time>2019-03-30T06:19:42Z</time>
      </trkpt>
      <trkpt lat="42.78292" lon="0.16768">
        <ele>1748.29</ele>
        <time>2019-03-30T06:19:49Z</time>
      </trkpt>
      <trkpt lat="42.78293" lon="0.16761">
        <ele>1749.74</ele>
        <time>2019-03-30T06:19:56Z</time>
      </trkpt>
      <trkpt lat="42.78293" lon="0.16755">
        <ele>1751.18</ele>
        <time>2019-03-30T06:20:03Z</time>
      </trkpt>
      <trkpt lat="42.78295" lon="0.1675">
        <ele>1752.14</ele>
        <time>2019-03-30T06:20:10Z</time>
      </trkpt>
      <trkpt lat="42.78296" lon="0.16744">
        <ele>1754.06</ele>
        <time>2019-03-30T06:20:18Z</time>
      </trkpt>
      <trkpt lat="42.78296" lon="0.16739">
        <ele>1755.02</ele>
        <time>2019-03-30T06:20:25Z</time>
      </trkpt>
      <trkpt lat="42.78293" lon="0.16732">
        <ele>1755.99</ele>
        <time>2019-03-30T06:20:32Z</time>
      </trkpt>
      <trkpt lat="42.78291" lon="0.16727">
        <ele>1757.43</ele>
        <time>2019-03-30T06:20:40Z</time>
      </trkpt>
      <trkpt lat="42.78289" lon="0.16724">
        <ele>1758.87</ele>
        <time>2019-03-30T06:20:48Z</time>
      </trkpt>
      <trkpt lat="42.78287" lon="0.16719">
        <ele>1760.31</ele>
        <time>2019-03-30T06:20:56Z</time>
      </trkpt>
      <trkpt lat="42.78284" lon="0.16719">
        <ele>1761.27</ele>
        <time>2019-03-30T06:21:03Z</time>
      </trkpt>
      <trkpt lat="42.78284" lon="0.16718">
        <ele>1761.27</ele>
        <time>2019-03-30T06:21:10Z</time>
      </trkpt>
      <trkpt lat="42.78285" lon="0.16718">
        <ele>1761.75</ele>
        <time>2019-03-30T06:21:21Z</time>
      </trkpt>
      <trkpt lat="42.78286" lon="0.16718">
        <ele>1761.27</ele>
        <time>2019-03-30T06:21:29Z</time>
      </trkpt>
      <trkpt lat="42.78287" lon="0.16718">
        <ele>1761.75</ele>
        <time>2019-03-30T06:21:36Z</time>
      </trkpt>
      <trkpt lat="42.78287" lon="0.16717">
        <ele>1761.75</ele>
        <time>2019-03-30T06:21:53Z</time>
      </trkpt>
      <trkpt lat="42.78287" lon="0.16717">
        <ele>1761.75</ele>
        <time>2019-03-30T06:22:12Z</time>
      </trkpt>
      <trkpt lat="42.78288" lon="0.16717">
        <ele>1762.23</ele>
        <time>2019-03-30T06:22:23Z</time>
      </trkpt>
      <trkpt lat="42.78289" lon="0.16717">
        <ele>1761.75</ele>
        <time>2019-03-30T06:22:36Z</time>
      </trkpt>
      <trkpt lat="42.78289" lon="0.16717">
        <ele>1762.23</ele>
        <time>2019-03-30T06:22:52Z</time>
      </trkpt>
      <trkpt lat="42.78289" lon="0.16716">
        <ele>1762.23</ele>
        <time>2019-03-30T06:23:03Z</time>
      </trkpt>
      <trkpt lat="42.78289" lon="0.16716">
        <ele>1762.23</ele>
        <time>2019-03-30T06:23:18Z</time>
      </trkpt>
      <trkpt lat="42.78289" lon="0.16716">
        <ele>1762.23</ele>
        <time>2019-03-30T06:23:33Z</time>
      </trkpt>
      <trkpt lat="42.78288" lon="0.16716">
        <ele>1762.23</ele>
        <time>2019-03-30T06:23:49Z</time>
      </trkpt>
      <trkpt lat="42.78288" lon="0.16716">
        <ele>1761.75</ele>
        <time>2019-03-30T06:23:57Z</time>
      </trkpt>
      <trkpt lat="42.78287" lon="0.16717">
        <ele>1762.23</ele>
        <time>2019-03-30T06:24:08Z</time>
      </trkpt>
      <trkpt lat="42.78282" lon="0.16721">
        <ele>1762.23</ele>
        <time>2019-03-30T06:24:16Z</time>
      </trkpt>
      <trkpt lat="42.78278" lon="0.16728">
        <ele>1762.71</ele>
        <time>2019-03-30T06:24:23Z</time>
      </trkpt>
      <trkpt lat="42.78278" lon="0.16729">
        <ele>1762.71</ele>
        <time>2019-03-30T06:24:24Z</time>
      </trkpt>
      <trkpt lat="42.78274" lon="0.16735">
        <ele>1762.71</ele>
        <time>2019-03-30T06:24:31Z</time>
      </trkpt>
      <trkpt lat="42.78273" lon="0.16738">
        <ele>1762.71</ele>
        <time>2019-03-30T06:24:33Z</time>
      </trkpt>
      <trkpt lat="42.78269" lon="0.16743">
        <ele>1763.2</ele>
        <time>2019-03-30T06:24:39Z</time>
      </trkpt>
      <trkpt lat="42.78266" lon="0.16751">
        <ele>1762.71</ele>
        <time>2019-03-30T06:24:48Z</time>
      </trkpt>
      <trkpt lat="42.78265" lon="0.16753">
        <ele>1762.71</ele>
        <time>2019-03-30T06:24:59Z</time>
      </trkpt>
      <trkpt lat="42.78265" lon="0.16754">
        <ele>1763.2</ele>
        <time>2019-03-30T06:25:00Z</time>
      </trkpt>
      <trkpt lat="42.78259" lon="0.16771">
        <ele>1762.23</ele>
        <time>2019-03-30T06:25:10Z</time>
      </trkpt>
      <trkpt lat="42.78258" lon="0.16775">
        <ele>1762.23</ele>
        <time>2019-03-30T06:25:13Z</time>
      </trkpt>
      <trkpt lat="42.78256" lon="0.16779">
        <ele>1762.71</ele>
        <time>2019-03-30T06:25:17Z</time>
      </trkpt>
      <trkpt lat="42.78253" lon="0.16786">
        <ele>1762.71</ele>
        <time>2019-03-30T06:25:22Z</time>
      </trkpt>
      <trkpt lat="42.78248" lon="0.16797">
        <ele>1763.68</ele>
        <time>2019-03-30T06:25:31Z</time>
      </trkpt>
      <trkpt lat="42.78242" lon="0.16806">
        <ele>1764.16</ele>
        <time>2019-03-30T06:25:38Z</time>
      </trkpt>
      <trkpt lat="42.7824" lon="0.1681">
        <ele>1765.12</ele>
        <time>2019-03-30T06:25:42Z</time>
      </trkpt>
      <trkpt lat="42.78236" lon="0.16817">
        <ele>1765.6</ele>
        <time>2019-03-30T06:25:49Z</time>
      </trkpt>
      <trkpt lat="42.78235" lon="0.16821">
        <ele>1766.08</ele>
        <time>2019-03-30T06:25:56Z</time>
      </trkpt>
      <trkpt lat="42.78234" lon="0.16823">
        <ele>1766.56</ele>
        <time>2019-03-30T06:25:58Z</time>
      </trkpt>
      <trkpt lat="42.78232" lon="0.16826">
        <ele>1767.04</ele>
        <time>2019-03-30T06:26:01Z</time>
      </trkpt>
      <trkpt lat="42.7823" lon="0.16829">
        <ele>1767.52</ele>
        <time>2019-03-30T06:26:04Z</time>
      </trkpt>
      <trkpt lat="42.78227" lon="0.16837">
        <ele>1768.48</ele>
        <time>2019-03-30T06:26:10Z</time>
      </trkpt>
      <trkpt lat="42.78222" lon="0.16844">
        <ele>1769.44</ele>
        <time>2019-03-30T06:26:18Z</time>
      </trkpt>
      <trkpt lat="42.78221" lon="0.16845">
        <ele>1769.92</ele>
        <time>2019-03-30T06:26:24Z</time>
      </trkpt>
      <trkpt lat="42.78221" lon="0.16848">
        <ele>1769.92</ele>
        <time>2019-03-30T06:26:32Z</time>
      </trkpt>
      <trkpt lat="42.78217" lon="0.16853">
        <ele>1770.89</ele>
        <time>2019-03-30T06:26:40Z</time>
      </trkpt>
      <trkpt lat="42.78217" lon="0.16854">
        <ele>1770.89</ele>
        <time>2019-03-30T06:26:50Z</time>
      </trkpt>
      <trkpt lat="42.78218" lon="0.16854">
        <ele>1770.89</ele>
        <time>2019-03-30T06:27:02Z</time>
      </trkpt>
      <trkpt lat="42.78218" lon="0.16854">
        <ele>1771.37</ele>
        <time>2019-03-30T06:27:13Z</time>
      </trkpt>
      <trkpt lat="42.78217" lon="0.16855">
        <ele>1770.89</ele>
        <time>2019-03-30T06:27:21Z</time>
      </trkpt>
      <trkpt lat="42.78214" lon="0.16858">
        <ele>1771.85</ele>
        <time>2019-03-30T06:27:28Z</time>
      </trkpt>
      <trkpt lat="42.78212" lon="0.16861">
        <ele>1772.33</ele>
        <time>2019-03-30T06:27:31Z</time>
      </trkpt>
      <trkpt lat="42.78208" lon="0.1687">
        <ele>1773.77</ele>
        <time>2019-03-30T06:27:39Z</time>
      </trkpt>
      <trkpt lat="42.78205" lon="0.16875">
        <ele>1774.25</ele>
        <time>2019-03-30T06:27:45Z</time>
      </trkpt>
      <trkpt lat="42.78203" lon="0.16878">
        <ele>1774.73</ele>
        <time>2019-03-30T06:27:48Z</time>
      </trkpt>
      <trkpt lat="42.78199" lon="0.16886">
        <ele>1775.21</ele>
        <time>2019-03-30T06:27:54Z</time>
      </trkpt>
      <trkpt lat="42.78196" lon="0.16893">
        <ele>1776.17</ele>
        <time>2019-03-30T06:28:00Z</time>
      </trkpt>
      <trkpt lat="42.78195" lon="0.16894">
        <ele>1776.65</ele>
        <time>2019-03-30T06:28:02Z</time>
      </trkpt>
      <trkpt lat="42.78194" lon="0.16896">
        <ele>1777.13</ele>
        <time>2019-03-30T06:28:04Z</time>
      </trkpt>
      <trkpt lat="42.78189" lon="0.16905">
        <ele>1777.61</ele>
        <time>2019-03-30T06:28:11Z</time>
      </trkpt>
      <trkpt lat="42.78188" lon="0.16907">
        <ele>1778.1</ele>
        <time>2019-03-30T06:28:13Z</time>
      </trkpt>
      <trkpt lat="42.78184" lon="0.16913">
        <ele>1779.06</ele>
        <time>2019-03-30T06:28:21Z</time>
      </trkpt>
      <trkpt lat="42.78179" lon="0.16921">
        <ele>1780.5</ele>
        <time>2019-03-30T06:28:29Z</time>
      </trkpt>
      <trkpt lat="42.78174" lon="0.16929">
        <ele>1780.98</ele>
        <time>2019-03-30T06:28:35Z</time>
      </trkpt>
      <trkpt lat="42.78172" lon="0.16931">
        <ele>1780.98</ele>
        <time>2019-03-30T06:28:38Z</time>
      </trkpt>
      <trkpt lat="42.78171" lon="0.16933">
        <ele>1781.46</ele>
        <time>2019-03-30T06:28:40Z</time>
      </trkpt>
      <trkpt lat="42.78165" lon="0.16941">
        <ele>1781.94</ele>
        <time>2019-03-30T06:28:49Z</time>
      </trkpt>
      <trkpt lat="42.78163" lon="0.16944">
        <ele>1781.94</ele>
        <time>2019-03-30T06:28:52Z</time>
      </trkpt>
      <trkpt lat="42.78158" lon="0.16953">
        <ele>1782.42</ele>
        <time>2019-03-30T06:28:59Z</time>
      </trkpt>
      <trkpt lat="42.78152" lon="0.16961">
        <ele>1783.38</ele>
        <time>2019-03-30T06:29:07Z</time>
      </trkpt>
      <trkpt lat="42.78149" lon="0.16968">
        <ele>1783.86</ele>
        <time>2019-03-30T06:29:13Z</time>
      </trkpt>
      <trkpt lat="42.78146" lon="0.16972">
        <ele>1783.86</ele>
        <time>2019-03-30T06:29:18Z</time>
      </trkpt>
      <trkpt lat="42.78143" lon="0.16976">
        <ele>1784.34</ele>
        <time>2019-03-30T06:29:22Z</time>
      </trkpt>
      <trkpt lat="42.78139" lon="0.16986">
        <ele>1785.31</ele>
        <time>2019-03-30T06:29:29Z</time>
      </trkpt>
      <trkpt lat="42.78135" lon="0.16995">
        <ele>1785.79</ele>
        <time>2019-03-30T06:29:36Z</time>
      </trkpt>
      <trkpt lat="42.78133" lon="0.17">
        <ele>1786.27</ele>
        <time>2019-03-30T06:29:41Z</time>
      </trkpt>
      <trkpt lat="42.7813" lon="0.17006">
        <ele>1786.75</ele>
        <time>2019-03-30T06:29:46Z</time>
      </trkpt>
      <trkpt lat="42.78128" lon="0.17008">
        <ele>1787.23</ele>
        <time>2019-03-30T06:29:50Z</time>
      </trkpt>
      <trkpt lat="42.78125" lon="0.17016">
        <ele>1788.67</ele>
        <time>2019-03-30T06:29:57Z</time>
      </trkpt>
      <trkpt lat="42.78122" lon="0.17022">
        <ele>1789.15</ele>
        <time>2019-03-30T06:30:03Z</time>
      </trkpt>
      <trkpt lat="42.78119" lon="0.17027">
        <ele>1790.11</ele>
        <time>2019-03-30T06:30:09Z</time>
      </trkpt>
      <trkpt lat="42.78117" lon="0.1703">
        <ele>1791.55</ele>
        <time>2019-03-30T06:30:12Z</time>
      </trkpt>
      <trkpt lat="42.78115" lon="0.17035">
        <ele>1791.07</ele>
        <time>2019-03-30T06:30:17Z</time>
      </trkpt>
      <trkpt lat="42.78114" lon="0.17038">
        <ele>1791.07</ele>
        <time>2019-03-30T06:30:19Z</time>
      </trkpt>
      <trkpt lat="42.78112" lon="0.17043">
        <ele>1791.55</ele>
        <time>2019-03-30T06:30:24Z</time>
      </trkpt>
      <trkpt lat="42.78111" lon="0.17047">
        <ele>1792.03</ele>
        <time>2019-03-30T06:30:27Z</time>
      </trkpt>
      <trkpt lat="42.78107" lon="0.17053">
        <ele>1793</ele>
        <time>2019-03-30T06:30:33Z</time>
      </trkpt>
      <trkpt lat="42.78105" lon="0.17059">
        <ele>1793.96</ele>
        <time>2019-03-30T06:30:40Z</time>
      </trkpt>
      <trkpt lat="42.78102" lon="0.17068">
        <ele>1794.44</ele>
        <time>2019-03-30T06:30:46Z</time>
      </trkpt>
      <trkpt lat="42.78099" lon="0.17074">
        <ele>1795.4</ele>
        <time>2019-03-30T06:30:52Z</time>
      </trkpt>
      <trkpt lat="42.78098" lon="0.17075">
        <ele>1795.4</ele>
        <time>2019-03-30T06:30:53Z</time>
      </trkpt>
      <trkpt lat="42.78095" lon="0.17087">
        <ele>1796.36</ele>
        <time>2019-03-30T06:31:01Z</time>
      </trkpt>
      <trkpt lat="42.78094" lon="0.17088">
        <ele>1796.36</ele>
        <time>2019-03-30T06:31:02Z</time>
      </trkpt>
      <trkpt lat="42.78092" lon="0.17094">
        <ele>1796.84</ele>
        <time>2019-03-30T06:31:07Z</time>
      </trkpt>
      <trkpt lat="42.78089" lon="0.17099">
        <ele>1797.8</ele>
        <time>2019-03-30T06:31:13Z</time>
      </trkpt>
      <trkpt lat="42.78088" lon="0.17102">
        <ele>1797.8</ele>
        <time>2019-03-30T06:31:15Z</time>
      </trkpt>
      <trkpt lat="42.78085" lon="0.17109">
        <ele>1798.76</ele>
        <time>2019-03-30T06:31:22Z</time>
      </trkpt>
      <trkpt lat="42.78084" lon="0.17111">
        <ele>1798.76</ele>
        <time>2019-03-30T06:31:24Z</time>
      </trkpt>
      <trkpt lat="42.7808" lon="0.17118">
        <ele>1799.73</ele>
        <time>2019-03-30T06:31:32Z</time>
      </trkpt>
      <trkpt lat="42.78078" lon="0.17122">
        <ele>1800.21</ele>
        <time>2019-03-30T06:31:38Z</time>
      </trkpt>
      <trkpt lat="42.78077" lon="0.17123">
        <ele>1800.21</ele>
        <time>2019-03-30T06:31:39Z</time>
      </trkpt>
      <trkpt lat="42.78074" lon="0.17131">
        <ele>1800.69</ele>
        <time>2019-03-30T06:31:46Z</time>
      </trkpt>
      <trkpt lat="42.78073" lon="0.17134">
        <ele>1801.17</ele>
        <time>2019-03-30T06:31:48Z</time>
      </trkpt>
      <trkpt lat="42.78069" lon="0.17143">
        <ele>1801.65</ele>
        <time>2019-03-30T06:31:55Z</time>
      </trkpt>
      <trkpt lat="42.78069" lon="0.17144">
        <ele>1801.65</ele>
        <time>2019-03-30T06:31:56Z</time>
      </trkpt>
      <trkpt lat="42.78067" lon="0.17147">
        <ele>1801.65</ele>
        <time>2019-03-30T06:31:58Z</time>
      </trkpt>
      <trkpt lat="42.78066" lon="0.17151">
        <ele>1802.13</ele>
        <time>2019-03-30T06:32:01Z</time>
      </trkpt>
      <trkpt lat="42.78065" lon="0.17154">
        <ele>1802.13</ele>
        <time>2019-03-30T06:32:04Z</time>
      </trkpt>
      <trkpt lat="42.78064" lon="0.17157">
        <ele>1802.61</ele>
        <time>2019-03-30T06:32:06Z</time>
      </trkpt>
      <trkpt lat="42.78061" lon="0.17164">
        <ele>1803.09</ele>
        <time>2019-03-30T06:32:12Z</time>
      </trkpt>
      <trkpt lat="42.78058" lon="0.17171">
        <ele>1804.05</ele>
        <time>2019-03-30T06:32:19Z</time>
      </trkpt>
      <trkpt lat="42.78055" lon="0.17177">
        <ele>1804.53</ele>
        <time>2019-03-30T06:32:23Z</time>
      </trkpt>
      <trkpt lat="42.78054" lon="0.17183">
        <ele>1805.01</ele>
        <time>2019-03-30T06:32:29Z</time>
      </trkpt>
      <trkpt lat="42.78053" lon="0.17189">
        <ele>1805.49</ele>
        <time>2019-03-30T06:32:34Z</time>
      </trkpt>
      <trkpt lat="42.78051" lon="0.17196">
        <ele>1806.45</ele>
        <time>2019-03-30T06:32:40Z</time>
      </trkpt>
      <trkpt lat="42.7805" lon="0.17199">
        <ele>1806.94</ele>
        <time>2019-03-30T06:32:43Z</time>
      </trkpt>
      <trkpt lat="42.78048" lon="0.17207">
        <ele>1807.42</ele>
        <time>2019-03-30T06:32:50Z</time>
      </trkpt>
      <trkpt lat="42.78048" lon="0.17211">
        <ele>1807.42</ele>
        <time>2019-03-30T06:32:52Z</time>
      </trkpt>
      <trkpt lat="42.78047" lon="0.17218">
        <ele>1807.9</ele>
        <time>2019-03-30T06:32:58Z</time>
      </trkpt>
      <trkpt lat="42.78046" lon="0.17225">
        <ele>1808.38</ele>
        <time>2019-03-30T06:33:03Z</time>
      </trkpt>
      <trkpt lat="42.78045" lon="0.17231">
        <ele>1809.34</ele>
        <time>2019-03-30T06:33:09Z</time>
      </trkpt>
      <trkpt lat="42.78044" lon="0.17232">
        <ele>1809.34</ele>
        <time>2019-03-30T06:33:10Z</time>
      </trkpt>
      <trkpt lat="42.78043" lon="0.17242">
        <ele>1809.82</ele>
        <time>2019-03-30T06:33:17Z</time>
      </trkpt>
      <trkpt lat="42.7804" lon="0.17251">
        <ele>1810.3</ele>
        <time>2019-03-30T06:33:24Z</time>
      </trkpt>
      <trkpt lat="42.78038" lon="0.17256">
        <ele>1811.26</ele>
        <time>2019-03-30T06:33:30Z</time>
      </trkpt>
      <trkpt lat="42.78037" lon="0.17257">
        <ele>1811.26</ele>
        <time>2019-03-30T06:33:31Z</time>
      </trkpt>
      <trkpt lat="42.78036" lon="0.17263">
        <ele>1811.74</ele>
        <time>2019-03-30T06:33:35Z</time>
      </trkpt>
      <trkpt lat="42.78033" lon="0.1727">
        <ele>1812.22</ele>
        <time>2019-03-30T06:33:42Z</time>
      </trkpt>
      <trkpt lat="42.7803" lon="0.17282">
        <ele>1813.18</ele>
        <time>2019-03-30T06:33:49Z</time>
      </trkpt>
      <trkpt lat="42.78027" lon="0.17289">
        <ele>1814.15</ele>
        <time>2019-03-30T06:33:55Z</time>
      </trkpt>
      <trkpt lat="42.78024" lon="0.17297">
        <ele>1815.11</ele>
        <time>2019-03-30T06:34:01Z</time>
      </trkpt>
      <trkpt lat="42.78024" lon="0.17298">
        <ele>1815.11</ele>
        <time>2019-03-30T06:34:02Z</time>
      </trkpt>
      <trkpt lat="42.78021" lon="0.17305">
        <ele>1815.59</ele>
        <time>2019-03-30T06:34:08Z</time>
      </trkpt>
      <trkpt lat="42.78018" lon="0.17313">
        <ele>1816.55</ele>
        <time>2019-03-30T06:34:14Z</time>
      </trkpt>
      <trkpt lat="42.78014" lon="0.17321">
        <ele>1817.51</ele>
        <time>2019-03-30T06:34:22Z</time>
      </trkpt>
      <trkpt lat="42.78013" lon="0.17323">
        <ele>1817.99</ele>
        <time>2019-03-30T06:34:24Z</time>
      </trkpt>
      <trkpt lat="42.78011" lon="0.17325">
        <ele>1818.47</ele>
        <time>2019-03-30T06:34:26Z</time>
      </trkpt>
      <trkpt lat="42.78007" lon="0.17334">
        <ele>1819.43</ele>
        <time>2019-03-30T06:34:34Z</time>
      </trkpt>
      <trkpt lat="42.78004" lon="0.1734">
        <ele>1820.39</ele>
        <time>2019-03-30T06:34:41Z</time>
      </trkpt>
      <trkpt lat="42.78" lon="0.17345">
        <ele>1820.87</ele>
        <time>2019-03-30T06:34:46Z</time>
      </trkpt>
      <trkpt lat="42.77996" lon="0.17352">
        <ele>1821.84</ele>
        <time>2019-03-30T06:34:52Z</time>
      </trkpt>
      <trkpt lat="42.77995" lon="0.17353">
        <ele>1822.32</ele>
        <time>2019-03-30T06:34:57Z</time>
      </trkpt>
      <trkpt lat="42.77995" lon="0.17353">
        <ele>1821.84</ele>
        <time>2019-03-30T06:35:06Z</time>
      </trkpt>
      <trkpt lat="42.77996" lon="0.17353">
        <ele>1821.84</ele>
        <time>2019-03-30T06:35:11Z</time>
      </trkpt>
      <trkpt lat="42.77994" lon="0.1735">
        <ele>1820.39</ele>
        <time>2019-03-30T06:35:19Z</time>
      </trkpt>
      <trkpt lat="42.77994" lon="0.1735">
        <ele>1820.87</ele>
        <time>2019-03-30T06:35:32Z</time>
      </trkpt>
      <trkpt lat="42.77994" lon="0.17351">
        <ele>1820.87</ele>
        <time>2019-03-30T06:35:50Z</time>
      </trkpt>
      <trkpt lat="42.77994" lon="0.17351">
        <ele>1820.87</ele>
        <time>2019-03-30T06:36:08Z</time>
      </trkpt>
      <trkpt lat="42.77994" lon="0.1735">
        <ele>1820.87</ele>
        <time>2019-03-30T06:36:27Z</time>
      </trkpt>
      <trkpt lat="42.77994" lon="0.17349">
        <ele>1820.87</ele>
        <time>2019-03-30T06:36:48Z</time>
      </trkpt>
      <trkpt lat="42.77994" lon="0.17349">
        <ele>1821.35</ele>
        <time>2019-03-30T06:36:57Z</time>
      </trkpt>
      <trkpt lat="42.77996" lon="0.1735">
        <ele>1821.84</ele>
        <time>2019-03-30T06:37:04Z</time>
      </trkpt>
      <trkpt lat="42.77995" lon="0.1735">
        <ele>1821.84</ele>
        <time>2019-03-30T06:37:18Z</time>
      </trkpt>
      <trkpt lat="42.77995" lon="0.1735">
        <ele>1821.84</ele>
        <time>2019-03-30T06:37:29Z</time>
      </trkpt>
      <trkpt lat="42.77995" lon="0.1735">
        <ele>1821.84</ele>
        <time>2019-03-30T06:37:43Z</time>
      </trkpt>
      <trkpt lat="42.77995" lon="0.17349">
        <ele>1821.84</ele>
        <time>2019-03-30T06:37:56Z</time>
      </trkpt>
      <trkpt lat="42.77995" lon="0.1735">
        <ele>1821.84</ele>
        <time>2019-03-30T06:38:09Z</time>
      </trkpt>
      <trkpt lat="42.77993" lon="0.17353">
        <ele>1822.32</ele>
        <time>2019-03-30T06:38:19Z</time>
      </trkpt>
      <trkpt lat="42.7799" lon="0.17357">
        <ele>1822.8</ele>
        <time>2019-03-30T06:38:26Z</time>
      </trkpt>
      <trkpt lat="42.77987" lon="0.1736">
        <ele>1823.28</ele>
        <time>2019-03-30T06:38:32Z</time>
      </trkpt>
      <trkpt lat="42.77984" lon="0.17362">
        <ele>1823.76</ele>
        <time>2019-03-30T06:38:36Z</time>
      </trkpt>
      <trkpt lat="42.77979" lon="0.17368">
        <ele>1824.72</ele>
        <time>2019-03-30T06:38:43Z</time>
      </trkpt>
      <trkpt lat="42.77977" lon="0.17371">
        <ele>1825.2</ele>
        <time>2019-03-30T06:38:48Z</time>
      </trkpt>
      <trkpt lat="42.77974" lon="0.17376">
        <ele>1826.64</ele>
        <time>2019-03-30T06:38:54Z</time>
      </trkpt>
      <trkpt lat="42.77971" lon="0.17381">
        <ele>1827.6</ele>
        <time>2019-03-30T06:39:01Z</time>
      </trkpt>
      <trkpt lat="42.77971" lon="0.17384">
        <ele>1828.08</ele>
        <time>2019-03-30T06:39:03Z</time>
      </trkpt>
      <trkpt lat="42.77968" lon="0.17392">
        <ele>1829.05</ele>
        <time>2019-03-30T06:39:10Z</time>
      </trkpt>
      <trkpt lat="42.77966" lon="0.17397">
        <ele>1830.01</ele>
        <time>2019-03-30T06:39:15Z</time>
      </trkpt>
      <trkpt lat="42.77963" lon="0.17406">
        <ele>1830.97</ele>
        <time>2019-03-30T06:39:21Z</time>
      </trkpt>
      <trkpt lat="42.77962" lon="0.17409">
        <ele>1831.45</ele>
        <time>2019-03-30T06:39:25Z</time>
      </trkpt>
      <trkpt lat="42.77959" lon="0.17416">
        <ele>1832.89</ele>
        <time>2019-03-30T06:39:32Z</time>
      </trkpt>
      <trkpt lat="42.77958" lon="0.1742">
        <ele>1833.37</ele>
        <time>2019-03-30T06:39:35Z</time>
      </trkpt>
      <trkpt lat="42.77955" lon="0.17426">
        <ele>1833.85</ele>
        <time>2019-03-30T06:39:41Z</time>
      </trkpt>
      <trkpt lat="42.77953" lon="0.1743">
        <ele>1835.29</ele>
        <time>2019-03-30T06:39:47Z</time>
      </trkpt>
      <trkpt lat="42.77951" lon="0.17436">
        <ele>1836.26</ele>
        <time>2019-03-30T06:39:52Z</time>
      </trkpt>
      <trkpt lat="42.77948" lon="0.17442">
        <ele>1837.7</ele>
        <time>2019-03-30T06:40:00Z</time>
      </trkpt>
      <trkpt lat="42.77944" lon="0.17444">
        <ele>1838.66</ele>
        <time>2019-03-30T06:40:06Z</time>
      </trkpt>
      <trkpt lat="42.77938" lon="0.17445">
        <ele>1840.58</ele>
        <time>2019-03-30T06:40:13Z</time>
      </trkpt>
      <trkpt lat="42.77935" lon="0.17441">
        <ele>1840.58</ele>
        <time>2019-03-30T06:40:19Z</time>
      </trkpt>
      <trkpt lat="42.77932" lon="0.17437">
        <ele>1841.54</ele>
        <time>2019-03-30T06:40:26Z</time>
      </trkpt>
      <trkpt lat="42.77929" lon="0.17431">
        <ele>1842.5</ele>
        <time>2019-03-30T06:40:33Z</time>
      </trkpt>
      <trkpt lat="42.77927" lon="0.17428">
        <ele>1842.98</ele>
        <time>2019-03-30T06:40:43Z</time>
      </trkpt>
      <trkpt lat="42.77927" lon="0.17427">
        <ele>1843.47</ele>
        <time>2019-03-30T06:40:54Z</time>
      </trkpt>
      <trkpt lat="42.77926" lon="0.17426">
        <ele>1843.47</ele>
        <time>2019-03-30T06:41:08Z</time>
      </trkpt>
      <trkpt lat="42.77927" lon="0.17417">
        <ele>1844.43</ele>
        <time>2019-03-30T06:41:17Z</time>
      </trkpt>
      <trkpt lat="42.77927" lon="0.17412">
        <ele>1845.39</ele>
        <time>2019-03-30T06:41:24Z</time>
      </trkpt>
      <trkpt lat="42.77924" lon="0.17407">
        <ele>1846.83</ele>
        <time>2019-03-30T06:41:31Z</time>
      </trkpt>
      <trkpt lat="42.77922" lon="0.17401">
        <ele>1847.31</ele>
        <time>2019-03-30T06:41:38Z</time>
      </trkpt>
      <trkpt lat="42.77923" lon="0.17395">
        <ele>1848.27</ele>
        <time>2019-03-30T06:41:46Z</time>
      </trkpt>
      <trkpt lat="42.77923" lon="0.17388">
        <ele>1849.71</ele>
        <time>2019-03-30T06:41:55Z</time>
      </trkpt>
      <trkpt lat="42.77923" lon="0.17382">
        <ele>1850.19</ele>
        <time>2019-03-30T06:42:02Z</time>
      </trkpt>
      <trkpt lat="42.77922" lon="0.17377">
        <ele>1851.64</ele>
        <time>2019-03-30T06:42:09Z</time>
      </trkpt>
      <trkpt lat="42.77922" lon="0.17369">
        <ele>1853.08</ele>
        <time>2019-03-30T06:42:17Z</time>
      </trkpt>
      <trkpt lat="42.77922" lon="0.17368">
        <ele>1853.08</ele>
        <time>2019-03-30T06:42:18Z</time>
      </trkpt>
      <trkpt lat="42.77922" lon="0.17361">
        <ele>1854.52</ele>
        <time>2019-03-30T06:42:26Z</time>
      </trkpt>
      <trkpt lat="42.77922" lon="0.17355">
        <ele>1855.48</ele>
        <time>2019-03-30T06:42:33Z</time>
      </trkpt>
      <trkpt lat="42.77922" lon="0.17347">
        <ele>1856.92</ele>
        <time>2019-03-30T06:42:41Z</time>
      </trkpt>
      <trkpt lat="42.77922" lon="0.1734">
        <ele>1858.37</ele>
        <time>2019-03-30T06:42:48Z</time>
      </trkpt>
      <trkpt lat="42.77923" lon="0.17334">
        <ele>1859.33</ele>
        <time>2019-03-30T06:42:56Z</time>
      </trkpt>
      <trkpt lat="42.7792" lon="0.17326">
        <ele>1860.77</ele>
        <time>2019-03-30T06:43:03Z</time>
      </trkpt>
      <trkpt lat="42.77921" lon="0.17319">
        <ele>1862.21</ele>
        <time>2019-03-30T06:43:11Z</time>
      </trkpt>
      <trkpt lat="42.77924" lon="0.17313">
        <ele>1863.17</ele>
        <time>2019-03-30T06:43:18Z</time>
      </trkpt>
      <trkpt lat="42.77925" lon="0.17305">
        <ele>1864.13</ele>
        <time>2019-03-30T06:43:26Z</time>
      </trkpt>
      <trkpt lat="42.77925" lon="0.17299">
        <ele>1865.58</ele>
        <time>2019-03-30T06:43:33Z</time>
      </trkpt>
      <trkpt lat="42.77926" lon="0.1729">
        <ele>1867.02</ele>
        <time>2019-03-30T06:43:42Z</time>
      </trkpt>
      <trkpt lat="42.77926" lon="0.17285">
        <ele>1867.98</ele>
        <time>2019-03-30T06:43:49Z</time>
      </trkpt>
      <trkpt lat="42.77926" lon="0.17278">
        <ele>1869.42</ele>
        <time>2019-03-30T06:43:58Z</time>
      </trkpt>
      <trkpt lat="42.77926" lon="0.17271">
        <ele>1870.38</ele>
        <time>2019-03-30T06:44:04Z</time>
      </trkpt>
      <trkpt lat="42.77928" lon="0.17264">
        <ele>1871.82</ele>
        <time>2019-03-30T06:44:11Z</time>
      </trkpt>
      <trkpt lat="42.77929" lon="0.17259">
        <ele>1872.79</ele>
        <time>2019-03-30T06:44:17Z</time>
      </trkpt>
      <trkpt lat="42.77929" lon="0.17253">
        <ele>1874.23</ele>
        <time>2019-03-30T06:44:24Z</time>
      </trkpt>
      <trkpt lat="42.7793" lon="0.17249">
        <ele>1874.71</ele>
        <time>2019-03-30T06:44:29Z</time>
      </trkpt>
      <trkpt lat="42.77931" lon="0.17243">
        <ele>1876.15</ele>
        <time>2019-03-30T06:44:36Z</time>
      </trkpt>
      <trkpt lat="42.77932" lon="0.17235">
        <ele>1877.11</ele>
        <time>2019-03-30T06:44:44Z</time>
      </trkpt>
      <trkpt lat="42.77932" lon="0.17229">
        <ele>1878.55</ele>
        <time>2019-03-30T06:44:51Z</time>
      </trkpt>
      <trkpt lat="42.77932" lon="0.17221">
        <ele>1880</ele>
        <time>2019-03-30T06:44:58Z</time>
      </trkpt>
      <trkpt lat="42.77928" lon="0.17216">
        <ele>1880.96</ele>
        <time>2019-03-30T06:45:06Z</time>
      </trkpt>
      <trkpt lat="42.77924" lon="0.17218">
        <ele>1882.4</ele>
        <time>2019-03-30T06:45:12Z</time>
      </trkpt>
      <trkpt lat="42.77923" lon="0.17219">
        <ele>1882.88</ele>
        <time>2019-03-30T06:45:15Z</time>
      </trkpt>
      <trkpt lat="42.77922" lon="0.17223">
        <ele>1883.36</ele>
        <time>2019-03-30T06:45:19Z</time>
      </trkpt>
      <trkpt lat="42.77918" lon="0.17231">
        <ele>1884.8</ele>
        <time>2019-03-30T06:45:27Z</time>
      </trkpt>
      <trkpt lat="42.77918" lon="0.17231">
        <ele>1884.8</ele>
        <time>2019-03-30T06:45:28Z</time>
      </trkpt>
      <trkpt lat="42.77915" lon="0.17236">
        <ele>1885.76</ele>
        <time>2019-03-30T06:45:35Z</time>
      </trkpt>
      <trkpt lat="42.77913" lon="0.17239">
        <ele>1886.72</ele>
        <time>2019-03-30T06:45:42Z</time>
      </trkpt>
      <trkpt lat="42.7791" lon="0.17243">
        <ele>1887.69</ele>
        <time>2019-03-30T06:45:49Z</time>
      </trkpt>
      <trkpt lat="42.77907" lon="0.17245">
        <ele>1889.13</ele>
        <time>2019-03-30T06:45:56Z</time>
      </trkpt>
      <trkpt lat="42.77904" lon="0.1725">
        <ele>1890.09</ele>
        <time>2019-03-30T06:46:03Z</time>
      </trkpt>
      <trkpt lat="42.779" lon="0.17256">
        <ele>1891.53</ele>
        <time>2019-03-30T06:46:10Z</time>
      </trkpt>
      <trkpt lat="42.77897" lon="0.17262">
        <ele>1892.49</ele>
        <time>2019-03-30T06:46:17Z</time>
      </trkpt>
      <trkpt lat="42.77894" lon="0.17268">
        <ele>1893.45</ele>
        <time>2019-03-30T06:46:23Z</time>
      </trkpt>
      <trkpt lat="42.77891" lon="0.17273">
        <ele>1894.42</ele>
        <time>2019-03-30T06:46:29Z</time>
      </trkpt>
      <trkpt lat="42.77888" lon="0.17278">
        <ele>1895.38</ele>
        <time>2019-03-30T06:46:36Z</time>
      </trkpt>
      <trkpt lat="42.77887" lon="0.17278">
        <ele>1895.86</ele>
        <time>2019-03-30T06:46:38Z</time>
      </trkpt>
      <trkpt lat="42.77884" lon="0.17284">
        <ele>1896.34</ele>
        <time>2019-03-30T06:46:45Z</time>
      </trkpt>
      <trkpt lat="42.77882" lon="0.17288">
        <ele>1897.78</ele>
        <time>2019-03-30T06:46:51Z</time>
      </trkpt>
      <trkpt lat="42.77879" lon="0.17292">
        <ele>1898.74</ele>
        <time>2019-03-30T06:46:57Z</time>
      </trkpt>
      <trkpt lat="42.77876" lon="0.17297">
        <ele>1899.7</ele>
        <time>2019-03-30T06:47:03Z</time>
      </trkpt>
      <trkpt lat="42.77872" lon="0.17303">
        <ele>1900.66</ele>
        <time>2019-03-30T06:47:10Z</time>
      </trkpt>
      <trkpt lat="42.77869" lon="0.17309">
        <ele>1902.11</ele>
        <time>2019-03-30T06:47:17Z</time>
      </trkpt>
      <trkpt lat="42.77866" lon="0.17311">
        <ele>1903.07</ele>
        <time>2019-03-30T06:47:23Z</time>
      </trkpt>
      <trkpt lat="42.77862" lon="0.17317">
        <ele>1904.51</ele>
        <time>2019-03-30T06:47:31Z</time>
      </trkpt>
      <trkpt lat="42.77856" lon="0.17322">
        <ele>1906.43</ele>
        <time>2019-03-30T06:47:39Z</time>
      </trkpt>
      <trkpt lat="42.77851" lon="0.17322">
        <ele>1907.39</ele>
        <time>2019-03-30T06:47:46Z</time>
      </trkpt>
      <trkpt lat="42.77845" lon="0.17319">
        <ele>1908.83</ele>
        <time>2019-03-30T06:47:54Z</time>
      </trkpt>
      <trkpt lat="42.77841" lon="0.17314">
        <ele>1909.8</ele>
        <time>2019-03-30T06:48:01Z</time>
      </trkpt>
      <trkpt lat="42.77838" lon="0.17309">
        <ele>1910.76</ele>
        <time>2019-03-30T06:48:07Z</time>
      </trkpt>
      <trkpt lat="42.77836" lon="0.17304">
        <ele>1912.68</ele>
        <time>2019-03-30T06:48:14Z</time>
      </trkpt>
      <trkpt lat="42.77837" lon="0.17296">
        <ele>1912.68</ele>
        <time>2019-03-30T06:48:21Z</time>
      </trkpt>
      <trkpt lat="42.77838" lon="0.17292">
        <ele>1913.64</ele>
        <time>2019-03-30T06:48:27Z</time>
      </trkpt>
      <trkpt lat="42.77837" lon="0.17284">
        <ele>1914.6</ele>
        <time>2019-03-30T06:48:34Z</time>
      </trkpt>
      <trkpt lat="42.77837" lon="0.17278">
        <ele>1916.04</ele>
        <time>2019-03-30T06:48:41Z</time>
      </trkpt>
      <trkpt lat="42.77838" lon="0.17271">
        <ele>1917.01</ele>
        <time>2019-03-30T06:48:48Z</time>
      </trkpt>
      <trkpt lat="42.77839" lon="0.17263">
        <ele>1918.93</ele>
        <time>2019-03-30T06:48:57Z</time>
      </trkpt>
      <trkpt lat="42.77842" lon="0.1726">
        <ele>1919.89</ele>
        <time>2019-03-30T06:49:03Z</time>
      </trkpt>
      <trkpt lat="42.77843" lon="0.17256">
        <ele>1920.85</ele>
        <time>2019-03-30T06:49:10Z</time>
      </trkpt>
      <trkpt lat="42.77844" lon="0.17251">
        <ele>1922.29</ele>
        <time>2019-03-30T06:49:16Z</time>
      </trkpt>
      <trkpt lat="42.77846" lon="0.17245">
        <ele>1923.25</ele>
        <time>2019-03-30T06:49:23Z</time>
      </trkpt>
      <trkpt lat="42.77848" lon="0.17238">
        <ele>1924.7</ele>
        <time>2019-03-30T06:49:32Z</time>
      </trkpt>
      <trkpt lat="42.77847" lon="0.17233">
        <ele>1925.66</ele>
        <time>2019-03-30T06:49:38Z</time>
      </trkpt>
      <trkpt lat="42.77849" lon="0.17226">
        <ele>1927.1</ele>
        <time>2019-03-30T06:49:46Z</time>
      </trkpt>
      <trkpt lat="42.77848" lon="0.1722">
        <ele>1928.06</ele>
        <time>2019-03-30T06:49:53Z</time>
      </trkpt>
      <trkpt lat="42.77849" lon="0.17214">
        <ele>1929.5</ele>
        <time>2019-03-30T06:50:01Z</time>
      </trkpt>
      <trkpt lat="42.7785" lon="0.17207">
        <ele>1930.95</ele>
        <time>2019-03-30T06:50:10Z</time>
      </trkpt>
      <trkpt lat="42.77851" lon="0.17201">
        <ele>1932.39</ele>
        <time>2019-03-30T06:50:17Z</time>
      </trkpt>
      <trkpt lat="42.77852" lon="0.17195">
        <ele>1933.35</ele>
        <time>2019-03-30T06:50:24Z</time>
      </trkpt>
      <trkpt lat="42.77852" lon="0.17189">
        <ele>1934.79</ele>
        <time>2019-03-30T06:50:32Z</time>
      </trkpt>
      <trkpt lat="42.77851" lon="0.17183">
        <ele>1936.23</ele>
        <time>2019-03-30T06:50:39Z</time>
      </trkpt>
      <trkpt lat="42.77852" lon="0.17177">
        <ele>1937.19</ele>
        <time>2019-03-30T06:50:46Z</time>
      </trkpt>
      <trkpt lat="42.77852" lon="0.1717">
        <ele>1938.16</ele>
        <time>2019-03-30T06:50:53Z</time>
      </trkpt>
      <trkpt lat="42.77852" lon="0.17163">
        <ele>1939.6</ele>
        <time>2019-03-30T06:51:01Z</time>
      </trkpt>
      <trkpt lat="42.77854" lon="0.17154">
        <ele>1941.52</ele>
        <time>2019-03-30T06:51:11Z</time>
      </trkpt>
      <trkpt lat="42.77852" lon="0.17148">
        <ele>1942.48</ele>
        <time>2019-03-30T06:51:18Z</time>
      </trkpt>
      <trkpt lat="42.77852" lon="0.17139">
        <ele>1943.44</ele>
        <time>2019-03-30T06:51:26Z</time>
      </trkpt>
      <trkpt lat="42.77852" lon="0.17138">
        <ele>1944.4</ele>
        <time>2019-03-30T06:51:33Z</time>
      </trkpt>
      <trkpt lat="42.77853" lon="0.17138">
        <ele>1944.4</ele>
        <time>2019-03-30T06:51:42Z</time>
      </trkpt>
      <trkpt lat="42.77852" lon="0.17138">
        <ele>1944.4</ele>
        <time>2019-03-30T06:51:57Z</time>
      </trkpt>
      <trkpt lat="42.77851" lon="0.17133">
        <ele>1944.88</ele>
        <time>2019-03-30T06:52:07Z</time>
      </trkpt>
      <trkpt lat="42.7785" lon="0.17123">
        <ele>1946.81</ele>
        <time>2019-03-30T06:52:16Z</time>
      </trkpt>
      <trkpt lat="42.77849" lon="0.17115">
        <ele>1947.77</ele>
        <time>2019-03-30T06:52:24Z</time>
      </trkpt>
      <trkpt lat="42.77847" lon="0.1711">
        <ele>1949.21</ele>
        <time>2019-03-30T06:52:32Z</time>
      </trkpt>
      <trkpt lat="42.77845" lon="0.171">
        <ele>1950.65</ele>
        <time>2019-03-30T06:52:41Z</time>
      </trkpt>
      <trkpt lat="42.77843" lon="0.17092">
        <ele>1951.61</ele>
        <time>2019-03-30T06:52:49Z</time>
      </trkpt>
      <trkpt lat="42.77841" lon="0.17086">
        <ele>1952.57</ele>
        <time>2019-03-30T06:52:56Z</time>
      </trkpt>
      <trkpt lat="42.77839" lon="0.1708">
        <ele>1953.54</ele>
        <time>2019-03-30T06:53:04Z</time>
      </trkpt>
      <trkpt lat="42.77838" lon="0.17074">
        <ele>1954.98</ele>
        <time>2019-03-30T06:53:11Z</time>
      </trkpt>
      <trkpt lat="42.77837" lon="0.17067">
        <ele>1955.94</ele>
        <time>2019-03-30T06:53:18Z</time>
      </trkpt>
      <trkpt lat="42.77836" lon="0.17059">
        <ele>1956.9</ele>
        <time>2019-03-30T06:53:27Z</time>
      </trkpt>
      <trkpt lat="42.77834" lon="0.17051">
        <ele>1957.86</ele>
        <time>2019-03-30T06:53:35Z</time>
      </trkpt>
      <trkpt lat="42.77832" lon="0.17043">
        <ele>1959.3</ele>
        <time>2019-03-30T06:53:43Z</time>
      </trkpt>
      <trkpt lat="42.7783" lon="0.17036">
        <ele>1960.27</ele>
        <time>2019-03-30T06:53:52Z</time>
      </trkpt>
      <trkpt lat="42.77828" lon="0.17029">
        <ele>1961.23</ele>
        <time>2019-03-30T06:54:01Z</time>
      </trkpt>
      <trkpt lat="42.77826" lon="0.17022">
        <ele>1962.19</ele>
        <time>2019-03-30T06:54:08Z</time>
      </trkpt>
      <trkpt lat="42.77824" lon="0.17016">
        <ele>1963.63</ele>
        <time>2019-03-30T06:54:16Z</time>
      </trkpt>
      <trkpt lat="42.77823" lon="0.17009">
        <ele>1964.59</ele>
        <time>2019-03-30T06:54:24Z</time>
      </trkpt>
      <trkpt lat="42.77822" lon="0.17002">
        <ele>1966.03</ele>
        <time>2019-03-30T06:54:32Z</time>
      </trkpt>
      <trkpt lat="42.7782" lon="0.16995">
        <ele>1966.51</ele>
        <time>2019-03-30T06:54:39Z</time>
      </trkpt>
      <trkpt lat="42.77818" lon="0.16991">
        <ele>1967.96</ele>
        <time>2019-03-30T06:54:46Z</time>
      </trkpt>
      <trkpt lat="42.77817" lon="0.16985">
        <ele>1968.92</ele>
        <time>2019-03-30T06:54:53Z</time>
      </trkpt>
      <trkpt lat="42.77813" lon="0.16977">
        <ele>1970.36</ele>
        <time>2019-03-30T06:55:01Z</time>
      </trkpt>
      <trkpt lat="42.77812" lon="0.16972">
        <ele>1971.32</ele>
        <time>2019-03-30T06:55:08Z</time>
      </trkpt>
      <trkpt lat="42.7781" lon="0.16964">
        <ele>1973.24</ele>
        <time>2019-03-30T06:55:17Z</time>
      </trkpt>
      <trkpt lat="42.77806" lon="0.16958">
        <ele>1974.2</ele>
        <time>2019-03-30T06:55:24Z</time>
      </trkpt>
      <trkpt lat="42.778" lon="0.16951">
        <ele>1975.65</ele>
        <time>2019-03-30T06:55:32Z</time>
      </trkpt>
      <trkpt lat="42.77799" lon="0.16949">
        <ele>1976.13</ele>
        <time>2019-03-30T06:55:42Z</time>
      </trkpt>
      <trkpt lat="42.778" lon="0.1695">
        <ele>1976.13</ele>
        <time>2019-03-30T06:55:54Z</time>
      </trkpt>
      <trkpt lat="42.778" lon="0.1695">
        <ele>1976.13</ele>
        <time>2019-03-30T06:56:07Z</time>
      </trkpt>
      <trkpt lat="42.77799" lon="0.1695">
        <ele>1976.61</ele>
        <time>2019-03-30T06:56:22Z</time>
      </trkpt>
      <trkpt lat="42.77799" lon="0.16947">
        <ele>1976.61</ele>
        <time>2019-03-30T06:56:33Z</time>
      </trkpt>
      <trkpt lat="42.77798" lon="0.16947">
        <ele>1977.09</ele>
        <time>2019-03-30T06:56:36Z</time>
      </trkpt>
      <trkpt lat="42.77795" lon="0.16949">
        <ele>1977.57</ele>
        <time>2019-03-30T06:56:44Z</time>
      </trkpt>
      <trkpt lat="42.77795" lon="0.16949">
        <ele>1977.09</ele>
        <time>2019-03-30T06:57:02Z</time>
      </trkpt>
      <trkpt lat="42.77793" lon="0.16952">
        <ele>1977.09</ele>
        <time>2019-03-30T06:57:10Z</time>
      </trkpt>
      <trkpt lat="42.77791" lon="0.16955">
        <ele>1978.05</ele>
        <time>2019-03-30T06:57:17Z</time>
      </trkpt>
      <trkpt lat="42.7779" lon="0.16962">
        <ele>1979.01</ele>
        <time>2019-03-30T06:57:24Z</time>
      </trkpt>
      <trkpt lat="42.7779" lon="0.16966">
        <ele>1979.97</ele>
        <time>2019-03-30T06:57:28Z</time>
      </trkpt>
      <trkpt lat="42.7779" lon="0.16976">
        <ele>1981.41</ele>
        <time>2019-03-30T06:57:36Z</time>
      </trkpt>
      <trkpt lat="42.7779" lon="0.1698">
        <ele>1982.86</ele>
        <time>2019-03-30T06:57:42Z</time>
      </trkpt>
      <trkpt lat="42.7779" lon="0.16989">
        <ele>1984.3</ele>
        <time>2019-03-30T06:57:50Z</time>
      </trkpt>
      <trkpt lat="42.77789" lon="0.16995">
        <ele>1985.26</ele>
        <time>2019-03-30T06:57:57Z</time>
      </trkpt>
      <trkpt lat="42.77789" lon="0.17004">
        <ele>1987.18</ele>
        <time>2019-03-30T06:58:05Z</time>
      </trkpt>
      <trkpt lat="42.77787" lon="0.17011">
        <ele>1988.62</ele>
        <time>2019-03-30T06:58:12Z</time>
      </trkpt>
      <trkpt lat="42.77785" lon="0.17019">
        <ele>1990.55</ele>
        <time>2019-03-30T06:58:21Z</time>
      </trkpt>
      <trkpt lat="42.77784" lon="0.17024">
        <ele>1991.51</ele>
        <time>2019-03-30T06:58:27Z</time>
      </trkpt>
      <trkpt lat="42.77783" lon="0.1703">
        <ele>1992.95</ele>
        <time>2019-03-30T06:58:34Z</time>
      </trkpt>
      <trkpt lat="42.77781" lon="0.17034">
        <ele>1994.39</ele>
        <time>2019-03-30T06:58:41Z</time>
      </trkpt>
      <trkpt lat="42.7778" lon="0.17038">
        <ele>1995.35</ele>
        <time>2019-03-30T06:58:48Z</time>
      </trkpt>
      <trkpt lat="42.77778" lon="0.17045">
        <ele>1996.8</ele>
        <time>2019-03-30T06:58:55Z</time>
      </trkpt>
      <trkpt lat="42.77777" lon="0.17049">
        <ele>1997.76</ele>
        <time>2019-03-30T06:59:01Z</time>
      </trkpt>
      <trkpt lat="42.77776" lon="0.17055">
        <ele>1998.72</ele>
        <time>2019-03-30T06:59:08Z</time>
      </trkpt>
      <trkpt lat="42.77775" lon="0.17062">
        <ele>2000.16</ele>
        <time>2019-03-30T06:59:15Z</time>
      </trkpt>
      <trkpt lat="42.77773" lon="0.17067">
        <ele>2001.12</ele>
        <time>2019-03-30T06:59:21Z</time>
      </trkpt>
      <trkpt lat="42.77771" lon="0.17075">
        <ele>2002.08</ele>
        <time>2019-03-30T06:59:29Z</time>
      </trkpt>
      <trkpt lat="42.77768" lon="0.1708">
        <ele>2003.04</ele>
        <time>2019-03-30T06:59:36Z</time>
      </trkpt>
      <trkpt lat="42.77768" lon="0.17082">
        <ele>2004.01</ele>
        <time>2019-03-30T06:59:43Z</time>
      </trkpt>
      <trkpt lat="42.77765" lon="0.17088">
        <ele>2005.45</ele>
        <time>2019-03-30T06:59:51Z</time>
      </trkpt>
      <trkpt lat="42.77762" lon="0.17093">
        <ele>2006.41</ele>
        <time>2019-03-30T06:59:57Z</time>
      </trkpt>
      <trkpt lat="42.77759" lon="0.17097">
        <ele>2006.89</ele>
        <time>2019-03-30T07:00:04Z</time>
      </trkpt>
      <trkpt lat="42.77756" lon="0.17102">
        <ele>2008.33</ele>
        <time>2019-03-30T07:00:12Z</time>
      </trkpt>
      <trkpt lat="42.77754" lon="0.17105">
        <ele>2009.29</ele>
        <time>2019-03-30T07:00:19Z</time>
      </trkpt>
      <trkpt lat="42.7775" lon="0.17108">
        <ele>2010.25</ele>
        <time>2019-03-30T07:00:27Z</time>
      </trkpt>
      <trkpt lat="42.77747" lon="0.17109">
        <ele>2011.22</ele>
        <time>2019-03-30T07:00:35Z</time>
      </trkpt>
      <trkpt lat="42.77742" lon="0.17111">
        <ele>2012.18</ele>
        <time>2019-03-30T07:00:43Z</time>
      </trkpt>
      <trkpt lat="42.77738" lon="0.17113">
        <ele>2013.14</ele>
        <time>2019-03-30T07:00:50Z</time>
      </trkpt>
      <trkpt lat="42.77733" lon="0.17113">
        <ele>2014.1</ele>
        <time>2019-03-30T07:00:58Z</time>
      </trkpt>
      <trkpt lat="42.77729" lon="0.17115">
        <ele>2015.06</ele>
        <time>2019-03-30T07:01:06Z</time>
      </trkpt>
      <trkpt lat="42.77724" lon="0.17117">
        <ele>2016.02</ele>
        <time>2019-03-30T07:01:14Z</time>
      </trkpt>
      <trkpt lat="42.77718" lon="0.17117">
        <ele>2016.98</ele>
        <time>2019-03-30T07:01:23Z</time>
      </trkpt>
      <trkpt lat="42.77713" lon="0.17115">
        <ele>2017.94</ele>
        <time>2019-03-30T07:01:31Z</time>
      </trkpt>
      <trkpt lat="42.77709" lon="0.17114">
        <ele>2018.91</ele>
        <time>2019-03-30T07:01:39Z</time>
      </trkpt>
      <trkpt lat="42.77708" lon="0.17114">
        <ele>2019.39</ele>
        <time>2019-03-30T07:01:49Z</time>
      </trkpt>
      <trkpt lat="42.77705" lon="0.17113">
        <ele>2019.39</ele>
        <time>2019-03-30T07:01:56Z</time>
      </trkpt>
      <trkpt lat="42.777" lon="0.17108">
        <ele>2019.87</ele>
        <time>2019-03-30T07:02:04Z</time>
      </trkpt>
      <trkpt lat="42.777" lon="0.17108">
        <ele>2020.83</ele>
        <time>2019-03-30T07:02:12Z</time>
      </trkpt>
      <trkpt lat="42.777" lon="0.17109">
        <ele>2020.35</ele>
        <time>2019-03-30T07:02:21Z</time>
      </trkpt>
      <trkpt lat="42.777" lon="0.17109">
        <ele>2013.14</ele>
        <time>2019-03-30T07:02:22Z</time>
      </trkpt>
      <trkpt lat="42.777" lon="0.17109">
        <ele>2026.6</ele>
        <time>2019-03-30T07:02:23Z</time>
      </trkpt>
      <trkpt lat="42.777" lon="0.17109">
        <ele>2020.83</ele>
        <time>2019-03-30T07:02:24Z</time>
      </trkpt>
      <trkpt lat="42.77699" lon="0.17109">
        <ele>2016.98</ele>
        <time>2019-03-30T07:02:29Z</time>
      </trkpt>
      <trkpt lat="42.77699" lon="0.17109">
        <ele>2022.75</ele>
        <time>2019-03-30T07:02:30Z</time>
      </trkpt>
      <trkpt lat="42.77699" lon="0.17108">
        <ele>2017.46</ele>
        <time>2019-03-30T07:02:33Z</time>
      </trkpt>
      <trkpt lat="42.77699" lon="0.17108">
        <ele>2023.23</ele>
        <time>2019-03-30T07:02:34Z</time>
      </trkpt>
      <trkpt lat="42.77699" lon="0.17108">
        <ele>2019.87</ele>
        <time>2019-03-30T07:02:35Z</time>
      </trkpt>
      <trkpt lat="42.77699" lon="0.17108">
        <ele>2019.87</ele>
        <time>2019-03-30T07:02:45Z</time>
      </trkpt>
      <trkpt lat="42.77695" lon="0.17106">
        <ele>2020.35</ele>
        <time>2019-03-30T07:02:52Z</time>
      </trkpt>
      <trkpt lat="42.77689" lon="0.17103">
        <ele>2021.79</ele>
        <time>2019-03-30T07:03:01Z</time>
      </trkpt>
      <trkpt lat="42.77685" lon="0.17099">
        <ele>2022.75</ele>
        <time>2019-03-30T07:03:09Z</time>
      </trkpt>
      <trkpt lat="42.77678" lon="0.17093">
        <ele>2024.19</ele>
        <time>2019-03-30T07:03:17Z</time>
      </trkpt>
      <trkpt lat="42.77674" lon="0.17088">
        <ele>2025.15</ele>
        <time>2019-03-30T07:03:25Z</time>
      </trkpt>
      <trkpt lat="42.77673" lon="0.17084">
        <ele>2026.6</ele>
        <time>2019-03-30T07:03:33Z</time>
      </trkpt>
      <trkpt lat="42.77672" lon="0.17083">
        <ele>2026.6</ele>
        <time>2019-03-30T07:03:34Z</time>
      </trkpt>
      <trkpt lat="42.7767" lon="0.17075">
        <ele>2027.56</ele>
        <time>2019-03-30T07:03:41Z</time>
      </trkpt>
      <trkpt lat="42.77669" lon="0.17074">
        <ele>2028.04</ele>
        <time>2019-03-30T07:03:42Z</time>
      </trkpt>
      <trkpt lat="42.7767" lon="0.17068">
        <ele>2029</ele>
        <time>2019-03-30T07:03:49Z</time>
      </trkpt>
      <trkpt lat="42.77668" lon="0.17061">
        <ele>2029.48</ele>
        <time>2019-03-30T07:03:56Z</time>
      </trkpt>
      <trkpt lat="42.77665" lon="0.17055">
        <ele>2030.44</ele>
        <time>2019-03-30T07:04:01Z</time>
      </trkpt>
      <trkpt lat="42.77666" lon="0.17048">
        <ele>2031.4</ele>
        <time>2019-03-30T07:04:09Z</time>
      </trkpt>
      <trkpt lat="42.7767" lon="0.17042">
        <ele>2032.84</ele>
        <time>2019-03-30T07:04:16Z</time>
      </trkpt>
      <trkpt lat="42.77672" lon="0.17037">
        <ele>2032.36</ele>
        <time>2019-03-30T07:04:23Z</time>
      </trkpt>
      <trkpt lat="42.77673" lon="0.17032">
        <ele>2033.33</ele>
        <time>2019-03-30T07:04:29Z</time>
      </trkpt>
      <trkpt lat="42.77677" lon="0.17029">
        <ele>2033.81</ele>
        <time>2019-03-30T07:04:34Z</time>
      </trkpt>
      <trkpt lat="42.7768" lon="0.17022">
        <ele>2034.77</ele>
        <time>2019-03-30T07:04:41Z</time>
      </trkpt>
      <trkpt lat="42.7768" lon="0.1702">
        <ele>2034.77</ele>
        <time>2019-03-30T07:04:44Z</time>
      </trkpt>
      <trkpt lat="42.77684" lon="0.17013">
        <ele>2036.21</ele>
        <time>2019-03-30T07:04:52Z</time>
      </trkpt>
      <trkpt lat="42.77684" lon="0.17005">
        <ele>2036.69</ele>
        <time>2019-03-30T07:04:59Z</time>
      </trkpt>
      <trkpt lat="42.77685" lon="0.17001">
        <ele>2037.17</ele>
        <time>2019-03-30T07:05:02Z</time>
      </trkpt>
      <trkpt lat="42.77684" lon="0.16998">
        <ele>2037.17</ele>
        <time>2019-03-30T07:05:05Z</time>
      </trkpt>
      <trkpt lat="42.77684" lon="0.16992">
        <ele>2037.65</ele>
        <time>2019-03-30T07:05:11Z</time>
      </trkpt>
      <trkpt lat="42.77683" lon="0.16985">
        <ele>2038.13</ele>
        <time>2019-03-30T07:05:17Z</time>
      </trkpt>
      <trkpt lat="42.77683" lon="0.16978">
        <ele>2038.61</ele>
        <time>2019-03-30T07:05:24Z</time>
      </trkpt>
      <trkpt lat="42.77681" lon="0.1697">
        <ele>2039.09</ele>
        <time>2019-03-30T07:05:31Z</time>
      </trkpt>
      <trkpt lat="42.77682" lon="0.16968">
        <ele>2039.57</ele>
        <time>2019-03-30T07:05:33Z</time>
      </trkpt>
      <trkpt lat="42.7768" lon="0.16964">
        <ele>2039.57</ele>
        <time>2019-03-30T07:05:36Z</time>
      </trkpt>
      <trkpt lat="42.77678" lon="0.16956">
        <ele>2040.54</ele>
        <time>2019-03-30T07:05:44Z</time>
      </trkpt>
      <trkpt lat="42.77677" lon="0.16951">
        <ele>2041.02</ele>
        <time>2019-03-30T07:05:48Z</time>
      </trkpt>
      <trkpt lat="42.77675" lon="0.16943">
        <ele>2041.5</ele>
        <time>2019-03-30T07:05:56Z</time>
      </trkpt>
      <trkpt lat="42.77675" lon="0.16937">
        <ele>2041.98</ele>
        <time>2019-03-30T07:06:01Z</time>
      </trkpt>
      <trkpt lat="42.77671" lon="0.1693">
        <ele>2042.94</ele>
        <time>2019-03-30T07:06:08Z</time>
      </trkpt>
      <trkpt lat="42.7767" lon="0.16923">
        <ele>2043.42</ele>
        <time>2019-03-30T07:06:15Z</time>
      </trkpt>
      <trkpt lat="42.7767" lon="0.16922">
        <ele>2043.9</ele>
        <time>2019-03-30T07:06:17Z</time>
      </trkpt>
      <trkpt lat="42.77668" lon="0.16913">
        <ele>2044.38</ele>
        <time>2019-03-30T07:06:25Z</time>
      </trkpt>
      <trkpt lat="42.77668" lon="0.16909">
        <ele>2044.86</ele>
        <time>2019-03-30T07:06:29Z</time>
      </trkpt>
      <trkpt lat="42.77664" lon="0.16902">
        <ele>2045.82</ele>
        <time>2019-03-30T07:06:35Z</time>
      </trkpt>
      <trkpt lat="42.77664" lon="0.169">
        <ele>2045.82</ele>
        <time>2019-03-30T07:06:38Z</time>
      </trkpt>
      <trkpt lat="42.77663" lon="0.16894">
        <ele>2046.3</ele>
        <time>2019-03-30T07:06:43Z</time>
      </trkpt>
      <trkpt lat="42.77659" lon="0.16886">
        <ele>2047.26</ele>
        <time>2019-03-30T07:06:50Z</time>
      </trkpt>
      <trkpt lat="42.77658" lon="0.1688">
        <ele>2047.26</ele>
        <time>2019-03-30T07:06:57Z</time>
      </trkpt>
      <trkpt lat="42.77658" lon="0.16877">
        <ele>2048.23</ele>
        <time>2019-03-30T07:07:01Z</time>
      </trkpt>
      <trkpt lat="42.77655" lon="0.1687">
        <ele>2048.71</ele>
        <time>2019-03-30T07:07:07Z</time>
      </trkpt>
      <trkpt lat="42.77655" lon="0.16863">
        <ele>2049.67</ele>
        <time>2019-03-30T07:07:14Z</time>
      </trkpt>
      <trkpt lat="42.77654" lon="0.1686">
        <ele>2050.15</ele>
        <time>2019-03-30T07:07:17Z</time>
      </trkpt>
      <trkpt lat="42.77653" lon="0.16854">
        <ele>2050.63</ele>
        <time>2019-03-30T07:07:23Z</time>
      </trkpt>
      <trkpt lat="42.77652" lon="0.16848">
        <ele>2051.59</ele>
        <time>2019-03-30T07:07:30Z</time>
      </trkpt>
      <trkpt lat="42.77652" lon="0.16847">
        <ele>2051.59</ele>
        <time>2019-03-30T07:07:32Z</time>
      </trkpt>
      <trkpt lat="42.7765" lon="0.1684">
        <ele>2052.55</ele>
        <time>2019-03-30T07:07:39Z</time>
      </trkpt>
      <trkpt lat="42.77647" lon="0.16832">
        <ele>2053.03</ele>
        <time>2019-03-30T07:07:46Z</time>
      </trkpt>
      <trkpt lat="42.77647" lon="0.1683">
        <ele>2053.51</ele>
        <time>2019-03-30T07:07:48Z</time>
      </trkpt>
      <trkpt lat="42.77642" lon="0.16822">
        <ele>2053.99</ele>
        <time>2019-03-30T07:07:55Z</time>
      </trkpt>
      <trkpt lat="42.77641" lon="0.1682">
        <ele>2054.47</ele>
        <time>2019-03-30T07:07:57Z</time>
      </trkpt>
      <trkpt lat="42.7764" lon="0.16811">
        <ele>2055.44</ele>
        <time>2019-03-30T07:08:06Z</time>
      </trkpt>
      <trkpt lat="42.77638" lon="0.16807">
        <ele>2056.4</ele>
        <time>2019-03-30T07:08:12Z</time>
      </trkpt>
      <trkpt lat="42.77637" lon="0.168">
        <ele>2056.88</ele>
        <time>2019-03-30T07:08:20Z</time>
      </trkpt>
      <trkpt lat="42.77635" lon="0.16794">
        <ele>2057.84</ele>
        <time>2019-03-30T07:08:26Z</time>
      </trkpt>
      <trkpt lat="42.77634" lon="0.16787">
        <ele>2058.32</ele>
        <time>2019-03-30T07:08:33Z</time>
      </trkpt>
      <trkpt lat="42.77631" lon="0.16778">
        <ele>2059.28</ele>
        <time>2019-03-30T07:08:41Z</time>
      </trkpt>
      <trkpt lat="42.77629" lon="0.1677">
        <ele>2060.24</ele>
        <time>2019-03-30T07:08:49Z</time>
      </trkpt>
      <trkpt lat="42.77628" lon="0.16768">
        <ele>2060.72</ele>
        <time>2019-03-30T07:08:51Z</time>
      </trkpt>
      <trkpt lat="42.77627" lon="0.1676">
        <ele>2061.2</ele>
        <time>2019-03-30T07:08:59Z</time>
      </trkpt>
      <trkpt lat="42.77625" lon="0.16753">
        <ele>2062.17</ele>
        <time>2019-03-30T07:09:07Z</time>
      </trkpt>
      <trkpt lat="42.77624" lon="0.16747">
        <ele>2063.13</ele>
        <time>2019-03-30T07:09:14Z</time>
      </trkpt>
      <trkpt lat="42.77623" lon="0.1674">
        <ele>2063.61</ele>
        <time>2019-03-30T07:09:20Z</time>
      </trkpt>
      <trkpt lat="42.77621" lon="0.16736">
        <ele>2063.61</ele>
        <time>2019-03-30T07:09:23Z</time>
      </trkpt>
      <trkpt lat="42.77621" lon="0.1673">
        <ele>2064.57</ele>
        <time>2019-03-30T07:09:29Z</time>
      </trkpt>
      <trkpt lat="42.77621" lon="0.16722">
        <ele>2065.05</ele>
        <time>2019-03-30T07:09:37Z</time>
      </trkpt>
      <trkpt lat="42.77622" lon="0.1672">
        <ele>2065.05</ele>
        <time>2019-03-30T07:09:41Z</time>
      </trkpt>
      <trkpt lat="42.7762" lon="0.16716">
        <ele>2065.05</ele>
        <time>2019-03-30T07:09:47Z</time>
      </trkpt>
      <trkpt lat="42.7762" lon="0.16713">
        <ele>2065.05</ele>
        <time>2019-03-30T07:09:56Z</time>
      </trkpt>
      <trkpt lat="42.7762" lon="0.16705">
        <ele>2066.01</ele>
        <time>2019-03-30T07:10:05Z</time>
      </trkpt>
      <trkpt lat="42.77617" lon="0.16696">
        <ele>2066.97</ele>
        <time>2019-03-30T07:10:13Z</time>
      </trkpt>
      <trkpt lat="42.77618" lon="0.16691">
        <ele>2068.41</ele>
        <time>2019-03-30T07:10:17Z</time>
      </trkpt>
      <trkpt lat="42.77615" lon="0.16682">
        <ele>2067.93</ele>
        <time>2019-03-30T07:10:24Z</time>
      </trkpt>
      <trkpt lat="42.77615" lon="0.16681">
        <ele>2068.41</ele>
        <time>2019-03-30T07:10:25Z</time>
      </trkpt>
      <trkpt lat="42.77614" lon="0.16677">
        <ele>2068.41</ele>
        <time>2019-03-30T07:10:28Z</time>
      </trkpt>
      <trkpt lat="42.7761" lon="0.16668">
        <ele>2069.38</ele>
        <time>2019-03-30T07:10:36Z</time>
      </trkpt>
      <trkpt lat="42.77609" lon="0.16661">
        <ele>2069.86</ele>
        <time>2019-03-30T07:10:43Z</time>
      </trkpt>
      <trkpt lat="42.77609" lon="0.16656">
        <ele>2070.34</ele>
        <time>2019-03-30T07:10:48Z</time>
      </trkpt>
      <trkpt lat="42.77609" lon="0.1665">
        <ele>2070.34</ele>
        <time>2019-03-30T07:10:55Z</time>
      </trkpt>
      <trkpt lat="42.77606" lon="0.16643">
        <ele>2071.3</ele>
        <time>2019-03-30T07:11:01Z</time>
      </trkpt>
      <trkpt lat="42.77604" lon="0.16639">
        <ele>2071.3</ele>
        <time>2019-03-30T07:11:04Z</time>
      </trkpt>
      <trkpt lat="42.77601" lon="0.1663">
        <ele>2071.78</ele>
        <time>2019-03-30T07:11:12Z</time>
      </trkpt>
      <trkpt lat="42.77599" lon="0.16625">
        <ele>2072.26</ele>
        <time>2019-03-30T07:11:18Z</time>
      </trkpt>
      <trkpt lat="42.77598" lon="0.16622">
        <ele>2072.26</ele>
        <time>2019-03-30T07:11:21Z</time>
      </trkpt>
      <trkpt lat="42.77595" lon="0.16618">
        <ele>2072.74</ele>
        <time>2019-03-30T07:11:24Z</time>
      </trkpt>
      <trkpt lat="42.7759" lon="0.16609">
        <ele>2073.22</ele>
        <time>2019-03-30T07:11:32Z</time>
      </trkpt>
      <trkpt lat="42.77585" lon="0.16599">
        <ele>2074.18</ele>
        <time>2019-03-30T07:11:43Z</time>
      </trkpt>
      <trkpt lat="42.77583" lon="0.16593">
        <ele>2074.66</ele>
        <time>2019-03-30T07:11:49Z</time>
      </trkpt>
      <trkpt lat="42.77582" lon="0.16591">
        <ele>2075.14</ele>
        <time>2019-03-30T07:11:51Z</time>
      </trkpt>
      <trkpt lat="42.77581" lon="0.16584">
        <ele>2075.62</ele>
        <time>2019-03-30T07:11:59Z</time>
      </trkpt>
      <trkpt lat="42.77578" lon="0.16577">
        <ele>2076.1</ele>
        <time>2019-03-30T07:12:06Z</time>
      </trkpt>
      <trkpt lat="42.77573" lon="0.16567">
        <ele>2077.07</ele>
        <time>2019-03-30T07:12:15Z</time>
      </trkpt>
      <trkpt lat="42.77571" lon="0.16561">
        <ele>2077.55</ele>
        <time>2019-03-30T07:12:22Z</time>
      </trkpt>
      <trkpt lat="42.77567" lon="0.16553">
        <ele>2078.51</ele>
        <time>2019-03-30T07:12:30Z</time>
      </trkpt>
      <trkpt lat="42.77565" lon="0.16544">
        <ele>2078.99</ele>
        <time>2019-03-30T07:12:38Z</time>
      </trkpt>
      <trkpt lat="42.7756" lon="0.16539">
        <ele>2079.47</ele>
        <time>2019-03-30T07:12:45Z</time>
      </trkpt>
      <trkpt lat="42.77555" lon="0.16532">
        <ele>2079.95</ele>
        <time>2019-03-30T07:12:52Z</time>
      </trkpt>
      <trkpt lat="42.77553" lon="0.16524">
        <ele>2080.43</ele>
        <time>2019-03-30T07:12:59Z</time>
      </trkpt>
      <trkpt lat="42.77549" lon="0.16517">
        <ele>2080.91</ele>
        <time>2019-03-30T07:13:06Z</time>
      </trkpt>
      <trkpt lat="42.77547" lon="0.16508">
        <ele>2081.39</ele>
        <time>2019-03-30T07:13:14Z</time>
      </trkpt>
      <trkpt lat="42.77546" lon="0.16501">
        <ele>2081.87</ele>
        <time>2019-03-30T07:13:20Z</time>
      </trkpt>
      <trkpt lat="42.77542" lon="0.16491">
        <ele>2082.83</ele>
        <time>2019-03-30T07:13:28Z</time>
      </trkpt>
      <trkpt lat="42.77541" lon="0.16487">
        <ele>2082.83</ele>
        <time>2019-03-30T07:13:32Z</time>
      </trkpt>
      <trkpt lat="42.7754" lon="0.16483">
        <ele>2083.31</ele>
        <time>2019-03-30T07:13:35Z</time>
      </trkpt>
      <trkpt lat="42.77539" lon="0.1648">
        <ele>2083.31</ele>
        <time>2019-03-30T07:13:37Z</time>
      </trkpt>
      <trkpt lat="42.77538" lon="0.16476">
        <ele>2083.79</ele>
        <time>2019-03-30T07:13:40Z</time>
      </trkpt>
      <trkpt lat="42.77536" lon="0.16469">
        <ele>2083.79</ele>
        <time>2019-03-30T07:13:45Z</time>
      </trkpt>
      <trkpt lat="42.77534" lon="0.16461">
        <ele>2084.28</ele>
        <time>2019-03-30T07:13:51Z</time>
      </trkpt>
      <trkpt lat="42.77532" lon="0.16453">
        <ele>2084.76</ele>
        <time>2019-03-30T07:13:58Z</time>
      </trkpt>
      <trkpt lat="42.77532" lon="0.16447">
        <ele>2085.72</ele>
        <time>2019-03-30T07:14:05Z</time>
      </trkpt>
      <trkpt lat="42.77531" lon="0.16438">
        <ele>2086.68</ele>
        <time>2019-03-30T07:14:12Z</time>
      </trkpt>
      <trkpt lat="42.7753" lon="0.16432">
        <ele>2087.16</ele>
        <time>2019-03-30T07:14:18Z</time>
      </trkpt>
      <trkpt lat="42.7753" lon="0.16424">
        <ele>2087.64</ele>
        <time>2019-03-30T07:14:25Z</time>
      </trkpt>
      <trkpt lat="42.77527" lon="0.16418">
        <ele>2088.12</ele>
        <time>2019-03-30T07:14:31Z</time>
      </trkpt>
      <trkpt lat="42.77526" lon="0.16413">
        <ele>2088.6</ele>
        <time>2019-03-30T07:14:35Z</time>
      </trkpt>
      <trkpt lat="42.77524" lon="0.16409">
        <ele>2089.08</ele>
        <time>2019-03-30T07:14:41Z</time>
      </trkpt>
      <trkpt lat="42.77522" lon="0.16401">
        <ele>2089.56</ele>
        <time>2019-03-30T07:14:49Z</time>
      </trkpt>
      <trkpt lat="42.7752" lon="0.16398">
        <ele>2090.04</ele>
        <time>2019-03-30T07:14:52Z</time>
      </trkpt>
      <trkpt lat="42.77515" lon="0.16391">
        <ele>2091</ele>
        <time>2019-03-30T07:15:00Z</time>
      </trkpt>
      <trkpt lat="42.77513" lon="0.16388">
        <ele>2091.49</ele>
        <time>2019-03-30T07:15:03Z</time>
      </trkpt>
      <trkpt lat="42.77507" lon="0.16381">
        <ele>2091.97</ele>
        <time>2019-03-30T07:15:11Z</time>
      </trkpt>
      <trkpt lat="42.77503" lon="0.16378">
        <ele>2092.45</ele>
        <time>2019-03-30T07:15:19Z</time>
      </trkpt>
      <trkpt lat="42.775" lon="0.16375">
        <ele>2092.93</ele>
        <time>2019-03-30T07:15:22Z</time>
      </trkpt>
      <trkpt lat="42.77493" lon="0.1637">
        <ele>2092.93</ele>
        <time>2019-03-30T07:15:30Z</time>
      </trkpt>
      <trkpt lat="42.77488" lon="0.16366">
        <ele>2093.41</ele>
        <time>2019-03-30T07:15:37Z</time>
      </trkpt>
      <trkpt lat="42.77483" lon="0.16365">
        <ele>2093.89</ele>
        <time>2019-03-30T07:15:42Z</time>
      </trkpt>
      <trkpt lat="42.77477" lon="0.16361">
        <ele>2094.37</ele>
        <time>2019-03-30T07:15:49Z</time>
      </trkpt>
      <trkpt lat="42.7747" lon="0.16359">
        <ele>2094.37</ele>
        <time>2019-03-30T07:15:56Z</time>
      </trkpt>
      <trkpt lat="42.77469" lon="0.16358">
        <ele>2094.37</ele>
        <time>2019-03-30T07:15:57Z</time>
      </trkpt>
      <trkpt lat="42.7746" lon="0.16354">
        <ele>2094.85</ele>
        <time>2019-03-30T07:16:06Z</time>
      </trkpt>
      <trkpt lat="42.77455" lon="0.16349">
        <ele>2095.33</ele>
        <time>2019-03-30T07:16:13Z</time>
      </trkpt>
      <trkpt lat="42.77447" lon="0.16341">
        <ele>2096.29</ele>
        <time>2019-03-30T07:16:22Z</time>
      </trkpt>
      <trkpt lat="42.77442" lon="0.16336">
        <ele>2097.73</ele>
        <time>2019-03-30T07:16:30Z</time>
      </trkpt>
      <trkpt lat="42.77438" lon="0.16332">
        <ele>2098.21</ele>
        <time>2019-03-30T07:16:36Z</time>
      </trkpt>
      <trkpt lat="42.77434" lon="0.16329">
        <ele>2099.18</ele>
        <time>2019-03-30T07:16:43Z</time>
      </trkpt>
      <trkpt lat="42.77431" lon="0.16324">
        <ele>2099.66</ele>
        <time>2019-03-30T07:16:49Z</time>
      </trkpt>
      <trkpt lat="42.77427" lon="0.16319">
        <ele>2100.62</ele>
        <time>2019-03-30T07:16:56Z</time>
      </trkpt>
      <trkpt lat="42.77423" lon="0.16313">
        <ele>2101.58</ele>
        <time>2019-03-30T07:17:03Z</time>
      </trkpt>
      <trkpt lat="42.77418" lon="0.16308">
        <ele>2102.06</ele>
        <time>2019-03-30T07:17:09Z</time>
      </trkpt>
      <trkpt lat="42.77413" lon="0.16299">
        <ele>2103.5</ele>
        <time>2019-03-30T07:17:18Z</time>
      </trkpt>
      <trkpt lat="42.77412" lon="0.16296">
        <ele>2103.98</ele>
        <time>2019-03-30T07:17:22Z</time>
      </trkpt>
      <trkpt lat="42.77408" lon="0.16291">
        <ele>2104.46</ele>
        <time>2019-03-30T07:17:28Z</time>
      </trkpt>
      <trkpt lat="42.77407" lon="0.16284">
        <ele>2104.94</ele>
        <time>2019-03-30T07:17:35Z</time>
      </trkpt>
      <trkpt lat="42.77404" lon="0.16277">
        <ele>2105.42</ele>
        <time>2019-03-30T07:17:43Z</time>
      </trkpt>
      <trkpt lat="42.77403" lon="0.16273">
        <ele>2105.91</ele>
        <time>2019-03-30T07:17:47Z</time>
      </trkpt>
      <trkpt lat="42.77401" lon="0.16272">
        <ele>2106.39</ele>
        <time>2019-03-30T07:17:49Z</time>
      </trkpt>
      <trkpt lat="42.77395" lon="0.16265">
        <ele>2106.87</ele>
        <time>2019-03-30T07:17:56Z</time>
      </trkpt>
      <trkpt lat="42.77394" lon="0.16263">
        <ele>2106.87</ele>
        <time>2019-03-30T07:17:58Z</time>
      </trkpt>
      <trkpt lat="42.77392" lon="0.1626">
        <ele>2107.35</ele>
        <time>2019-03-30T07:18:01Z</time>
      </trkpt>
      <trkpt lat="42.77385" lon="0.16251">
        <ele>2108.31</ele>
        <time>2019-03-30T07:18:12Z</time>
      </trkpt>
      <trkpt lat="42.77381" lon="0.16248">
        <ele>2108.79</ele>
        <time>2019-03-30T07:18:19Z</time>
      </trkpt>
      <trkpt lat="42.77377" lon="0.16244">
        <ele>2109.27</ele>
        <time>2019-03-30T07:18:28Z</time>
      </trkpt>
      <trkpt lat="42.7737" lon="0.1624">
        <ele>2110.23</ele>
        <time>2019-03-30T07:18:36Z</time>
      </trkpt>
      <trkpt lat="42.77366" lon="0.16235">
        <ele>2111.19</ele>
        <time>2019-03-30T07:18:43Z</time>
      </trkpt>
      <trkpt lat="42.77364" lon="0.16229">
        <ele>2111.67</ele>
        <time>2019-03-30T07:18:48Z</time>
      </trkpt>
      <trkpt lat="42.77358" lon="0.16218">
        <ele>2111.67</ele>
        <time>2019-03-30T07:18:56Z</time>
      </trkpt>
      <trkpt lat="42.77358" lon="0.16217">
        <ele>2112.15</ele>
        <time>2019-03-30T07:18:57Z</time>
      </trkpt>
      <trkpt lat="42.77354" lon="0.16208">
        <ele>2112.63</ele>
        <time>2019-03-30T07:19:04Z</time>
      </trkpt>
      <trkpt lat="42.77353" lon="0.16201">
        <ele>2113.6</ele>
        <time>2019-03-30T07:19:11Z</time>
      </trkpt>
      <trkpt lat="42.77352" lon="0.16197">
        <ele>2114.56</ele>
        <time>2019-03-30T07:19:18Z</time>
      </trkpt>
      <trkpt lat="42.7735" lon="0.16192">
        <ele>2115.52</ele>
        <time>2019-03-30T07:19:25Z</time>
      </trkpt>
      <trkpt lat="42.77346" lon="0.16184">
        <ele>2116.48</ele>
        <time>2019-03-30T07:19:32Z</time>
      </trkpt>
      <trkpt lat="42.77344" lon="0.16177">
        <ele>2117.92</ele>
        <time>2019-03-30T07:19:41Z</time>
      </trkpt>
      <trkpt lat="42.77343" lon="0.1617">
        <ele>2118.88</ele>
        <time>2019-03-30T07:19:48Z</time>
      </trkpt>
      <trkpt lat="42.77342" lon="0.16167">
        <ele>2119.36</ele>
        <time>2019-03-30T07:19:51Z</time>
      </trkpt>
      <trkpt lat="42.77341" lon="0.1616">
        <ele>2120.32</ele>
        <time>2019-03-30T07:19:58Z</time>
      </trkpt>
      <trkpt lat="42.7734" lon="0.16155">
        <ele>2120.32</ele>
        <time>2019-03-30T07:20:01Z</time>
      </trkpt>
      <trkpt lat="42.7734" lon="0.16147">
        <ele>2121.77</ele>
        <time>2019-03-30T07:20:09Z</time>
      </trkpt>
      <trkpt lat="42.77338" lon="0.16142">
        <ele>2122.25</ele>
        <time>2019-03-30T07:20:15Z</time>
      </trkpt>
      <trkpt lat="42.77336" lon="0.16134">
        <ele>2123.21</ele>
        <time>2019-03-30T07:20:21Z</time>
      </trkpt>
      <trkpt lat="42.77335" lon="0.16133">
        <ele>2123.21</ele>
        <time>2019-03-30T07:20:22Z</time>
      </trkpt>
      <trkpt lat="42.77336" lon="0.16125">
        <ele>2123.69</ele>
        <time>2019-03-30T07:20:29Z</time>
      </trkpt>
      <trkpt lat="42.77334" lon="0.16119">
        <ele>2124.65</ele>
        <time>2019-03-30T07:20:37Z</time>
      </trkpt>
      <trkpt lat="42.77335" lon="0.16119">
        <ele>2124.65</ele>
        <time>2019-03-30T07:20:48Z</time>
      </trkpt>
      <trkpt lat="42.77335" lon="0.16119">
        <ele>2125.13</ele>
        <time>2019-03-30T07:20:59Z</time>
      </trkpt>
      <trkpt lat="42.77336" lon="0.16115">
        <ele>2125.13</ele>
        <time>2019-03-30T07:21:06Z</time>
      </trkpt>
      <trkpt lat="42.77336" lon="0.16108">
        <ele>2125.61</ele>
        <time>2019-03-30T07:21:13Z</time>
      </trkpt>
      <trkpt lat="42.77334" lon="0.16103">
        <ele>2126.09</ele>
        <time>2019-03-30T07:21:17Z</time>
      </trkpt>
      <trkpt lat="42.77332" lon="0.16095">
        <ele>2127.05</ele>
        <time>2019-03-30T07:21:24Z</time>
      </trkpt>
      <trkpt lat="42.77332" lon="0.16094">
        <ele>2127.05</ele>
        <time>2019-03-30T07:21:28Z</time>
      </trkpt>
      <trkpt lat="42.7733" lon="0.16086">
        <ele>2128.02</ele>
        <time>2019-03-30T07:21:36Z</time>
      </trkpt>
      <trkpt lat="42.77329" lon="0.1608">
        <ele>2128.5</ele>
        <time>2019-03-30T07:21:41Z</time>
      </trkpt>
      <trkpt lat="42.77328" lon="0.16076">
        <ele>2128.98</ele>
        <time>2019-03-30T07:21:44Z</time>
      </trkpt>
      <trkpt lat="42.77327" lon="0.1607">
        <ele>2129.46</ele>
        <time>2019-03-30T07:21:49Z</time>
      </trkpt>
      <trkpt lat="42.77326" lon="0.16063">
        <ele>2129.94</ele>
        <time>2019-03-30T07:21:55Z</time>
      </trkpt>
      <trkpt lat="42.77325" lon="0.16056">
        <ele>2130.42</ele>
        <time>2019-03-30T07:22:01Z</time>
      </trkpt>
      <trkpt lat="42.77325" lon="0.16053">
        <ele>2130.9</ele>
        <time>2019-03-30T07:22:04Z</time>
      </trkpt>
      <trkpt lat="42.77327" lon="0.16047">
        <ele>2131.86</ele>
        <time>2019-03-30T07:22:09Z</time>
      </trkpt>
      <trkpt lat="42.77326" lon="0.16037">
        <ele>2132.82</ele>
        <time>2019-03-30T07:22:17Z</time>
      </trkpt>
      <trkpt lat="42.77326" lon="0.16034">
        <ele>2132.82</ele>
        <time>2019-03-30T07:22:19Z</time>
      </trkpt>
      <trkpt lat="42.77326" lon="0.16026">
        <ele>2133.78</ele>
        <time>2019-03-30T07:22:25Z</time>
      </trkpt>
      <trkpt lat="42.77326" lon="0.16021">
        <ele>2134.26</ele>
        <time>2019-03-30T07:22:30Z</time>
      </trkpt>
      <trkpt lat="42.77326" lon="0.16014">
        <ele>2134.74</ele>
        <time>2019-03-30T07:22:35Z</time>
      </trkpt>
      <trkpt lat="42.77326" lon="0.16011">
        <ele>2134.74</ele>
        <time>2019-03-30T07:22:37Z</time>
      </trkpt>
      <trkpt lat="42.77326" lon="0.16001">
        <ele>2135.23</ele>
        <time>2019-03-30T07:22:45Z</time>
      </trkpt>
      <trkpt lat="42.77327" lon="0.16">
        <ele>2135.71</ele>
        <time>2019-03-30T07:22:46Z</time>
      </trkpt>
      <trkpt lat="42.77328" lon="0.15994">
        <ele>2136.19</ele>
        <time>2019-03-30T07:22:53Z</time>
      </trkpt>
      <trkpt lat="42.77329" lon="0.15983">
        <ele>2137.15</ele>
        <time>2019-03-30T07:23:01Z</time>
      </trkpt>
      <trkpt lat="42.77329" lon="0.15978">
        <ele>2137.15</ele>
        <time>2019-03-30T07:23:05Z</time>
      </trkpt>
      <trkpt lat="42.77328" lon="0.15969">
        <ele>2138.11</ele>
        <time>2019-03-30T07:23:12Z</time>
      </trkpt>
      <trkpt lat="42.77327" lon="0.15961">
        <ele>2138.59</ele>
        <time>2019-03-30T07:23:18Z</time>
      </trkpt>
      <trkpt lat="42.77329" lon="0.15955">
        <ele>2139.07</ele>
        <time>2019-03-30T07:23:24Z</time>
      </trkpt>
      <trkpt lat="42.77329" lon="0.15947">
        <ele>2139.55</ele>
        <time>2019-03-30T07:23:31Z</time>
      </trkpt>
      <trkpt lat="42.77329" lon="0.15941">
        <ele>2140.03</ele>
        <time>2019-03-30T07:23:37Z</time>
      </trkpt>
      <trkpt lat="42.77329" lon="0.15932">
        <ele>2140.99</ele>
        <time>2019-03-30T07:23:43Z</time>
      </trkpt>
      <trkpt lat="42.77329" lon="0.15926">
        <ele>2141.95</ele>
        <time>2019-03-30T07:23:50Z</time>
      </trkpt>
      <trkpt lat="42.77329" lon="0.15923">
        <ele>2142.44</ele>
        <time>2019-03-30T07:23:53Z</time>
      </trkpt>
      <trkpt lat="42.77328" lon="0.15915">
        <ele>2142.92</ele>
        <time>2019-03-30T07:24:00Z</time>
      </trkpt>
      <trkpt lat="42.77328" lon="0.15908">
        <ele>2143.4</ele>
        <time>2019-03-30T07:24:05Z</time>
      </trkpt>
      <trkpt lat="42.77327" lon="0.159">
        <ele>2144.36</ele>
        <time>2019-03-30T07:24:11Z</time>
      </trkpt>
      <trkpt lat="42.77326" lon="0.15893">
        <ele>2145.8</ele>
        <time>2019-03-30T07:24:18Z</time>
      </trkpt>
      <trkpt lat="42.77325" lon="0.15891">
        <ele>2144.84</ele>
        <time>2019-03-30T07:24:20Z</time>
      </trkpt>
      <trkpt lat="42.77325" lon="0.15887">
        <ele>2144.84</ele>
        <time>2019-03-30T07:24:23Z</time>
      </trkpt>
      <trkpt lat="42.77323" lon="0.15883">
        <ele>2145.32</ele>
        <time>2019-03-30T07:24:26Z</time>
      </trkpt>
      <trkpt lat="42.77323" lon="0.15879">
        <ele>2145.8</ele>
        <time>2019-03-30T07:24:29Z</time>
      </trkpt>
      <trkpt lat="42.77319" lon="0.15869">
        <ele>2146.28</ele>
        <time>2019-03-30T07:24:37Z</time>
      </trkpt>
      <trkpt lat="42.77319" lon="0.15868">
        <ele>2146.28</ele>
        <time>2019-03-30T07:24:38Z</time>
      </trkpt>
      <trkpt lat="42.77319" lon="0.15866">
        <ele>2146.76</ele>
        <time>2019-03-30T07:24:40Z</time>
      </trkpt>
      <trkpt lat="42.77315" lon="0.15857">
        <ele>2147.24</ele>
        <time>2019-03-30T07:24:48Z</time>
      </trkpt>
      <trkpt lat="42.77311" lon="0.15851">
        <ele>2148.2</ele>
        <time>2019-03-30T07:24:55Z</time>
      </trkpt>
      <trkpt lat="42.7731" lon="0.1585">
        <ele>2148.68</ele>
        <time>2019-03-30T07:24:57Z</time>
      </trkpt>
      <trkpt lat="42.77307" lon="0.15847">
        <ele>2148.68</ele>
        <time>2019-03-30T07:25:01Z</time>
      </trkpt>
      <trkpt lat="42.77306" lon="0.15844">
        <ele>2149.16</ele>
        <time>2019-03-30T07:25:04Z</time>
      </trkpt>
      <trkpt lat="42.77304" lon="0.15841">
        <ele>2150.13</ele>
        <time>2019-03-30T07:25:08Z</time>
      </trkpt>
      <trkpt lat="42.773" lon="0.15836">
        <ele>2150.61</ele>
        <time>2019-03-30T07:25:16Z</time>
      </trkpt>
      <trkpt lat="42.77294" lon="0.15831">
        <ele>2151.09</ele>
        <time>2019-03-30T07:25:23Z</time>
      </trkpt>
      <trkpt lat="42.77291" lon="0.15828">
        <ele>2152.05</ele>
        <time>2019-03-30T07:25:29Z</time>
      </trkpt>
      <trkpt lat="42.77288" lon="0.15823">
        <ele>2152.53</ele>
        <time>2019-03-30T07:25:36Z</time>
      </trkpt>
      <trkpt lat="42.77282" lon="0.15818">
        <ele>2153.49</ele>
        <time>2019-03-30T07:25:44Z</time>
      </trkpt>
      <trkpt lat="42.77281" lon="0.15817">
        <ele>2153.49</ele>
        <time>2019-03-30T07:25:45Z</time>
      </trkpt>
      <trkpt lat="42.77273" lon="0.15811">
        <ele>2153.97</ele>
        <time>2019-03-30T07:25:53Z</time>
      </trkpt>
      <trkpt lat="42.77267" lon="0.15804">
        <ele>2154.93</ele>
        <time>2019-03-30T07:26:00Z</time>
      </trkpt>
      <trkpt lat="42.77263" lon="0.15798">
        <ele>2155.41</ele>
        <time>2019-03-30T07:26:07Z</time>
      </trkpt>
      <trkpt lat="42.77261" lon="0.15792">
        <ele>2155.89</ele>
        <time>2019-03-30T07:26:14Z</time>
      </trkpt>
      <trkpt lat="42.77259" lon="0.15792">
        <ele>2156.37</ele>
        <time>2019-03-30T07:26:21Z</time>
      </trkpt>
      <trkpt lat="42.77255" lon="0.15787">
        <ele>2156.37</ele>
        <time>2019-03-30T07:26:27Z</time>
      </trkpt>
      <trkpt lat="42.7725" lon="0.15784">
        <ele>2157.34</ele>
        <time>2019-03-30T07:26:35Z</time>
      </trkpt>
      <trkpt lat="42.77246" lon="0.15782">
        <ele>2158.78</ele>
        <time>2019-03-30T07:26:42Z</time>
      </trkpt>
      <trkpt lat="42.77239" lon="0.15781">
        <ele>2159.74</ele>
        <time>2019-03-30T07:26:50Z</time>
      </trkpt>
      <trkpt lat="42.77234" lon="0.15781">
        <ele>2161.18</ele>
        <time>2019-03-30T07:26:58Z</time>
      </trkpt>
      <trkpt lat="42.7723" lon="0.15783">
        <ele>2162.62</ele>
        <time>2019-03-30T07:27:07Z</time>
      </trkpt>
      <trkpt lat="42.77227" lon="0.15783">
        <ele>2163.58</ele>
        <time>2019-03-30T07:27:15Z</time>
      </trkpt>
      <trkpt lat="42.77225" lon="0.15785">
        <ele>2165.03</ele>
        <time>2019-03-30T07:27:20Z</time>
      </trkpt>
      <trkpt lat="42.77226" lon="0.15793">
        <ele>2166.47</ele>
        <time>2019-03-30T07:27:27Z</time>
      </trkpt>
      <trkpt lat="42.77228" lon="0.15798">
        <ele>2167.43</ele>
        <time>2019-03-30T07:27:35Z</time>
      </trkpt>
      <trkpt lat="42.7723" lon="0.15807">
        <ele>2168.87</ele>
        <time>2019-03-30T07:27:44Z</time>
      </trkpt>
      <trkpt lat="42.77232" lon="0.1581">
        <ele>2169.35</ele>
        <time>2019-03-30T07:27:48Z</time>
      </trkpt>
      <trkpt lat="42.77233" lon="0.15815">
        <ele>2170.31</ele>
        <time>2019-03-30T07:27:54Z</time>
      </trkpt>
      <trkpt lat="42.77234" lon="0.15819">
        <ele>2171.27</ele>
        <time>2019-03-30T07:28:00Z</time>
      </trkpt>
      <trkpt lat="42.77237" lon="0.15825">
        <ele>2172.24</ele>
        <time>2019-03-30T07:28:07Z</time>
      </trkpt>
      <trkpt lat="42.77239" lon="0.15828">
        <ele>2173.2</ele>
        <time>2019-03-30T07:28:12Z</time>
      </trkpt>
      <trkpt lat="42.7724" lon="0.15833">
        <ele>2174.16</ele>
        <time>2019-03-30T07:28:19Z</time>
      </trkpt>
      <trkpt lat="42.77243" lon="0.15837">
        <ele>2175.12</ele>
        <time>2019-03-30T07:28:26Z</time>
      </trkpt>
      <trkpt lat="42.77245" lon="0.15844">
        <ele>2176.08</ele>
        <time>2019-03-30T07:28:33Z</time>
      </trkpt>
      <trkpt lat="42.77246" lon="0.15844">
        <ele>2176.56</ele>
        <time>2019-03-30T07:28:42Z</time>
      </trkpt>
      <trkpt lat="42.77248" lon="0.15847">
        <ele>2177.04</ele>
        <time>2019-03-30T07:28:48Z</time>
      </trkpt>
      <trkpt lat="42.77252" lon="0.15854">
        <ele>2178.48</ele>
        <time>2019-03-30T07:28:55Z</time>
      </trkpt>
      <trkpt lat="42.77253" lon="0.15859">
        <ele>2179.45</ele>
        <time>2019-03-30T07:29:01Z</time>
      </trkpt>
      <trkpt lat="42.77255" lon="0.15865">
        <ele>2180.41</ele>
        <time>2019-03-30T07:29:07Z</time>
      </trkpt>
      <trkpt lat="42.77258" lon="0.15873">
        <ele>2181.85</ele>
        <time>2019-03-30T07:29:15Z</time>
      </trkpt>
      <trkpt lat="42.7726" lon="0.15879">
        <ele>2183.29</ele>
        <time>2019-03-30T07:29:22Z</time>
      </trkpt>
      <trkpt lat="42.7726" lon="0.15881">
        <ele>2183.77</ele>
        <time>2019-03-30T07:29:24Z</time>
      </trkpt>
      <trkpt lat="42.7726" lon="0.15884">
        <ele>2184.73</ele>
        <time>2019-03-30T07:29:31Z</time>
      </trkpt>
      <trkpt lat="42.7726" lon="0.15885">
        <ele>2184.73</ele>
        <time>2019-03-30T07:29:32Z</time>
      </trkpt>
      <trkpt lat="42.7726" lon="0.15891">
        <ele>2185.69</ele>
        <time>2019-03-30T07:29:38Z</time>
      </trkpt>
      <trkpt lat="42.7726" lon="0.15895">
        <ele>2186.66</ele>
        <time>2019-03-30T07:29:46Z</time>
      </trkpt>
      <trkpt lat="42.77259" lon="0.159">
        <ele>2187.62</ele>
        <time>2019-03-30T07:29:53Z</time>
      </trkpt>
      <trkpt lat="42.77258" lon="0.15906">
        <ele>2189.06</ele>
        <time>2019-03-30T07:30:01Z</time>
      </trkpt>
      <trkpt lat="42.77257" lon="0.15911">
        <ele>2190.02</ele>
        <time>2019-03-30T07:30:08Z</time>
      </trkpt>
      <trkpt lat="42.77256" lon="0.15917">
        <ele>2191.46</ele>
        <time>2019-03-30T07:30:17Z</time>
      </trkpt>
      <trkpt lat="42.77255" lon="0.15923">
        <ele>2192.42</ele>
        <time>2019-03-30T07:30:24Z</time>
      </trkpt>
      <trkpt lat="42.77254" lon="0.15928">
        <ele>2193.39</ele>
        <time>2019-03-30T07:30:30Z</time>
      </trkpt>
      <trkpt lat="42.77253" lon="0.15931">
        <ele>2194.35</ele>
        <time>2019-03-30T07:30:37Z</time>
      </trkpt>
      <trkpt lat="42.77251" lon="0.15936">
        <ele>2195.79</ele>
        <time>2019-03-30T07:30:45Z</time>
      </trkpt>
      <trkpt lat="42.7725" lon="0.15939">
        <ele>2196.27</ele>
        <time>2019-03-30T07:30:55Z</time>
      </trkpt>
      <trkpt lat="42.7725" lon="0.15941">
        <ele>2196.75</ele>
        <time>2019-03-30T07:31:04Z</time>
      </trkpt>
      <trkpt lat="42.7725" lon="0.15942">
        <ele>2196.27</ele>
        <time>2019-03-30T07:31:14Z</time>
      </trkpt>
      <trkpt lat="42.7725" lon="0.15943">
        <ele>2196.75</ele>
        <time>2019-03-30T07:31:28Z</time>
      </trkpt>
      <trkpt lat="42.77251" lon="0.15942">
        <ele>2196.75</ele>
        <time>2019-03-30T07:31:39Z</time>
      </trkpt>
      <trkpt lat="42.7725" lon="0.15943">
        <ele>2196.75</ele>
        <time>2019-03-30T07:31:48Z</time>
      </trkpt>
      <trkpt lat="42.77249" lon="0.15943">
        <ele>2195.79</ele>
        <time>2019-03-30T07:31:54Z</time>
      </trkpt>
      <trkpt lat="42.77248" lon="0.15942">
        <ele>2195.79</ele>
        <time>2019-03-30T07:32:09Z</time>
      </trkpt>
      <trkpt lat="42.77249" lon="0.15942">
        <ele>2195.79</ele>
        <time>2019-03-30T07:32:24Z</time>
      </trkpt>
      <trkpt lat="42.77249" lon="0.1594">
        <ele>2195.79</ele>
        <time>2019-03-30T07:32:41Z</time>
      </trkpt>
      <trkpt lat="42.77249" lon="0.1594">
        <ele>2195.79</ele>
        <time>2019-03-30T07:33:01Z</time>
      </trkpt>
      <trkpt lat="42.77249" lon="0.15941">
        <ele>2195.79</ele>
        <time>2019-03-30T07:33:18Z</time>
      </trkpt>
      <trkpt lat="42.77249" lon="0.15941">
        <ele>2195.79</ele>
        <time>2019-03-30T07:33:29Z</time>
      </trkpt>
      <trkpt lat="42.7725" lon="0.15941">
        <ele>2195.79</ele>
        <time>2019-03-30T07:33:48Z</time>
      </trkpt>
      <trkpt lat="42.77249" lon="0.15941">
        <ele>2195.79</ele>
        <time>2019-03-30T07:34:07Z</time>
      </trkpt>
      <trkpt lat="42.77249" lon="0.15941">
        <ele>2196.27</ele>
        <time>2019-03-30T07:34:26Z</time>
      </trkpt>
      <trkpt lat="42.77249" lon="0.15941">
        <ele>2196.27</ele>
        <time>2019-03-30T07:34:46Z</time>
      </trkpt>
      <trkpt lat="42.77249" lon="0.1594">
        <ele>2196.75</ele>
        <time>2019-03-30T07:35:04Z</time>
      </trkpt>
      <trkpt lat="42.77247" lon="0.15946">
        <ele>2197.23</ele>
        <time>2019-03-30T07:35:09Z</time>
      </trkpt>
      <trkpt lat="42.77246" lon="0.1595">
        <ele>2197.23</ele>
        <time>2019-03-30T07:35:19Z</time>
      </trkpt>
      <trkpt lat="42.77246" lon="0.1595">
        <ele>2195.31</ele>
        <time>2019-03-30T07:35:22Z</time>
      </trkpt>
      <trkpt lat="42.77247" lon="0.1595">
        <ele>2197.71</ele>
        <time>2019-03-30T07:35:24Z</time>
      </trkpt>
      <trkpt lat="42.77247" lon="0.1595">
        <ele>2197.23</ele>
        <time>2019-03-30T07:35:35Z</time>
      </trkpt>
      <trkpt lat="42.77248" lon="0.1595">
        <ele>2197.71</ele>
        <time>2019-03-30T07:35:43Z</time>
      </trkpt>
      <trkpt lat="42.7725" lon="0.15951">
        <ele>2197.71</ele>
        <time>2019-03-30T07:35:50Z</time>
      </trkpt>
      <trkpt lat="42.7725" lon="0.15949">
        <ele>2197.71</ele>
        <time>2019-03-30T07:36:00Z</time>
      </trkpt>
      <trkpt lat="42.77248" lon="0.15952">
        <ele>2198.67</ele>
        <time>2019-03-30T07:36:07Z</time>
      </trkpt>
      <trkpt lat="42.77245" lon="0.15956">
        <ele>2200.11</ele>
        <time>2019-03-30T07:36:15Z</time>
      </trkpt>
      <trkpt lat="42.77244" lon="0.15958">
        <ele>2201.56</ele>
        <time>2019-03-30T07:36:20Z</time>
      </trkpt>
      <trkpt lat="42.77242" lon="0.15961">
        <ele>2202.52</ele>
        <time>2019-03-30T07:36:26Z</time>
      </trkpt>
      <trkpt lat="42.77239" lon="0.15966">
        <ele>2203.48</ele>
        <time>2019-03-30T07:36:32Z</time>
      </trkpt>
      <trkpt lat="42.77238" lon="0.1597">
        <ele>2204.92</ele>
        <time>2019-03-30T07:36:38Z</time>
      </trkpt>
      <trkpt lat="42.77236" lon="0.15974">
        <ele>2205.88</ele>
        <time>2019-03-30T07:36:44Z</time>
      </trkpt>
      <trkpt lat="42.77235" lon="0.15977">
        <ele>2207.32</ele>
        <time>2019-03-30T07:36:50Z</time>
      </trkpt>
      <trkpt lat="42.77233" lon="0.15982">
        <ele>2208.77</ele>
        <time>2019-03-30T07:36:57Z</time>
      </trkpt>
      <trkpt lat="42.77231" lon="0.15987">
        <ele>2210.21</ele>
        <time>2019-03-30T07:37:05Z</time>
      </trkpt>
      <trkpt lat="42.77229" lon="0.15992">
        <ele>2211.65</ele>
        <time>2019-03-30T07:37:13Z</time>
      </trkpt>
      <trkpt lat="42.77227" lon="0.15997">
        <ele>2213.09</ele>
        <time>2019-03-30T07:37:20Z</time>
      </trkpt>
      <trkpt lat="42.77225" lon="0.16">
        <ele>2214.53</ele>
        <time>2019-03-30T07:37:28Z</time>
      </trkpt>
      <trkpt lat="42.77223" lon="0.16007">
        <ele>2215.98</ele>
        <time>2019-03-30T07:37:35Z</time>
      </trkpt>
      <trkpt lat="42.77222" lon="0.16009">
        <ele>2216.94</ele>
        <time>2019-03-30T07:37:42Z</time>
      </trkpt>
      <trkpt lat="42.7722" lon="0.16014">
        <ele>2217.9</ele>
        <time>2019-03-30T07:37:48Z</time>
      </trkpt>
      <trkpt lat="42.77218" lon="0.16018">
        <ele>2219.34</ele>
        <time>2019-03-30T07:37:55Z</time>
      </trkpt>
      <trkpt lat="42.77217" lon="0.16021">
        <ele>2220.78</ele>
        <time>2019-03-30T07:38:01Z</time>
      </trkpt>
      <trkpt lat="42.77216" lon="0.16023">
        <ele>2221.74</ele>
        <time>2019-03-30T07:38:07Z</time>
      </trkpt>
      <trkpt lat="42.77214" lon="0.16027">
        <ele>2223.19</ele>
        <time>2019-03-30T07:38:14Z</time>
      </trkpt>
      <trkpt lat="42.77213" lon="0.16029">
        <ele>2224.15</ele>
        <time>2019-03-30T07:38:20Z</time>
      </trkpt>
      <trkpt lat="42.77211" lon="0.16033">
        <ele>2225.59</ele>
        <time>2019-03-30T07:38:26Z</time>
      </trkpt>
      <trkpt lat="42.7721" lon="0.16037">
        <ele>2226.55</ele>
        <time>2019-03-30T07:38:32Z</time>
      </trkpt>
      <trkpt lat="42.77207" lon="0.16043">
        <ele>2227.51</ele>
        <time>2019-03-30T07:38:38Z</time>
      </trkpt>
      <trkpt lat="42.77206" lon="0.16048">
        <ele>2228.95</ele>
        <time>2019-03-30T07:38:45Z</time>
      </trkpt>
      <trkpt lat="42.77203" lon="0.16053">
        <ele>2229.43</ele>
        <time>2019-03-30T07:38:51Z</time>
      </trkpt>
      <trkpt lat="42.77202" lon="0.16054">
        <ele>2229.92</ele>
        <time>2019-03-30T07:38:57Z</time>
      </trkpt>
      <trkpt lat="42.772" lon="0.16059">
        <ele>2230.88</ele>
        <time>2019-03-30T07:39:04Z</time>
      </trkpt>
      <trkpt lat="42.77197" lon="0.16062">
        <ele>2231.84</ele>
        <time>2019-03-30T07:39:11Z</time>
      </trkpt>
      <trkpt lat="42.77194" lon="0.16065">
        <ele>2231.84</ele>
        <time>2019-03-30T07:39:20Z</time>
      </trkpt>
      <trkpt lat="42.77192" lon="0.16069">
        <ele>2232.32</ele>
        <time>2019-03-30T07:39:27Z</time>
      </trkpt>
      <trkpt lat="42.7719" lon="0.16069">
        <ele>2232.8</ele>
        <time>2019-03-30T07:39:29Z</time>
      </trkpt>
      <trkpt lat="42.77186" lon="0.16072">
        <ele>2234.24</ele>
        <time>2019-03-30T07:39:36Z</time>
      </trkpt>
      <trkpt lat="42.7718" lon="0.16074">
        <ele>2235.68</ele>
        <time>2019-03-30T07:39:44Z</time>
      </trkpt>
      <trkpt lat="42.77175" lon="0.16075">
        <ele>2236.64</ele>
        <time>2019-03-30T07:39:51Z</time>
      </trkpt>
      <trkpt lat="42.77171" lon="0.16074">
        <ele>2238.09</ele>
        <time>2019-03-30T07:39:57Z</time>
      </trkpt>
      <trkpt lat="42.77165" lon="0.16071">
        <ele>2239.53</ele>
        <time>2019-03-30T07:40:05Z</time>
      </trkpt>
      <trkpt lat="42.77161" lon="0.16067">
        <ele>2240.97</ele>
        <time>2019-03-30T07:40:15Z</time>
      </trkpt>
      <trkpt lat="42.77158" lon="0.16066">
        <ele>2242.41</ele>
        <time>2019-03-30T07:40:20Z</time>
      </trkpt>
      <trkpt lat="42.77155" lon="0.16061">
        <ele>2242.89</ele>
        <time>2019-03-30T07:40:27Z</time>
      </trkpt>
      <trkpt lat="42.77152" lon="0.16057">
        <ele>2243.37</ele>
        <time>2019-03-30T07:40:33Z</time>
      </trkpt>
      <trkpt lat="42.7715" lon="0.16052">
        <ele>2244.82</ele>
        <time>2019-03-30T07:40:40Z</time>
      </trkpt>
      <trkpt lat="42.77149" lon="0.1605">
        <ele>2245.3</ele>
        <time>2019-03-30T07:40:43Z</time>
      </trkpt>
      <trkpt lat="42.77147" lon="0.16046">
        <ele>2246.26</ele>
        <time>2019-03-30T07:40:49Z</time>
      </trkpt>
      <trkpt lat="42.77145" lon="0.16042">
        <ele>2247.22</ele>
        <time>2019-03-30T07:40:55Z</time>
      </trkpt>
      <trkpt lat="42.77143" lon="0.16036">
        <ele>2248.66</ele>
        <time>2019-03-30T07:41:03Z</time>
      </trkpt>
      <trkpt lat="42.77141" lon="0.16031">
        <ele>2249.62</ele>
        <time>2019-03-30T07:41:09Z</time>
      </trkpt>
      <trkpt lat="42.77139" lon="0.16027">
        <ele>2251.06</ele>
        <time>2019-03-30T07:41:17Z</time>
      </trkpt>
      <trkpt lat="42.77136" lon="0.16022">
        <ele>2251.54</ele>
        <time>2019-03-30T07:41:24Z</time>
      </trkpt>
      <trkpt lat="42.77135" lon="0.16018">
        <ele>2252.99</ele>
        <time>2019-03-30T07:41:31Z</time>
      </trkpt>
      <trkpt lat="42.77133" lon="0.16013">
        <ele>2253.95</ele>
        <time>2019-03-30T07:41:38Z</time>
      </trkpt>
      <trkpt lat="42.77132" lon="0.1601">
        <ele>2255.39</ele>
        <time>2019-03-30T07:41:44Z</time>
      </trkpt>
      <trkpt lat="42.7713" lon="0.16005">
        <ele>2256.83</ele>
        <time>2019-03-30T07:41:51Z</time>
      </trkpt>
      <trkpt lat="42.77128" lon="0.16">
        <ele>2257.31</ele>
        <time>2019-03-30T07:41:58Z</time>
      </trkpt>
      <trkpt lat="42.77127" lon="0.15997">
        <ele>2258.27</ele>
        <time>2019-03-30T07:42:04Z</time>
      </trkpt>
      <trkpt lat="42.77124" lon="0.15993">
        <ele>2259.72</ele>
        <time>2019-03-30T07:42:11Z</time>
      </trkpt>
      <trkpt lat="42.77122" lon="0.1599">
        <ele>2260.68</ele>
        <time>2019-03-30T07:42:17Z</time>
      </trkpt>
      <trkpt lat="42.7712" lon="0.15985">
        <ele>2261.64</ele>
        <time>2019-03-30T07:42:24Z</time>
      </trkpt>
      <trkpt lat="42.77117" lon="0.15981">
        <ele>2263.56</ele>
        <time>2019-03-30T07:42:32Z</time>
      </trkpt>
      <trkpt lat="42.77117" lon="0.15977">
        <ele>2264.52</ele>
        <time>2019-03-30T07:42:38Z</time>
      </trkpt>
      <trkpt lat="42.77114" lon="0.15974">
        <ele>2265.48</ele>
        <time>2019-03-30T07:42:44Z</time>
      </trkpt>
      <trkpt lat="42.77113" lon="0.1597">
        <ele>2266.45</ele>
        <time>2019-03-30T07:42:49Z</time>
      </trkpt>
      <trkpt lat="42.77111" lon="0.15967">
        <ele>2267.41</ele>
        <time>2019-03-30T07:42:54Z</time>
      </trkpt>
      <trkpt lat="42.77109" lon="0.15963">
        <ele>2268.37</ele>
        <time>2019-03-30T07:43:00Z</time>
      </trkpt>
      <trkpt lat="42.77107" lon="0.15959">
        <ele>2269.33</ele>
        <time>2019-03-30T07:43:07Z</time>
      </trkpt>
      <trkpt lat="42.77104" lon="0.15957">
        <ele>2270.29</ele>
        <time>2019-03-30T07:43:13Z</time>
      </trkpt>
      <trkpt lat="42.77102" lon="0.15955">
        <ele>2271.25</ele>
        <time>2019-03-30T07:43:20Z</time>
      </trkpt>
      <trkpt lat="42.771" lon="0.15953">
        <ele>2272.69</ele>
        <time>2019-03-30T07:43:28Z</time>
      </trkpt>
      <trkpt lat="42.77099" lon="0.15952">
        <ele>2272.21</ele>
        <time>2019-03-30T07:43:38Z</time>
      </trkpt>
      <trkpt lat="42.77095" lon="0.1595">
        <ele>2273.66</ele>
        <time>2019-03-30T07:43:45Z</time>
      </trkpt>
      <trkpt lat="42.77089" lon="0.15948">
        <ele>2275.58</ele>
        <time>2019-03-30T07:43:53Z</time>
      </trkpt>
      <trkpt lat="42.77086" lon="0.15946">
        <ele>2276.06</ele>
        <time>2019-03-30T07:43:58Z</time>
      </trkpt>
      <trkpt lat="42.77082" lon="0.15943">
        <ele>2277.98</ele>
        <time>2019-03-30T07:44:06Z</time>
      </trkpt>
      <trkpt lat="42.77079" lon="0.15941">
        <ele>2278.94</ele>
        <time>2019-03-30T07:44:12Z</time>
      </trkpt>
      <trkpt lat="42.77074" lon="0.15939">
        <ele>2279.9</ele>
        <time>2019-03-30T07:44:19Z</time>
      </trkpt>
      <trkpt lat="42.77072" lon="0.15937">
        <ele>2281.35</ele>
        <time>2019-03-30T07:44:27Z</time>
      </trkpt>
      <trkpt lat="42.77069" lon="0.15935">
        <ele>2282.31</ele>
        <time>2019-03-30T07:44:33Z</time>
      </trkpt>
      <trkpt lat="42.77067" lon="0.15934">
        <ele>2282.79</ele>
        <time>2019-03-30T07:44:41Z</time>
      </trkpt>
      <trkpt lat="42.77065" lon="0.15933">
        <ele>2283.75</ele>
        <time>2019-03-30T07:44:46Z</time>
      </trkpt>
      <trkpt lat="42.7706" lon="0.1593">
        <ele>2285.19</ele>
        <time>2019-03-30T07:44:53Z</time>
      </trkpt>
      <trkpt lat="42.77058" lon="0.15929">
        <ele>2285.67</ele>
        <time>2019-03-30T07:44:56Z</time>
      </trkpt>
      <trkpt lat="42.77053" lon="0.15927">
        <ele>2287.11</ele>
        <time>2019-03-30T07:45:04Z</time>
      </trkpt>
      <trkpt lat="42.7705" lon="0.15925">
        <ele>2288.08</ele>
        <time>2019-03-30T07:45:11Z</time>
      </trkpt>
      <trkpt lat="42.77045" lon="0.15922">
        <ele>2289.52</ele>
        <time>2019-03-30T07:45:19Z</time>
      </trkpt>
      <trkpt lat="42.77043" lon="0.1592">
        <ele>2290.48</ele>
        <time>2019-03-30T07:45:26Z</time>
      </trkpt>
      <trkpt lat="42.7704" lon="0.15919">
        <ele>2291.44</ele>
        <time>2019-03-30T07:45:32Z</time>
      </trkpt>
      <trkpt lat="42.77037" lon="0.15917">
        <ele>2292.4</ele>
        <time>2019-03-30T07:45:38Z</time>
      </trkpt>
      <trkpt lat="42.77034" lon="0.15915">
        <ele>2293.36</ele>
        <time>2019-03-30T07:45:44Z</time>
      </trkpt>
      <trkpt lat="42.77031" lon="0.15913">
        <ele>2294.32</ele>
        <time>2019-03-30T07:45:51Z</time>
      </trkpt>
      <trkpt lat="42.77028" lon="0.15911">
        <ele>2295.77</ele>
        <time>2019-03-30T07:45:59Z</time>
      </trkpt>
      <trkpt lat="42.77022" lon="0.15908">
        <ele>2296.73</ele>
        <time>2019-03-30T07:46:07Z</time>
      </trkpt>
      <trkpt lat="42.77019" lon="0.15906">
        <ele>2298.17</ele>
        <time>2019-03-30T07:46:14Z</time>
      </trkpt>
      <trkpt lat="42.77017" lon="0.15904">
        <ele>2300.09</ele>
        <time>2019-03-30T07:46:20Z</time>
      </trkpt>
      <trkpt lat="42.77013" lon="0.15901">
        <ele>2300.09</ele>
        <time>2019-03-30T07:46:28Z</time>
      </trkpt>
      <trkpt lat="42.7701" lon="0.15899">
        <ele>2301.53</ele>
        <time>2019-03-30T07:46:35Z</time>
      </trkpt>
      <trkpt lat="42.77006" lon="0.15898">
        <ele>2302.49</ele>
        <time>2019-03-30T07:46:41Z</time>
      </trkpt>
      <trkpt lat="42.77003" lon="0.15896">
        <ele>2303.46</ele>
        <time>2019-03-30T07:46:48Z</time>
      </trkpt>
      <trkpt lat="42.76998" lon="0.15894">
        <ele>2304.42</ele>
        <time>2019-03-30T07:46:55Z</time>
      </trkpt>
      <trkpt lat="42.76995" lon="0.15892">
        <ele>2305.38</ele>
        <time>2019-03-30T07:47:02Z</time>
      </trkpt>
      <trkpt lat="42.76992" lon="0.15889">
        <ele>2306.82</ele>
        <time>2019-03-30T07:47:09Z</time>
      </trkpt>
      <trkpt lat="42.7699" lon="0.15888">
        <ele>2307.78</ele>
        <time>2019-03-30T07:47:16Z</time>
      </trkpt>
      <trkpt lat="42.76985" lon="0.15885">
        <ele>2309.22</ele>
        <time>2019-03-30T07:47:24Z</time>
      </trkpt>
      <trkpt lat="42.76981" lon="0.1588">
        <ele>2310.67</ele>
        <time>2019-03-30T07:47:33Z</time>
      </trkpt>
      <trkpt lat="42.76979" lon="0.15878">
        <ele>2311.63</ele>
        <time>2019-03-30T07:47:40Z</time>
      </trkpt>
      <trkpt lat="42.76975" lon="0.15876">
        <ele>2313.07</ele>
        <time>2019-03-30T07:47:47Z</time>
      </trkpt>
      <trkpt lat="42.76971" lon="0.15873">
        <ele>2314.51</ele>
        <time>2019-03-30T07:47:54Z</time>
      </trkpt>
      <trkpt lat="42.76966" lon="0.1587">
        <ele>2315.47</ele>
        <time>2019-03-30T07:48:02Z</time>
      </trkpt>
      <trkpt lat="42.76963" lon="0.15869">
        <ele>2316.43</ele>
        <time>2019-03-30T07:48:09Z</time>
      </trkpt>
      <trkpt lat="42.76958" lon="0.15864">
        <ele>2317.4</ele>
        <time>2019-03-30T07:48:16Z</time>
      </trkpt>
      <trkpt lat="42.76955" lon="0.15862">
        <ele>2318.84</ele>
        <time>2019-03-30T07:48:23Z</time>
      </trkpt>
      <trkpt lat="42.76952" lon="0.1586">
        <ele>2319.8</ele>
        <time>2019-03-30T07:48:29Z</time>
      </trkpt>
      <trkpt lat="42.76949" lon="0.15857">
        <ele>2320.76</ele>
        <time>2019-03-30T07:48:35Z</time>
      </trkpt>
      <trkpt lat="42.76945" lon="0.15855">
        <ele>2321.72</ele>
        <time>2019-03-30T07:48:42Z</time>
      </trkpt>
      <trkpt lat="42.76942" lon="0.15854">
        <ele>2322.68</ele>
        <time>2019-03-30T07:48:47Z</time>
      </trkpt>
      <trkpt lat="42.76938" lon="0.15852">
        <ele>2324.12</ele>
        <time>2019-03-30T07:48:54Z</time>
      </trkpt>
      <trkpt lat="42.76936" lon="0.15849">
        <ele>2325.09</ele>
        <time>2019-03-30T07:49:01Z</time>
      </trkpt>
      <trkpt lat="42.76932" lon="0.15847">
        <ele>2326.53</ele>
        <time>2019-03-30T07:49:09Z</time>
      </trkpt>
      <trkpt lat="42.76928" lon="0.15843">
        <ele>2327.97</ele>
        <time>2019-03-30T07:49:18Z</time>
      </trkpt>
      <trkpt lat="42.76923" lon="0.15838">
        <ele>2329.41</ele>
        <time>2019-03-30T07:49:27Z</time>
      </trkpt>
      <trkpt lat="42.76919" lon="0.15835">
        <ele>2330.37</ele>
        <time>2019-03-30T07:49:35Z</time>
      </trkpt>
      <trkpt lat="42.76914" lon="0.1583">
        <ele>2331.81</ele>
        <time>2019-03-30T07:49:43Z</time>
      </trkpt>
      <trkpt lat="42.76911" lon="0.15828">
        <ele>2332.3</ele>
        <time>2019-03-30T07:49:49Z</time>
      </trkpt>
      <trkpt lat="42.76907" lon="0.15826">
        <ele>2333.26</ele>
        <time>2019-03-30T07:49:55Z</time>
      </trkpt>
      <trkpt lat="42.76903" lon="0.15824">
        <ele>2334.7</ele>
        <time>2019-03-30T07:50:03Z</time>
      </trkpt>
      <trkpt lat="42.76898" lon="0.15822">
        <ele>2335.18</ele>
        <time>2019-03-30T07:50:10Z</time>
      </trkpt>
      <trkpt lat="42.76896" lon="0.1582">
        <ele>2336.14</ele>
        <time>2019-03-30T07:50:17Z</time>
      </trkpt>
      <trkpt lat="42.76894" lon="0.15817">
        <ele>2336.14</ele>
        <time>2019-03-30T07:50:24Z</time>
      </trkpt>
      <trkpt lat="42.7689" lon="0.15814">
        <ele>2337.1</ele>
        <time>2019-03-30T07:50:31Z</time>
      </trkpt>
      <trkpt lat="42.76888" lon="0.15812">
        <ele>2338.06</ele>
        <time>2019-03-30T07:50:37Z</time>
      </trkpt>
      <trkpt lat="42.76883" lon="0.15806">
        <ele>2339.51</ele>
        <time>2019-03-30T07:50:46Z</time>
      </trkpt>
      <trkpt lat="42.76881" lon="0.15802">
        <ele>2340.95</ele>
        <time>2019-03-30T07:50:55Z</time>
      </trkpt>
      <trkpt lat="42.76878" lon="0.15797">
        <ele>2342.39</ele>
        <time>2019-03-30T07:51:02Z</time>
      </trkpt>
      <trkpt lat="42.76874" lon="0.15793">
        <ele>2343.35</ele>
        <time>2019-03-30T07:51:09Z</time>
      </trkpt>
      <trkpt lat="42.76874" lon="0.1579">
        <ele>2344.31</ele>
        <time>2019-03-30T07:51:16Z</time>
      </trkpt>
      <trkpt lat="42.76873" lon="0.15789">
        <ele>2344.31</ele>
        <time>2019-03-30T07:51:26Z</time>
      </trkpt>
      <trkpt lat="42.76871" lon="0.15786">
        <ele>2344.79</ele>
        <time>2019-03-30T07:51:32Z</time>
      </trkpt>
      <trkpt lat="42.76869" lon="0.15782">
        <ele>2346.23</ele>
        <time>2019-03-30T07:51:39Z</time>
      </trkpt>
      <trkpt lat="42.76866" lon="0.15777">
        <ele>2348.16</ele>
        <time>2019-03-30T07:51:46Z</time>
      </trkpt>
      <trkpt lat="42.76865" lon="0.15775">
        <ele>2349.12</ele>
        <time>2019-03-30T07:51:53Z</time>
      </trkpt>
      <trkpt lat="42.76862" lon="0.15768">
        <ele>2350.08</ele>
        <time>2019-03-30T07:52:00Z</time>
      </trkpt>
      <trkpt lat="42.76861" lon="0.15762">
        <ele>2352</ele>
        <time>2019-03-30T07:52:08Z</time>
      </trkpt>
      <trkpt lat="42.76859" lon="0.1576">
        <ele>2352.48</ele>
        <time>2019-03-30T07:52:14Z</time>
      </trkpt>
      <trkpt lat="42.76857" lon="0.15756">
        <ele>2353.93</ele>
        <time>2019-03-30T07:52:20Z</time>
      </trkpt>
      <trkpt lat="42.76854" lon="0.15751">
        <ele>2355.37</ele>
        <time>2019-03-30T07:52:27Z</time>
      </trkpt>
      <trkpt lat="42.76851" lon="0.15746">
        <ele>2356.33</ele>
        <time>2019-03-30T07:52:34Z</time>
      </trkpt>
      <trkpt lat="42.76849" lon="0.15741">
        <ele>2357.77</ele>
        <time>2019-03-30T07:52:42Z</time>
      </trkpt>
      <trkpt lat="42.76847" lon="0.15737">
        <ele>2358.73</ele>
        <time>2019-03-30T07:52:49Z</time>
      </trkpt>
      <trkpt lat="42.76845" lon="0.15733">
        <ele>2359.69</ele>
        <time>2019-03-30T07:52:56Z</time>
      </trkpt>
      <trkpt lat="42.76843" lon="0.15728">
        <ele>2361.14</ele>
        <time>2019-03-30T07:53:03Z</time>
      </trkpt>
      <trkpt lat="42.76841" lon="0.15722">
        <ele>2362.58</ele>
        <time>2019-03-30T07:53:10Z</time>
      </trkpt>
      <trkpt lat="42.76839" lon="0.15716">
        <ele>2363.54</ele>
        <time>2019-03-30T07:53:18Z</time>
      </trkpt>
      <trkpt lat="42.76838" lon="0.15713">
        <ele>2364.98</ele>
        <time>2019-03-30T07:53:26Z</time>
      </trkpt>
      <trkpt lat="42.76836" lon="0.15707">
        <ele>2366.42</ele>
        <time>2019-03-30T07:53:33Z</time>
      </trkpt>
      <trkpt lat="42.76835" lon="0.15702">
        <ele>2367.38</ele>
        <time>2019-03-30T07:53:40Z</time>
      </trkpt>
      <trkpt lat="42.76833" lon="0.15695">
        <ele>2368.83</ele>
        <time>2019-03-30T07:53:47Z</time>
      </trkpt>
      <trkpt lat="42.76833" lon="0.15688">
        <ele>2370.27</ele>
        <time>2019-03-30T07:53:55Z</time>
      </trkpt>
      <trkpt lat="42.76832" lon="0.15683">
        <ele>2371.23</ele>
        <time>2019-03-30T07:54:02Z</time>
      </trkpt>
      <trkpt lat="42.7683" lon="0.15677">
        <ele>2372.19</ele>
        <time>2019-03-30T07:54:10Z</time>
      </trkpt>
      <trkpt lat="42.76828" lon="0.15671">
        <ele>2373.15</ele>
        <time>2019-03-30T07:54:17Z</time>
      </trkpt>
      <trkpt lat="42.76826" lon="0.15667">
        <ele>2374.59</ele>
        <time>2019-03-30T07:54:24Z</time>
      </trkpt>
      <trkpt lat="42.76825" lon="0.15664">
        <ele>2375.07</ele>
        <time>2019-03-30T07:54:29Z</time>
      </trkpt>
      <trkpt lat="42.76825" lon="0.15662">
        <ele>2376.04</ele>
        <time>2019-03-30T07:54:36Z</time>
      </trkpt>
      <trkpt lat="42.76825" lon="0.1566">
        <ele>2375.55</ele>
        <time>2019-03-30T07:54:47Z</time>
      </trkpt>
      <trkpt lat="42.76827" lon="0.15661">
        <ele>2375.55</ele>
        <time>2019-03-30T07:54:59Z</time>
      </trkpt>
      <trkpt lat="42.76827" lon="0.1566">
        <ele>2376.04</ele>
        <time>2019-03-30T07:55:09Z</time>
      </trkpt>
      <trkpt lat="42.76826" lon="0.15654">
        <ele>2376.52</ele>
        <time>2019-03-30T07:55:15Z</time>
      </trkpt>
      <trkpt lat="42.76823" lon="0.15647">
        <ele>2377.48</ele>
        <time>2019-03-30T07:55:22Z</time>
      </trkpt>
      <trkpt lat="42.76821" lon="0.1564">
        <ele>2378.92</ele>
        <time>2019-03-30T07:55:29Z</time>
      </trkpt>
      <trkpt lat="42.76818" lon="0.15633">
        <ele>2379.4</ele>
        <time>2019-03-30T07:55:35Z</time>
      </trkpt>
      <trkpt lat="42.76816" lon="0.15626">
        <ele>2380.36</ele>
        <time>2019-03-30T07:55:41Z</time>
      </trkpt>
      <trkpt lat="42.76814" lon="0.15623">
        <ele>2381.32</ele>
        <time>2019-03-30T07:55:47Z</time>
      </trkpt>
      <trkpt lat="42.76814" lon="0.15615">
        <ele>2381.8</ele>
        <time>2019-03-30T07:55:53Z</time>
      </trkpt>
      <trkpt lat="42.76813" lon="0.15611">
        <ele>2382.76</ele>
        <time>2019-03-30T07:55:59Z</time>
      </trkpt>
      <trkpt lat="42.76813" lon="0.15604">
        <ele>2383.25</ele>
        <time>2019-03-30T07:56:06Z</time>
      </trkpt>
      <trkpt lat="42.76813" lon="0.15598">
        <ele>2383.73</ele>
        <time>2019-03-30T07:56:13Z</time>
      </trkpt>
      <trkpt lat="42.76811" lon="0.15592">
        <ele>2384.69</ele>
        <time>2019-03-30T07:56:20Z</time>
      </trkpt>
      <trkpt lat="42.76811" lon="0.15587">
        <ele>2385.65</ele>
        <time>2019-03-30T07:56:27Z</time>
      </trkpt>
      <trkpt lat="42.7681" lon="0.15581">
        <ele>2386.13</ele>
        <time>2019-03-30T07:56:34Z</time>
      </trkpt>
      <trkpt lat="42.76808" lon="0.15572">
        <ele>2387.09</ele>
        <time>2019-03-30T07:56:41Z</time>
      </trkpt>
      <trkpt lat="42.76807" lon="0.15565">
        <ele>2388.05</ele>
        <time>2019-03-30T07:56:48Z</time>
      </trkpt>
      <trkpt lat="42.76806" lon="0.15559">
        <ele>2389.01</ele>
        <time>2019-03-30T07:56:54Z</time>
      </trkpt>
      <trkpt lat="42.76805" lon="0.15552">
        <ele>2389.97</ele>
        <time>2019-03-30T07:57:01Z</time>
      </trkpt>
      <trkpt lat="42.76804" lon="0.15546">
        <ele>2390.94</ele>
        <time>2019-03-30T07:57:08Z</time>
      </trkpt>
      <trkpt lat="42.76802" lon="0.15539">
        <ele>2391.42</ele>
        <time>2019-03-30T07:57:15Z</time>
      </trkpt>
      <trkpt lat="42.768" lon="0.15534">
        <ele>2391.9</ele>
        <time>2019-03-30T07:57:20Z</time>
      </trkpt>
      <trkpt lat="42.76798" lon="0.15525">
        <ele>2392.86</ele>
        <time>2019-03-30T07:57:28Z</time>
      </trkpt>
      <trkpt lat="42.76797" lon="0.15519">
        <ele>2393.82</ele>
        <time>2019-03-30T07:57:36Z</time>
      </trkpt>
      <trkpt lat="42.76795" lon="0.15512">
        <ele>2395.26</ele>
        <time>2019-03-30T07:57:44Z</time>
      </trkpt>
      <trkpt lat="42.76793" lon="0.15507">
        <ele>2395.74</ele>
        <time>2019-03-30T07:57:50Z</time>
      </trkpt>
      <trkpt lat="42.76791" lon="0.15502">
        <ele>2396.7</ele>
        <time>2019-03-30T07:57:58Z</time>
      </trkpt>
      <trkpt lat="42.7679" lon="0.15497">
        <ele>2397.67</ele>
        <time>2019-03-30T07:58:04Z</time>
      </trkpt>
      <trkpt lat="42.76788" lon="0.15489">
        <ele>2398.63</ele>
        <time>2019-03-30T07:58:11Z</time>
      </trkpt>
      <trkpt lat="42.76786" lon="0.15484">
        <ele>2399.59</ele>
        <time>2019-03-30T07:58:18Z</time>
      </trkpt>
      <trkpt lat="42.76784" lon="0.15478">
        <ele>2400.55</ele>
        <time>2019-03-30T07:58:25Z</time>
      </trkpt>
      <trkpt lat="42.76781" lon="0.15472">
        <ele>2401.51</ele>
        <time>2019-03-30T07:58:32Z</time>
      </trkpt>
      <trkpt lat="42.76777" lon="0.15464">
        <ele>2402.95</ele>
        <time>2019-03-30T07:58:40Z</time>
      </trkpt>
      <trkpt lat="42.76776" lon="0.15461">
        <ele>2403.43</ele>
        <time>2019-03-30T07:58:46Z</time>
      </trkpt>
      <trkpt lat="42.76775" lon="0.15455">
        <ele>2404.39</ele>
        <time>2019-03-30T07:58:53Z</time>
      </trkpt>
      <trkpt lat="42.76773" lon="0.15449">
        <ele>2405.36</ele>
        <time>2019-03-30T07:59:01Z</time>
      </trkpt>
      <trkpt lat="42.7677" lon="0.15442">
        <ele>2406.32</ele>
        <time>2019-03-30T07:59:09Z</time>
      </trkpt>
      <trkpt lat="42.76766" lon="0.15436">
        <ele>2407.28</ele>
        <time>2019-03-30T07:59:17Z</time>
      </trkpt>
      <trkpt lat="42.76763" lon="0.15427">
        <ele>2408.24</ele>
        <time>2019-03-30T07:59:25Z</time>
      </trkpt>
      <trkpt lat="42.7676" lon="0.15423">
        <ele>2409.2</ele>
        <time>2019-03-30T07:59:31Z</time>
      </trkpt>
      <trkpt lat="42.76759" lon="0.15419">
        <ele>2410.64</ele>
        <time>2019-03-30T07:59:37Z</time>
      </trkpt>
      <trkpt lat="42.76758" lon="0.15416">
        <ele>2411.12</ele>
        <time>2019-03-30T07:59:43Z</time>
      </trkpt>
      <trkpt lat="42.76756" lon="0.1541">
        <ele>2411.6</ele>
        <time>2019-03-30T07:59:49Z</time>
      </trkpt>
      <trkpt lat="42.76754" lon="0.15403">
        <ele>2413.05</ele>
        <time>2019-03-30T07:59:56Z</time>
      </trkpt>
      <trkpt lat="42.7675" lon="0.15397">
        <ele>2414.01</ele>
        <time>2019-03-30T08:00:04Z</time>
      </trkpt>
      <trkpt lat="42.76749" lon="0.15394">
        <ele>2414.97</ele>
        <time>2019-03-30T08:00:10Z</time>
      </trkpt>
      <trkpt lat="42.76747" lon="0.15388">
        <ele>2415.45</ele>
        <time>2019-03-30T08:00:17Z</time>
      </trkpt>
      <trkpt lat="42.76747" lon="0.15381">
        <ele>2416.89</ele>
        <time>2019-03-30T08:00:25Z</time>
      </trkpt>
      <trkpt lat="42.76742" lon="0.15376">
        <ele>2417.85</ele>
        <time>2019-03-30T08:00:33Z</time>
      </trkpt>
      <trkpt lat="42.76743" lon="0.15376">
        <ele>2417.85</ele>
        <time>2019-03-30T08:00:50Z</time>
      </trkpt>
      <trkpt lat="42.76743" lon="0.15373">
        <ele>2418.33</ele>
        <time>2019-03-30T08:01:01Z</time>
      </trkpt>
      <trkpt lat="42.76741" lon="0.15371">
        <ele>2418.81</ele>
        <time>2019-03-30T08:01:07Z</time>
      </trkpt>
      <trkpt lat="42.76739" lon="0.15364">
        <ele>2419.78</ele>
        <time>2019-03-30T08:01:13Z</time>
      </trkpt>
      <trkpt lat="42.76736" lon="0.15359">
        <ele>2421.22</ele>
        <time>2019-03-30T08:01:20Z</time>
      </trkpt>
      <trkpt lat="42.76736" lon="0.15355">
        <ele>2422.18</ele>
        <time>2019-03-30T08:01:26Z</time>
      </trkpt>
      <trkpt lat="42.76732" lon="0.15346">
        <ele>2423.14</ele>
        <time>2019-03-30T08:01:33Z</time>
      </trkpt>
      <trkpt lat="42.76731" lon="0.15342">
        <ele>2424.1</ele>
        <time>2019-03-30T08:01:39Z</time>
      </trkpt>
      <trkpt lat="42.7673" lon="0.15338">
        <ele>2425.54</ele>
        <time>2019-03-30T08:01:46Z</time>
      </trkpt>
      <trkpt lat="42.76728" lon="0.15332">
        <ele>2426.5</ele>
        <time>2019-03-30T08:01:52Z</time>
      </trkpt>
      <trkpt lat="42.76727" lon="0.15325">
        <ele>2427.47</ele>
        <time>2019-03-30T08:01:59Z</time>
      </trkpt>
      <trkpt lat="42.76725" lon="0.15319">
        <ele>2428.91</ele>
        <time>2019-03-30T08:02:07Z</time>
      </trkpt>
      <trkpt lat="42.76723" lon="0.15313">
        <ele>2430.35</ele>
        <time>2019-03-30T08:02:15Z</time>
      </trkpt>
      <trkpt lat="42.76721" lon="0.15306">
        <ele>2432.75</ele>
        <time>2019-03-30T08:02:22Z</time>
      </trkpt>
      <trkpt lat="42.76719" lon="0.153">
        <ele>2432.27</ele>
        <time>2019-03-30T08:02:29Z</time>
      </trkpt>
      <trkpt lat="42.76718" lon="0.15294">
        <ele>2433.71</ele>
        <time>2019-03-30T08:02:36Z</time>
      </trkpt>
      <trkpt lat="42.76716" lon="0.15288">
        <ele>2435.16</ele>
        <time>2019-03-30T08:02:43Z</time>
      </trkpt>
      <trkpt lat="42.76715" lon="0.15281">
        <ele>2436.6</ele>
        <time>2019-03-30T08:02:52Z</time>
      </trkpt>
      <trkpt lat="42.76712" lon="0.15275">
        <ele>2437.08</ele>
        <time>2019-03-30T08:02:58Z</time>
      </trkpt>
      <trkpt lat="42.7671" lon="0.15271">
        <ele>2438.52</ele>
        <time>2019-03-30T08:03:05Z</time>
      </trkpt>
      <trkpt lat="42.76709" lon="0.15266">
        <ele>2439.48</ele>
        <time>2019-03-30T08:03:11Z</time>
      </trkpt>
      <trkpt lat="42.76708" lon="0.15263">
        <ele>2439.96</ele>
        <time>2019-03-30T08:03:17Z</time>
      </trkpt>
      <trkpt lat="42.76706" lon="0.15257">
        <ele>2440.92</ele>
        <time>2019-03-30T08:03:23Z</time>
      </trkpt>
      <trkpt lat="42.76704" lon="0.15252">
        <ele>2442.37</ele>
        <time>2019-03-30T08:03:30Z</time>
      </trkpt>
      <trkpt lat="42.76702" lon="0.15245">
        <ele>2443.33</ele>
        <time>2019-03-30T08:03:37Z</time>
      </trkpt>
      <trkpt lat="42.76699" lon="0.15239">
        <ele>2443.81</ele>
        <time>2019-03-30T08:03:43Z</time>
      </trkpt>
      <trkpt lat="42.76696" lon="0.15234">
        <ele>2445.25</ele>
        <time>2019-03-30T08:03:50Z</time>
      </trkpt>
      <trkpt lat="42.76693" lon="0.15225">
        <ele>2446.69</ele>
        <time>2019-03-30T08:03:59Z</time>
      </trkpt>
      <trkpt lat="42.76691" lon="0.15223">
        <ele>2447.65</ele>
        <time>2019-03-30T08:04:07Z</time>
      </trkpt>
      <trkpt lat="42.7669" lon="0.15218">
        <ele>2449.1</ele>
        <time>2019-03-30T08:04:13Z</time>
      </trkpt>
      <trkpt lat="42.76689" lon="0.15209">
        <ele>2450.54</ele>
        <time>2019-03-30T08:04:21Z</time>
      </trkpt>
      <trkpt lat="42.76686" lon="0.15204">
        <ele>2451.5</ele>
        <time>2019-03-30T08:04:29Z</time>
      </trkpt>
      <trkpt lat="42.76685" lon="0.15199">
        <ele>2452.46</ele>
        <time>2019-03-30T08:04:38Z</time>
      </trkpt>
      <trkpt lat="42.76685" lon="0.15192">
        <ele>2454.38</ele>
        <time>2019-03-30T08:04:46Z</time>
      </trkpt>
      <trkpt lat="42.76683" lon="0.15186">
        <ele>2455.82</ele>
        <time>2019-03-30T08:04:53Z</time>
      </trkpt>
      <trkpt lat="42.76682" lon="0.15179">
        <ele>2456.79</ele>
        <time>2019-03-30T08:05:01Z</time>
      </trkpt>
      <trkpt lat="42.76681" lon="0.15175">
        <ele>2458.23</ele>
        <time>2019-03-30T08:05:08Z</time>
      </trkpt>
      <trkpt lat="42.7668" lon="0.1517">
        <ele>2459.19</ele>
        <time>2019-03-30T08:05:15Z</time>
      </trkpt>
      <trkpt lat="42.76678" lon="0.15164">
        <ele>2460.15</ele>
        <time>2019-03-30T08:05:22Z</time>
      </trkpt>
      <trkpt lat="42.76677" lon="0.15158">
        <ele>2461.59</ele>
        <time>2019-03-30T08:05:29Z</time>
      </trkpt>
      <trkpt lat="42.76676" lon="0.15153">
        <ele>2462.07</ele>
        <time>2019-03-30T08:05:35Z</time>
      </trkpt>
      <trkpt lat="42.76675" lon="0.15148">
        <ele>2463.52</ele>
        <time>2019-03-30T08:05:41Z</time>
      </trkpt>
      <trkpt lat="42.76674" lon="0.15144">
        <ele>2464.48</ele>
        <time>2019-03-30T08:05:49Z</time>
      </trkpt>
      <trkpt lat="42.76672" lon="0.15139">
        <ele>2465.92</ele>
        <time>2019-03-30T08:05:56Z</time>
      </trkpt>
      <trkpt lat="42.76671" lon="0.15132">
        <ele>2467.36</ele>
        <time>2019-03-30T08:06:04Z</time>
      </trkpt>
      <trkpt lat="42.7667" lon="0.15125">
        <ele>2468.32</ele>
        <time>2019-03-30T08:06:13Z</time>
      </trkpt>
      <trkpt lat="42.7667" lon="0.15118">
        <ele>2469.28</ele>
        <time>2019-03-30T08:06:20Z</time>
      </trkpt>
      <trkpt lat="42.76669" lon="0.15112">
        <ele>2470.24</ele>
        <time>2019-03-30T08:06:26Z</time>
      </trkpt>
      <trkpt lat="42.76669" lon="0.15106">
        <ele>2471.69</ele>
        <time>2019-03-30T08:06:35Z</time>
      </trkpt>
      <trkpt lat="42.7667" lon="0.151">
        <ele>2472.65</ele>
        <time>2019-03-30T08:06:42Z</time>
      </trkpt>
      <trkpt lat="42.7667" lon="0.15093">
        <ele>2473.61</ele>
        <time>2019-03-30T08:06:50Z</time>
      </trkpt>
      <trkpt lat="42.76668" lon="0.15087">
        <ele>2475.05</ele>
        <time>2019-03-30T08:06:58Z</time>
      </trkpt>
      <trkpt lat="42.76668" lon="0.15082">
        <ele>2476.01</ele>
        <time>2019-03-30T08:07:05Z</time>
      </trkpt>
      <trkpt lat="42.76668" lon="0.15077">
        <ele>2476.97</ele>
        <time>2019-03-30T08:07:12Z</time>
      </trkpt>
      <trkpt lat="42.76667" lon="0.15072">
        <ele>2477.45</ele>
        <time>2019-03-30T08:07:18Z</time>
      </trkpt>
      <trkpt lat="42.76667" lon="0.15071">
        <ele>2477.94</ele>
        <time>2019-03-30T08:07:27Z</time>
      </trkpt>
      <trkpt lat="42.76666" lon="0.15064">
        <ele>2478.42</ele>
        <time>2019-03-30T08:07:34Z</time>
      </trkpt>
      <trkpt lat="42.76665" lon="0.15055">
        <ele>2479.86</ele>
        <time>2019-03-30T08:07:41Z</time>
      </trkpt>
      <trkpt lat="42.76666" lon="0.15049">
        <ele>2480.34</ele>
        <time>2019-03-30T08:07:48Z</time>
      </trkpt>
      <trkpt lat="42.76667" lon="0.15048">
        <ele>2480.34</ele>
        <time>2019-03-30T08:07:59Z</time>
      </trkpt>
      <trkpt lat="42.76665" lon="0.15045">
        <ele>2481.3</ele>
        <time>2019-03-30T08:08:05Z</time>
      </trkpt>
      <trkpt lat="42.76664" lon="0.15042">
        <ele>2481.3</ele>
        <time>2019-03-30T08:08:13Z</time>
      </trkpt>
      <trkpt lat="42.76664" lon="0.15041">
        <ele>2481.78</ele>
        <time>2019-03-30T08:08:25Z</time>
      </trkpt>
      <trkpt lat="42.76664" lon="0.15041">
        <ele>2481.78</ele>
        <time>2019-03-30T08:08:37Z</time>
      </trkpt>
      <trkpt lat="42.76664" lon="0.1504">
        <ele>2481.3</ele>
        <time>2019-03-30T08:08:48Z</time>
      </trkpt>
      <trkpt lat="42.76663" lon="0.15038">
        <ele>2481.3</ele>
        <time>2019-03-30T08:08:57Z</time>
      </trkpt>
      <trkpt lat="42.76663" lon="0.15035">
        <ele>2481.78</ele>
        <time>2019-03-30T08:09:04Z</time>
      </trkpt>
      <trkpt lat="42.76662" lon="0.15034">
        <ele>2481.78</ele>
        <time>2019-03-30T08:09:16Z</time>
      </trkpt>
      <trkpt lat="42.76662" lon="0.15034">
        <ele>2482.26</ele>
        <time>2019-03-30T08:09:27Z</time>
      </trkpt>
      <trkpt lat="42.76662" lon="0.15033">
        <ele>2481.78</ele>
        <time>2019-03-30T08:09:38Z</time>
      </trkpt>
      <trkpt lat="42.76661" lon="0.15032">
        <ele>2481.78</ele>
        <time>2019-03-30T08:09:50Z</time>
      </trkpt>
      <trkpt lat="42.76661" lon="0.15033">
        <ele>2481.3</ele>
        <time>2019-03-30T08:10:01Z</time>
      </trkpt>
      <trkpt lat="42.76661" lon="0.15033">
        <ele>2481.3</ele>
        <time>2019-03-30T08:10:12Z</time>
      </trkpt>
      <trkpt lat="42.76661" lon="0.15032">
        <ele>2481.3</ele>
        <time>2019-03-30T08:10:20Z</time>
      </trkpt>
      <trkpt lat="42.76661" lon="0.15032">
        <ele>2481.3</ele>
        <time>2019-03-30T08:10:30Z</time>
      </trkpt>
      <trkpt lat="42.76661" lon="0.15032">
        <ele>2481.3</ele>
        <time>2019-03-30T08:10:37Z</time>
      </trkpt>
      <trkpt lat="42.76661" lon="0.15031">
        <ele>2481.78</ele>
        <time>2019-03-30T08:10:46Z</time>
      </trkpt>
      <trkpt lat="42.76661" lon="0.15031">
        <ele>2480.82</ele>
        <time>2019-03-30T08:10:56Z</time>
      </trkpt>
      <trkpt lat="42.76661" lon="0.15031">
        <ele>2481.78</ele>
        <time>2019-03-30T08:11:09Z</time>
      </trkpt>
      <trkpt lat="42.7666" lon="0.15031">
        <ele>2481.3</ele>
        <time>2019-03-30T08:11:15Z</time>
      </trkpt>
      <trkpt lat="42.76661" lon="0.15032">
        <ele>2480.82</ele>
        <time>2019-03-30T08:11:24Z</time>
      </trkpt>
      <trkpt lat="42.76661" lon="0.15031">
        <ele>2480.34</ele>
        <time>2019-03-30T08:11:32Z</time>
      </trkpt>
      <trkpt lat="42.76661" lon="0.15031">
        <ele>2479.86</ele>
        <time>2019-03-30T08:11:40Z</time>
      </trkpt>
      <trkpt lat="42.76662" lon="0.15032">
        <ele>2480.34</ele>
        <time>2019-03-30T08:11:59Z</time>
      </trkpt>
      <trkpt lat="42.76662" lon="0.15031">
        <ele>2480.34</ele>
        <time>2019-03-30T08:12:18Z</time>
      </trkpt>
      <trkpt lat="42.76663" lon="0.15032">
        <ele>2480.34</ele>
        <time>2019-03-30T08:12:35Z</time>
      </trkpt>
      <trkpt lat="42.76664" lon="0.15032">
        <ele>2480.34</ele>
        <time>2019-03-30T08:12:54Z</time>
      </trkpt>
      <trkpt lat="42.76664" lon="0.15031">
        <ele>2480.34</ele>
        <time>2019-03-30T08:13:14Z</time>
      </trkpt>
      <trkpt lat="42.76664" lon="0.15031">
        <ele>2480.82</ele>
        <time>2019-03-30T08:13:35Z</time>
      </trkpt>
      <trkpt lat="42.76664" lon="0.15032">
        <ele>2480.82</ele>
        <time>2019-03-30T08:13:59Z</time>
      </trkpt>
      <trkpt lat="42.76664" lon="0.15032">
        <ele>2480.34</ele>
        <time>2019-03-30T08:14:19Z</time>
      </trkpt>
      <trkpt lat="42.76663" lon="0.15032">
        <ele>2480.82</ele>
        <time>2019-03-30T08:14:36Z</time>
      </trkpt>
      <trkpt lat="42.76663" lon="0.15031">
        <ele>2480.82</ele>
        <time>2019-03-30T08:14:53Z</time>
      </trkpt>
      <trkpt lat="42.76663" lon="0.15032">
        <ele>2480.82</ele>
        <time>2019-03-30T08:15:10Z</time>
      </trkpt>
      <trkpt lat="42.76663" lon="0.15033">
        <ele>2480.82</ele>
        <time>2019-03-30T08:15:26Z</time>
      </trkpt>
      <trkpt lat="42.76663" lon="0.15033">
        <ele>2481.3</ele>
        <time>2019-03-30T08:15:45Z</time>
      </trkpt>
      <trkpt lat="42.76662" lon="0.15033">
        <ele>2480.82</ele>
        <time>2019-03-30T08:16:11Z</time>
      </trkpt>
      <trkpt lat="42.76662" lon="0.15033">
        <ele>2480.82</ele>
        <time>2019-03-30T08:16:32Z</time>
      </trkpt>
      <trkpt lat="42.76661" lon="0.15034">
        <ele>2480.82</ele>
        <time>2019-03-30T08:16:55Z</time>
      </trkpt>
      <trkpt lat="42.76661" lon="0.15035">
        <ele>2481.3</ele>
        <time>2019-03-30T08:17:19Z</time>
      </trkpt>
      <trkpt lat="42.76661" lon="0.15033">
        <ele>2481.3</ele>
        <time>2019-03-30T08:17:35Z</time>
      </trkpt>
      <trkpt lat="42.76662" lon="0.15032">
        <ele>2481.3</ele>
        <time>2019-03-30T08:17:52Z</time>
      </trkpt>
      <trkpt lat="42.76662" lon="0.15031">
        <ele>2481.3</ele>
        <time>2019-03-30T08:18:11Z</time>
      </trkpt>
      <trkpt lat="42.76663" lon="0.15029">
        <ele>2481.3</ele>
        <time>2019-03-30T08:18:31Z</time>
      </trkpt>
      <trkpt lat="42.76664" lon="0.1503">
        <ele>2481.3</ele>
        <time>2019-03-30T08:18:50Z</time>
      </trkpt>
      <trkpt lat="42.76665" lon="0.15029">
        <ele>2481.3</ele>
        <time>2019-03-30T08:19:09Z</time>
      </trkpt>
      <trkpt lat="42.76665" lon="0.1503">
        <ele>2481.3</ele>
        <time>2019-03-30T08:19:26Z</time>
      </trkpt>
      <trkpt lat="42.76665" lon="0.15029">
        <ele>2481.78</ele>
        <time>2019-03-30T08:19:51Z</time>
      </trkpt>
      <trkpt lat="42.76665" lon="0.1503">
        <ele>2481.78</ele>
        <time>2019-03-30T08:20:13Z</time>
      </trkpt>
      <trkpt lat="42.76665" lon="0.1503">
        <ele>2481.78</ele>
        <time>2019-03-30T08:20:28Z</time>
      </trkpt>
      <trkpt lat="42.76665" lon="0.1503">
        <ele>2481.78</ele>
        <time>2019-03-30T08:20:47Z</time>
      </trkpt>
      <trkpt lat="42.76665" lon="0.1503">
        <ele>2481.78</ele>
        <time>2019-03-30T08:21:05Z</time>
      </trkpt>
      <trkpt lat="42.76664" lon="0.1503">
        <ele>2482.26</ele>
        <time>2019-03-30T08:21:23Z</time>
      </trkpt>
      <trkpt lat="42.76665" lon="0.15031">
        <ele>2482.26</ele>
        <time>2019-03-30T08:21:45Z</time>
      </trkpt>
      <trkpt lat="42.76665" lon="0.15031">
        <ele>2482.26</ele>
        <time>2019-03-30T08:22:05Z</time>
      </trkpt>
      <trkpt lat="42.76665" lon="0.15031">
        <ele>2483.7</ele>
        <time>2019-03-30T08:22:24Z</time>
      </trkpt>
      <trkpt lat="42.76665" lon="0.15031">
        <ele>2482.26</ele>
        <time>2019-03-30T08:22:42Z</time>
      </trkpt>
      <trkpt lat="42.76666" lon="0.15031">
        <ele>2482.74</ele>
        <time>2019-03-30T08:23:06Z</time>
      </trkpt>
      <trkpt lat="42.76666" lon="0.1503">
        <ele>2483.22</ele>
        <time>2019-03-30T08:23:25Z</time>
      </trkpt>
      <trkpt lat="42.76665" lon="0.1503">
        <ele>2483.7</ele>
        <time>2019-03-30T08:23:34Z</time>
      </trkpt>
      <trkpt lat="42.76665" lon="0.1503">
        <ele>2483.7</ele>
        <time>2019-03-30T08:23:42Z</time>
      </trkpt>
      <trkpt lat="42.76665" lon="0.1503">
        <ele>2483.7</ele>
        <time>2019-03-30T08:23:51Z</time>
      </trkpt>
      <trkpt lat="42.76665" lon="0.1503">
        <ele>2483.7</ele>
        <time>2019-03-30T08:24:00Z</time>
      </trkpt>
      <trkpt lat="42.76664" lon="0.15031">
        <ele>2483.7</ele>
        <time>2019-03-30T08:24:10Z</time>
      </trkpt>
      <trkpt lat="42.76664" lon="0.15031">
        <ele>2483.22</ele>
        <time>2019-03-30T08:24:20Z</time>
      </trkpt>
      <trkpt lat="42.76663" lon="0.15031">
        <ele>2483.22</ele>
        <time>2019-03-30T08:24:32Z</time>
      </trkpt>
      <trkpt lat="42.76663" lon="0.15031">
        <ele>2483.22</ele>
        <time>2019-03-30T08:24:41Z</time>
      </trkpt>
      <trkpt lat="42.76663" lon="0.15031">
        <ele>2483.7</ele>
        <time>2019-03-30T08:24:50Z</time>
      </trkpt>
      <trkpt lat="42.76662" lon="0.1503">
        <ele>2483.7</ele>
        <time>2019-03-30T08:25:03Z</time>
      </trkpt>
      <trkpt lat="42.76662" lon="0.15031">
        <ele>2484.18</ele>
        <time>2019-03-30T08:25:19Z</time>
      </trkpt>
      <trkpt lat="42.76662" lon="0.15032">
        <ele>2484.18</ele>
        <time>2019-03-30T08:25:37Z</time>
      </trkpt>
      <trkpt lat="42.76663" lon="0.15029">
        <ele>2484.18</ele>
        <time>2019-03-30T08:25:50Z</time>
      </trkpt>
      <trkpt lat="42.76663" lon="0.15028">
        <ele>2484.66</ele>
        <time>2019-03-30T08:25:56Z</time>
      </trkpt>
      <trkpt lat="42.76663" lon="0.15028">
        <ele>2484.66</ele>
        <time>2019-03-30T08:26:04Z</time>
      </trkpt>
      <trkpt lat="42.76663" lon="0.15031">
        <ele>2483.7</ele>
        <time>2019-03-30T08:26:11Z</time>
      </trkpt>
      <trkpt lat="42.76663" lon="0.15032">
        <ele>2484.18</ele>
        <time>2019-03-30T08:26:17Z</time>
      </trkpt>
      <trkpt lat="42.76663" lon="0.15031">
        <ele>2484.66</ele>
        <time>2019-03-30T08:26:25Z</time>
      </trkpt>
      <trkpt lat="42.76663" lon="0.15032">
        <ele>2483.7</ele>
        <time>2019-03-30T08:26:36Z</time>
      </trkpt>
      <trkpt lat="42.76662" lon="0.15032">
        <ele>2483.7</ele>
        <time>2019-03-30T08:26:37Z</time>
      </trkpt>
      <trkpt lat="42.76661" lon="0.15032">
        <ele>2483.7</ele>
        <time>2019-03-30T08:26:43Z</time>
      </trkpt>
      <trkpt lat="42.76662" lon="0.15032">
        <ele>2484.18</ele>
        <time>2019-03-30T08:27:00Z</time>
      </trkpt>
      <trkpt lat="42.76662" lon="0.15033">
        <ele>2483.7</ele>
        <time>2019-03-30T08:27:13Z</time>
      </trkpt>
      <trkpt lat="42.76662" lon="0.15033">
        <ele>2483.7</ele>
        <time>2019-03-30T08:27:27Z</time>
      </trkpt>
      <trkpt lat="42.76662" lon="0.15035">
        <ele>2483.7</ele>
        <time>2019-03-30T08:27:37Z</time>
      </trkpt>
      <trkpt lat="42.76664" lon="0.15041">
        <ele>2482.74</ele>
        <time>2019-03-30T08:27:44Z</time>
      </trkpt>
      <trkpt lat="42.76665" lon="0.15048">
        <ele>2482.26</ele>
        <time>2019-03-30T08:27:51Z</time>
      </trkpt>
      <trkpt lat="42.76665" lon="0.15054">
        <ele>2481.78</ele>
        <time>2019-03-30T08:27:57Z</time>
      </trkpt>
      <trkpt lat="42.76664" lon="0.15058">
        <ele>2482.26</ele>
        <time>2019-03-30T08:28:04Z</time>
      </trkpt>
      <trkpt lat="42.76664" lon="0.1506">
        <ele>2482.74</ele>
        <time>2019-03-30T08:28:12Z</time>
      </trkpt>
      <trkpt lat="42.76664" lon="0.15061">
        <ele>2483.22</ele>
        <time>2019-03-30T08:28:20Z</time>
      </trkpt>
      <trkpt lat="42.76662" lon="0.15063">
        <ele>2484.18</ele>
        <time>2019-03-30T08:28:29Z</time>
      </trkpt>
      <trkpt lat="42.76661" lon="0.15064">
        <ele>2484.66</ele>
        <time>2019-03-30T08:28:36Z</time>
      </trkpt>
      <trkpt lat="42.7666" lon="0.15064">
        <ele>2485.63</ele>
        <time>2019-03-30T08:28:43Z</time>
      </trkpt>
      <trkpt lat="42.76657" lon="0.15068">
        <ele>2486.59</ele>
        <time>2019-03-30T08:28:51Z</time>
      </trkpt>
      <trkpt lat="42.76656" lon="0.15072">
        <ele>2488.03</ele>
        <time>2019-03-30T08:28:59Z</time>
      </trkpt>
      <trkpt lat="42.76655" lon="0.15074">
        <ele>2488.51</ele>
        <time>2019-03-30T08:29:06Z</time>
      </trkpt>
      <trkpt lat="42.76655" lon="0.15075">
        <ele>2489.47</ele>
        <time>2019-03-30T08:29:12Z</time>
      </trkpt>
      <trkpt lat="42.76654" lon="0.15077">
        <ele>2489.47</ele>
        <time>2019-03-30T08:29:22Z</time>
      </trkpt>
      <trkpt lat="42.76654" lon="0.15077">
        <ele>2488.99</ele>
        <time>2019-03-30T08:29:30Z</time>
      </trkpt>
      <trkpt lat="42.76654" lon="0.15076">
        <ele>2488.99</ele>
        <time>2019-03-30T08:29:38Z</time>
      </trkpt>
      <trkpt lat="42.76654" lon="0.15074">
        <ele>2488.51</ele>
        <time>2019-03-30T08:29:45Z</time>
      </trkpt>
      <trkpt lat="42.76654" lon="0.15074">
        <ele>2488.03</ele>
        <time>2019-03-30T08:29:47Z</time>
      </trkpt>
      <trkpt lat="42.76656" lon="0.15072">
        <ele>2488.03</ele>
        <time>2019-03-30T08:29:48Z</time>
      </trkpt>
      <trkpt lat="42.76659" lon="0.15067">
        <ele>2486.59</ele>
        <time>2019-03-30T08:29:56Z</time>
      </trkpt>
      <trkpt lat="42.76661" lon="0.15067">
        <ele>2486.11</ele>
        <time>2019-03-30T08:29:59Z</time>
      </trkpt>
      <trkpt lat="42.76663" lon="0.15068">
        <ele>2484.66</ele>
        <time>2019-03-30T08:30:06Z</time>
      </trkpt>
      <trkpt lat="42.76664" lon="0.15067">
        <ele>2482.74</ele>
        <time>2019-03-30T08:30:13Z</time>
      </trkpt>
      <trkpt lat="42.76665" lon="0.15068">
        <ele>2482.74</ele>
        <time>2019-03-30T08:30:22Z</time>
      </trkpt>
      <trkpt lat="42.76664" lon="0.15068">
        <ele>2483.22</ele>
        <time>2019-03-30T08:30:28Z</time>
      </trkpt>
      <trkpt lat="42.76665" lon="0.15067">
        <ele>2482.74</ele>
        <time>2019-03-30T08:30:42Z</time>
      </trkpt>
      <trkpt lat="42.76665" lon="0.15068">
        <ele>2482.74</ele>
        <time>2019-03-30T08:30:53Z</time>
      </trkpt>
      <trkpt lat="42.76666" lon="0.15068">
        <ele>2482.74</ele>
        <time>2019-03-30T08:31:06Z</time>
      </trkpt>
      <trkpt lat="42.76666" lon="0.15068">
        <ele>2482.74</ele>
        <time>2019-03-30T08:31:19Z</time>
      </trkpt>
      <trkpt lat="42.76667" lon="0.15068">
        <ele>2482.74</ele>
        <time>2019-03-30T08:31:32Z</time>
      </trkpt>
      <trkpt lat="42.76667" lon="0.15066">
        <ele>2483.22</ele>
        <time>2019-03-30T08:31:43Z</time>
      </trkpt>
      <trkpt lat="42.76664" lon="0.15062">
        <ele>2482.26</ele>
        <time>2019-03-30T08:31:53Z</time>
      </trkpt>
      <trkpt lat="42.76662" lon="0.15065">
        <ele>2483.7</ele>
        <time>2019-03-30T08:32:00Z</time>
      </trkpt>
      <trkpt lat="42.76659" lon="0.15067">
        <ele>2484.66</ele>
        <time>2019-03-30T08:32:08Z</time>
      </trkpt>
      <trkpt lat="42.76658" lon="0.15066">
        <ele>2486.59</ele>
        <time>2019-03-30T08:32:16Z</time>
      </trkpt>
      <trkpt lat="42.76658" lon="0.15069">
        <ele>2487.55</ele>
        <time>2019-03-30T08:32:23Z</time>
      </trkpt>
      <trkpt lat="42.76659" lon="0.15071">
        <ele>2488.51</ele>
        <time>2019-03-30T08:32:30Z</time>
      </trkpt>
      <trkpt lat="42.76657" lon="0.15073">
        <ele>2488.03</ele>
        <time>2019-03-30T08:32:42Z</time>
      </trkpt>
      <trkpt lat="42.76655" lon="0.15072">
        <ele>2488.03</ele>
        <time>2019-03-30T08:32:54Z</time>
      </trkpt>
      <trkpt lat="42.76653" lon="0.15068">
        <ele>2488.51</ele>
        <time>2019-03-30T08:33:01Z</time>
      </trkpt>
      <trkpt lat="42.76653" lon="0.15067">
        <ele>2488.99</ele>
        <time>2019-03-30T08:33:10Z</time>
      </trkpt>
      <trkpt lat="42.76651" lon="0.15061">
        <ele>2489.95</ele>
        <time>2019-03-30T08:33:17Z</time>
      </trkpt>
      <trkpt lat="42.7665" lon="0.15053">
        <ele>2490.43</ele>
        <time>2019-03-30T08:33:25Z</time>
      </trkpt>
      <trkpt lat="42.7665" lon="0.15045">
        <ele>2491.87</ele>
        <time>2019-03-30T08:33:33Z</time>
      </trkpt>
      <trkpt lat="42.76649" lon="0.15039">
        <ele>2492.36</ele>
        <time>2019-03-30T08:33:40Z</time>
      </trkpt>
      <trkpt lat="42.76649" lon="0.15036">
        <ele>2492.84</ele>
        <time>2019-03-30T08:33:46Z</time>
      </trkpt>
      <trkpt lat="42.7665" lon="0.15034">
        <ele>2494.28</ele>
        <time>2019-03-30T08:33:52Z</time>
      </trkpt>
      <trkpt lat="42.7665" lon="0.15032">
        <ele>2494.76</ele>
        <time>2019-03-30T08:33:59Z</time>
      </trkpt>
      <trkpt lat="42.76648" lon="0.15029">
        <ele>2495.72</ele>
        <time>2019-03-30T08:34:06Z</time>
      </trkpt>
      <trkpt lat="42.76646" lon="0.15023">
        <ele>2496.2</ele>
        <time>2019-03-30T08:34:13Z</time>
      </trkpt>
      <trkpt lat="42.76646" lon="0.15022">
        <ele>2497.16</ele>
        <time>2019-03-30T08:34:21Z</time>
      </trkpt>
      <trkpt lat="42.76645" lon="0.15014">
        <ele>2497.64</ele>
        <time>2019-03-30T08:34:29Z</time>
      </trkpt>
      <trkpt lat="42.76644" lon="0.1501">
        <ele>2499.08</ele>
        <time>2019-03-30T08:34:38Z</time>
      </trkpt>
      <trkpt lat="42.76642" lon="0.15006">
        <ele>2500.05</ele>
        <time>2019-03-30T08:34:46Z</time>
      </trkpt>
      <trkpt lat="42.7664" lon="0.15002">
        <ele>2501.01</ele>
        <time>2019-03-30T08:34:54Z</time>
      </trkpt>
      <trkpt lat="42.76638" lon="0.15">
        <ele>2501.97</ele>
        <time>2019-03-30T08:35:02Z</time>
      </trkpt>
      <trkpt lat="42.76636" lon="0.14998">
        <ele>2502.93</ele>
        <time>2019-03-30T08:35:09Z</time>
      </trkpt>
      <trkpt lat="42.76636" lon="0.14995">
        <ele>2503.89</ele>
        <time>2019-03-30T08:35:15Z</time>
      </trkpt>
      <trkpt lat="42.76637" lon="0.14994">
        <ele>2504.85</ele>
        <time>2019-03-30T08:35:21Z</time>
      </trkpt>
      <trkpt lat="42.76634" lon="0.14991">
        <ele>2505.81</ele>
        <time>2019-03-30T08:35:29Z</time>
      </trkpt>
      <trkpt lat="42.76634" lon="0.14989">
        <ele>2506.77</ele>
        <time>2019-03-30T08:35:35Z</time>
      </trkpt>
      <trkpt lat="42.76636" lon="0.14986">
        <ele>2508.22</ele>
        <time>2019-03-30T08:35:43Z</time>
      </trkpt>
      <trkpt lat="42.76635" lon="0.14985">
        <ele>2509.18</ele>
        <time>2019-03-30T08:35:51Z</time>
      </trkpt>
      <trkpt lat="42.76633" lon="0.14981">
        <ele>2510.14</ele>
        <time>2019-03-30T08:36:01Z</time>
      </trkpt>
      <trkpt lat="42.76632" lon="0.14978">
        <ele>2511.58</ele>
        <time>2019-03-30T08:36:10Z</time>
      </trkpt>
      <trkpt lat="42.76632" lon="0.14977">
        <ele>2512.06</ele>
        <time>2019-03-30T08:36:16Z</time>
      </trkpt>
      <trkpt lat="42.7663" lon="0.14974">
        <ele>2512.54</ele>
        <time>2019-03-30T08:36:22Z</time>
      </trkpt>
      <trkpt lat="42.76631" lon="0.14972">
        <ele>2513.98</ele>
        <time>2019-03-30T08:36:31Z</time>
      </trkpt>
      <trkpt lat="42.76632" lon="0.14971">
        <ele>2514.47</ele>
        <time>2019-03-30T08:36:39Z</time>
      </trkpt>
      <trkpt lat="42.76633" lon="0.14969">
        <ele>2514.95</ele>
        <time>2019-03-30T08:36:45Z</time>
      </trkpt>
      <trkpt lat="42.76632" lon="0.14967">
        <ele>2516.39</ele>
        <time>2019-03-30T08:36:52Z</time>
      </trkpt>
      <trkpt lat="42.7663" lon="0.14966">
        <ele>2516.87</ele>
        <time>2019-03-30T08:36:58Z</time>
      </trkpt>
      <trkpt lat="42.76629" lon="0.14963">
        <ele>2518.31</ele>
        <time>2019-03-30T08:37:05Z</time>
      </trkpt>
      <trkpt lat="42.76628" lon="0.14962">
        <ele>2518.79</ele>
        <time>2019-03-30T08:37:12Z</time>
      </trkpt>
      <trkpt lat="42.76628" lon="0.1496">
        <ele>2520.23</ele>
        <time>2019-03-30T08:37:22Z</time>
      </trkpt>
      <trkpt lat="42.76629" lon="0.14958">
        <ele>2521.68</ele>
        <time>2019-03-30T08:37:30Z</time>
      </trkpt>
      <trkpt lat="42.76629" lon="0.14956">
        <ele>2522.16</ele>
        <time>2019-03-30T08:37:36Z</time>
      </trkpt>
      <trkpt lat="42.76628" lon="0.14955">
        <ele>2523.6</ele>
        <time>2019-03-30T08:37:44Z</time>
      </trkpt>
      <trkpt lat="42.76628" lon="0.14953">
        <ele>2524.56</ele>
        <time>2019-03-30T08:37:51Z</time>
      </trkpt>
      <trkpt lat="42.76631" lon="0.14951">
        <ele>2525.04</ele>
        <time>2019-03-30T08:38:00Z</time>
      </trkpt>
      <trkpt lat="42.76631" lon="0.14949">
        <ele>2526.48</ele>
        <time>2019-03-30T08:38:08Z</time>
      </trkpt>
      <trkpt lat="42.76629" lon="0.14947">
        <ele>2527.44</ele>
        <time>2019-03-30T08:38:14Z</time>
      </trkpt>
      <trkpt lat="42.76629" lon="0.14945">
        <ele>2528.4</ele>
        <time>2019-03-30T08:38:22Z</time>
      </trkpt>
      <trkpt lat="42.76628" lon="0.1494">
        <ele>2529.85</ele>
        <time>2019-03-30T08:38:28Z</time>
      </trkpt>
      <trkpt lat="42.76626" lon="0.14936">
        <ele>2530.33</ele>
        <time>2019-03-30T08:38:35Z</time>
      </trkpt>
      <trkpt lat="42.76626" lon="0.14934">
        <ele>2531.77</ele>
        <time>2019-03-30T08:38:45Z</time>
      </trkpt>
      <trkpt lat="42.76625" lon="0.14932">
        <ele>2532.25</ele>
        <time>2019-03-30T08:38:53Z</time>
      </trkpt>
      <trkpt lat="42.76623" lon="0.14931">
        <ele>2533.69</ele>
        <time>2019-03-30T08:39:01Z</time>
      </trkpt>
      <trkpt lat="42.76622" lon="0.14929">
        <ele>2534.65</ele>
        <time>2019-03-30T08:39:09Z</time>
      </trkpt>
      <trkpt lat="42.76621" lon="0.14928">
        <ele>2535.61</ele>
        <time>2019-03-30T08:39:16Z</time>
      </trkpt>
      <trkpt lat="42.7662" lon="0.14927">
        <ele>2536.58</ele>
        <time>2019-03-30T08:39:25Z</time>
      </trkpt>
      <trkpt lat="42.76618" lon="0.14925">
        <ele>2537.06</ele>
        <time>2019-03-30T08:39:32Z</time>
      </trkpt>
      <trkpt lat="42.76616" lon="0.14923">
        <ele>2538.5</ele>
        <time>2019-03-30T08:39:41Z</time>
      </trkpt>
      <trkpt lat="42.76615" lon="0.1492">
        <ele>2539.46</ele>
        <time>2019-03-30T08:39:48Z</time>
      </trkpt>
      <trkpt lat="42.76616" lon="0.14917">
        <ele>2540.42</ele>
        <time>2019-03-30T08:39:56Z</time>
      </trkpt>
      <trkpt lat="42.76614" lon="0.14914">
        <ele>2541.38</ele>
        <time>2019-03-30T08:40:04Z</time>
      </trkpt>
      <trkpt lat="42.76614" lon="0.14914">
        <ele>2542.34</ele>
        <time>2019-03-30T08:40:10Z</time>
      </trkpt>
      <trkpt lat="42.7661" lon="0.14913">
        <ele>2542.34</ele>
        <time>2019-03-30T08:40:18Z</time>
      </trkpt>
      <trkpt lat="42.76609" lon="0.14911">
        <ele>2543.31</ele>
        <time>2019-03-30T08:40:29Z</time>
      </trkpt>
      <trkpt lat="42.76608" lon="0.1491">
        <ele>2543.31</ele>
        <time>2019-03-30T08:40:41Z</time>
      </trkpt>
      <trkpt lat="42.76609" lon="0.1491">
        <ele>2543.31</ele>
        <time>2019-03-30T08:40:54Z</time>
      </trkpt>
      <trkpt lat="42.76608" lon="0.14908">
        <ele>2543.31</ele>
        <time>2019-03-30T08:41:08Z</time>
      </trkpt>
      <trkpt lat="42.76608" lon="0.14904">
        <ele>2544.75</ele>
        <time>2019-03-30T08:41:16Z</time>
      </trkpt>
      <trkpt lat="42.76607" lon="0.14904">
        <ele>2545.23</ele>
        <time>2019-03-30T08:41:25Z</time>
      </trkpt>
      <trkpt lat="42.76606" lon="0.14902">
        <ele>2546.67</ele>
        <time>2019-03-30T08:41:32Z</time>
      </trkpt>
      <trkpt lat="42.76606" lon="0.14899">
        <ele>2546.67</ele>
        <time>2019-03-30T08:41:45Z</time>
      </trkpt>
      <trkpt lat="42.76606" lon="0.14899">
        <ele>2546.67</ele>
        <time>2019-03-30T08:41:53Z</time>
      </trkpt>
      <trkpt lat="42.76605" lon="0.14898">
        <ele>2547.15</ele>
        <time>2019-03-30T08:42:02Z</time>
      </trkpt>
      <trkpt lat="42.76603" lon="0.14896">
        <ele>2548.11</ele>
        <time>2019-03-30T08:42:11Z</time>
      </trkpt>
      <trkpt lat="42.76602" lon="0.14894">
        <ele>2549.55</ele>
        <time>2019-03-30T08:42:20Z</time>
      </trkpt>
      <trkpt lat="42.76601" lon="0.14893">
        <ele>2551.48</ele>
        <time>2019-03-30T08:42:26Z</time>
      </trkpt>
      <trkpt lat="42.76601" lon="0.1489">
        <ele>2551</ele>
        <time>2019-03-30T08:42:34Z</time>
      </trkpt>
      <trkpt lat="42.766" lon="0.14889">
        <ele>2551.48</ele>
        <time>2019-03-30T08:42:41Z</time>
      </trkpt>
      <trkpt lat="42.76598" lon="0.14887">
        <ele>2552.92</ele>
        <time>2019-03-30T08:42:51Z</time>
      </trkpt>
      <trkpt lat="42.76598" lon="0.14885">
        <ele>2553.4</ele>
        <time>2019-03-30T08:42:58Z</time>
      </trkpt>
      <trkpt lat="42.76598" lon="0.14884">
        <ele>2554.36</ele>
        <time>2019-03-30T08:43:05Z</time>
      </trkpt>
      <trkpt lat="42.76597" lon="0.14883">
        <ele>2554.36</ele>
        <time>2019-03-30T08:43:13Z</time>
      </trkpt>
      <trkpt lat="42.76595" lon="0.14881">
        <ele>2554.84</ele>
        <time>2019-03-30T08:43:20Z</time>
      </trkpt>
      <trkpt lat="42.76595" lon="0.14881">
        <ele>2554.84</ele>
        <time>2019-03-30T08:43:28Z</time>
      </trkpt>
      <trkpt lat="42.76594" lon="0.1488">
        <ele>2555.32</ele>
        <time>2019-03-30T08:43:35Z</time>
      </trkpt>
      <trkpt lat="42.76593" lon="0.14879">
        <ele>2556.28</ele>
        <time>2019-03-30T08:43:41Z</time>
      </trkpt>
      <trkpt lat="42.76593" lon="0.14877">
        <ele>2557.24</ele>
        <time>2019-03-30T08:43:49Z</time>
      </trkpt>
      <trkpt lat="42.76594" lon="0.14876">
        <ele>2557.73</ele>
        <time>2019-03-30T08:44:00Z</time>
      </trkpt>
      <trkpt lat="42.76594" lon="0.14873">
        <ele>2559.17</ele>
        <time>2019-03-30T08:44:10Z</time>
      </trkpt>
      <trkpt lat="42.76595" lon="0.1487">
        <ele>2560.13</ele>
        <time>2019-03-30T08:44:17Z</time>
      </trkpt>
      <trkpt lat="42.76595" lon="0.14868">
        <ele>2560.61</ele>
        <time>2019-03-30T08:44:23Z</time>
      </trkpt>
      <trkpt lat="42.76594" lon="0.14865">
        <ele>2561.57</ele>
        <time>2019-03-30T08:44:29Z</time>
      </trkpt>
      <trkpt lat="42.76592" lon="0.14864">
        <ele>2562.53</ele>
        <time>2019-03-30T08:44:37Z</time>
      </trkpt>
      <trkpt lat="42.7659" lon="0.14863">
        <ele>2563.49</ele>
        <time>2019-03-30T08:44:45Z</time>
      </trkpt>
      <trkpt lat="42.76589" lon="0.14862">
        <ele>2564.45</ele>
        <time>2019-03-30T08:44:51Z</time>
      </trkpt>
      <trkpt lat="42.76589" lon="0.14861">
        <ele>2565.9</ele>
        <time>2019-03-30T08:44:58Z</time>
      </trkpt>
      <trkpt lat="42.76588" lon="0.1486">
        <ele>2565.9</ele>
        <time>2019-03-30T08:45:08Z</time>
      </trkpt>
      <trkpt lat="42.76588" lon="0.1486">
        <ele>2566.38</ele>
        <time>2019-03-30T08:45:19Z</time>
      </trkpt>
      <trkpt lat="42.76589" lon="0.1486">
        <ele>2566.38</ele>
        <time>2019-03-30T08:45:39Z</time>
      </trkpt>
      <trkpt lat="42.76588" lon="0.14859">
        <ele>2566.38</ele>
        <time>2019-03-30T08:45:49Z</time>
      </trkpt>
      <trkpt lat="42.76587" lon="0.14858">
        <ele>2567.34</ele>
        <time>2019-03-30T08:45:55Z</time>
      </trkpt>
      <trkpt lat="42.76586" lon="0.14855">
        <ele>2568.78</ele>
        <time>2019-03-30T08:46:04Z</time>
      </trkpt>
      <trkpt lat="42.76585" lon="0.14854">
        <ele>2570.22</ele>
        <time>2019-03-30T08:46:12Z</time>
      </trkpt>
      <trkpt lat="42.76584" lon="0.14853">
        <ele>2571.18</ele>
        <time>2019-03-30T08:46:20Z</time>
      </trkpt>
      <trkpt lat="42.76584" lon="0.14852">
        <ele>2572.14</ele>
        <time>2019-03-30T08:46:30Z</time>
      </trkpt>
      <trkpt lat="42.76584" lon="0.14851">
        <ele>2573.59</ele>
        <time>2019-03-30T08:46:38Z</time>
      </trkpt>
      <trkpt lat="42.76583" lon="0.14849">
        <ele>2574.07</ele>
        <time>2019-03-30T08:46:46Z</time>
      </trkpt>
      <trkpt lat="42.76583" lon="0.14849">
        <ele>2574.07</ele>
        <time>2019-03-30T08:47:02Z</time>
      </trkpt>
      <trkpt lat="42.76582" lon="0.14847">
        <ele>2575.03</ele>
        <time>2019-03-30T08:47:09Z</time>
      </trkpt>
      <trkpt lat="42.7658" lon="0.14845">
        <ele>2575.99</ele>
        <time>2019-03-30T08:47:17Z</time>
      </trkpt>
      <trkpt lat="42.76579" lon="0.14842">
        <ele>2576.95</ele>
        <time>2019-03-30T08:47:23Z</time>
      </trkpt>
      <trkpt lat="42.76578" lon="0.1484">
        <ele>2578.39</ele>
        <time>2019-03-30T08:47:32Z</time>
      </trkpt>
      <trkpt lat="42.76577" lon="0.14838">
        <ele>2578.87</ele>
        <time>2019-03-30T08:47:38Z</time>
      </trkpt>
      <trkpt lat="42.76575" lon="0.14837">
        <ele>2580.32</ele>
        <time>2019-03-30T08:47:45Z</time>
      </trkpt>
      <trkpt lat="42.76574" lon="0.14836">
        <ele>2581.76</ele>
        <time>2019-03-30T08:47:54Z</time>
      </trkpt>
      <trkpt lat="42.76572" lon="0.14835">
        <ele>2581.76</ele>
        <time>2019-03-30T08:48:03Z</time>
      </trkpt>
      <trkpt lat="42.76571" lon="0.14835">
        <ele>2582.24</ele>
        <time>2019-03-30T08:48:09Z</time>
      </trkpt>
      <trkpt lat="42.7657" lon="0.14836">
        <ele>2583.2</ele>
        <time>2019-03-30T08:48:15Z</time>
      </trkpt>
      <trkpt lat="42.76568" lon="0.14834">
        <ele>2584.16</ele>
        <time>2019-03-30T08:48:23Z</time>
      </trkpt>
      <trkpt lat="42.76567" lon="0.14833">
        <ele>2585.12</ele>
        <time>2019-03-30T08:48:32Z</time>
      </trkpt>
      <trkpt lat="42.76565" lon="0.14831">
        <ele>2586.08</ele>
        <time>2019-03-30T08:48:39Z</time>
      </trkpt>
      <trkpt lat="42.76564" lon="0.14829">
        <ele>2587.04</ele>
        <time>2019-03-30T08:48:47Z</time>
      </trkpt>
      <trkpt lat="42.76563" lon="0.14828">
        <ele>2588.01</ele>
        <time>2019-03-30T08:48:54Z</time>
      </trkpt>
      <trkpt lat="42.76563" lon="0.14827">
        <ele>2588.97</ele>
        <time>2019-03-30T08:49:02Z</time>
      </trkpt>
      <trkpt lat="42.76562" lon="0.14825">
        <ele>2589.45</ele>
        <time>2019-03-30T08:49:09Z</time>
      </trkpt>
      <trkpt lat="42.76561" lon="0.14825">
        <ele>2589.93</ele>
        <time>2019-03-30T08:49:22Z</time>
      </trkpt>
      <trkpt lat="42.7656" lon="0.14823">
        <ele>2590.89</ele>
        <time>2019-03-30T08:49:31Z</time>
      </trkpt>
      <trkpt lat="42.7656" lon="0.14822">
        <ele>2591.37</ele>
        <time>2019-03-30T08:49:37Z</time>
      </trkpt>
      <trkpt lat="42.7656" lon="0.14819">
        <ele>2592.81</ele>
        <time>2019-03-30T08:49:47Z</time>
      </trkpt>
      <trkpt lat="42.7656" lon="0.14818">
        <ele>2593.29</ele>
        <time>2019-03-30T08:49:56Z</time>
      </trkpt>
      <trkpt lat="42.76559" lon="0.14817">
        <ele>2592.81</ele>
        <time>2019-03-30T08:50:05Z</time>
      </trkpt>
      <trkpt lat="42.76557" lon="0.14814">
        <ele>2594.25</ele>
        <time>2019-03-30T08:50:11Z</time>
      </trkpt>
      <trkpt lat="42.76558" lon="0.14811">
        <ele>2595.22</ele>
        <time>2019-03-30T08:50:18Z</time>
      </trkpt>
      <trkpt lat="42.76556" lon="0.14809">
        <ele>2596.18</ele>
        <time>2019-03-30T08:50:26Z</time>
      </trkpt>
      <trkpt lat="42.76555" lon="0.14806">
        <ele>2597.14</ele>
        <time>2019-03-30T08:50:34Z</time>
      </trkpt>
      <trkpt lat="42.76554" lon="0.14804">
        <ele>2598.1</ele>
        <time>2019-03-30T08:50:40Z</time>
      </trkpt>
      <trkpt lat="42.76554" lon="0.14804">
        <ele>2599.54</ele>
        <time>2019-03-30T08:50:48Z</time>
      </trkpt>
      <trkpt lat="42.76553" lon="0.14802">
        <ele>2600.02</ele>
        <time>2019-03-30T08:50:57Z</time>
      </trkpt>
      <trkpt lat="42.76551" lon="0.148">
        <ele>2600.5</ele>
        <time>2019-03-30T08:51:04Z</time>
      </trkpt>
      <trkpt lat="42.7655" lon="0.14799">
        <ele>2601.46</ele>
        <time>2019-03-30T08:51:12Z</time>
      </trkpt>
      <trkpt lat="42.76551" lon="0.14797">
        <ele>2602.43</ele>
        <time>2019-03-30T08:51:19Z</time>
      </trkpt>
      <trkpt lat="42.76551" lon="0.14795">
        <ele>2603.39</ele>
        <time>2019-03-30T08:51:26Z</time>
      </trkpt>
      <trkpt lat="42.76549" lon="0.14792">
        <ele>2604.35</ele>
        <time>2019-03-30T08:51:35Z</time>
      </trkpt>
      <trkpt lat="42.76548" lon="0.1479">
        <ele>2605.31</ele>
        <time>2019-03-30T08:51:44Z</time>
      </trkpt>
      <trkpt lat="42.76545" lon="0.1479">
        <ele>2605.79</ele>
        <time>2019-03-30T08:51:51Z</time>
      </trkpt>
      <trkpt lat="42.76544" lon="0.14789">
        <ele>2606.27</ele>
        <time>2019-03-30T08:51:58Z</time>
      </trkpt>
      <trkpt lat="42.76542" lon="0.14788">
        <ele>2606.75</ele>
        <time>2019-03-30T08:52:06Z</time>
      </trkpt>
      <trkpt lat="42.76541" lon="0.14785">
        <ele>2607.71</ele>
        <time>2019-03-30T08:52:12Z</time>
      </trkpt>
      <trkpt lat="42.76539" lon="0.14784">
        <ele>2608.67</ele>
        <time>2019-03-30T08:52:19Z</time>
      </trkpt>
      <trkpt lat="42.76538" lon="0.14783">
        <ele>2609.16</ele>
        <time>2019-03-30T08:52:26Z</time>
      </trkpt>
      <trkpt lat="42.76539" lon="0.14782">
        <ele>2610.6</ele>
        <time>2019-03-30T08:52:35Z</time>
      </trkpt>
      <trkpt lat="42.76539" lon="0.1478">
        <ele>2611.08</ele>
        <time>2019-03-30T08:52:42Z</time>
      </trkpt>
      <trkpt lat="42.7654" lon="0.14778">
        <ele>2612.04</ele>
        <time>2019-03-30T08:52:48Z</time>
      </trkpt>
      <trkpt lat="42.76539" lon="0.14778">
        <ele>2612.52</ele>
        <time>2019-03-30T08:52:57Z</time>
      </trkpt>
      <trkpt lat="42.7654" lon="0.14776">
        <ele>2613.96</ele>
        <time>2019-03-30T08:53:05Z</time>
      </trkpt>
      <trkpt lat="42.76539" lon="0.14774">
        <ele>2614.92</ele>
        <time>2019-03-30T08:53:13Z</time>
      </trkpt>
      <trkpt lat="42.76538" lon="0.14773">
        <ele>2616.37</ele>
        <time>2019-03-30T08:53:22Z</time>
      </trkpt>
      <trkpt lat="42.76537" lon="0.14772">
        <ele>2616.85</ele>
        <time>2019-03-30T08:53:30Z</time>
      </trkpt>
      <trkpt lat="42.76536" lon="0.14771">
        <ele>2617.81</ele>
        <time>2019-03-30T08:53:37Z</time>
      </trkpt>
      <trkpt lat="42.76535" lon="0.14769">
        <ele>2618.29</ele>
        <time>2019-03-30T08:53:44Z</time>
      </trkpt>
      <trkpt lat="42.76534" lon="0.14769">
        <ele>2619.25</ele>
        <time>2019-03-30T08:53:52Z</time>
      </trkpt>
      <trkpt lat="42.76534" lon="0.14768">
        <ele>2619.73</ele>
        <time>2019-03-30T08:54:02Z</time>
      </trkpt>
      <trkpt lat="42.76534" lon="0.14767">
        <ele>2620.69</ele>
        <time>2019-03-30T08:54:11Z</time>
      </trkpt>
      <trkpt lat="42.76534" lon="0.14766">
        <ele>2621.65</ele>
        <time>2019-03-30T08:54:19Z</time>
      </trkpt>
      <trkpt lat="42.76534" lon="0.14766">
        <ele>2622.13</ele>
        <time>2019-03-30T08:54:35Z</time>
      </trkpt>
      <trkpt lat="42.76534" lon="0.14765">
        <ele>2623.09</ele>
        <time>2019-03-30T08:54:44Z</time>
      </trkpt>
      <trkpt lat="42.76535" lon="0.14765">
        <ele>2623.58</ele>
        <time>2019-03-30T08:54:54Z</time>
      </trkpt>
      <trkpt lat="42.76535" lon="0.14764">
        <ele>2623.58</ele>
        <time>2019-03-30T08:55:04Z</time>
      </trkpt>
      <trkpt lat="42.76535" lon="0.14763">
        <ele>2624.54</ele>
        <time>2019-03-30T08:55:12Z</time>
      </trkpt>
      <trkpt lat="42.76535" lon="0.14763">
        <ele>2624.54</ele>
        <time>2019-03-30T08:55:29Z</time>
      </trkpt>
      <trkpt lat="42.76535" lon="0.14761">
        <ele>2624.54</ele>
        <time>2019-03-30T08:55:42Z</time>
      </trkpt>
      <trkpt lat="42.76535" lon="0.14761">
        <ele>2624.54</ele>
        <time>2019-03-30T08:55:50Z</time>
      </trkpt>
      <trkpt lat="42.76534" lon="0.14759">
        <ele>2625.5</ele>
        <time>2019-03-30T08:55:58Z</time>
      </trkpt>
      <trkpt lat="42.76534" lon="0.14758">
        <ele>2625.98</ele>
        <time>2019-03-30T08:56:05Z</time>
      </trkpt>
      <trkpt lat="42.76534" lon="0.14757">
        <ele>2626.46</ele>
        <time>2019-03-30T08:56:14Z</time>
      </trkpt>
      <trkpt lat="42.76534" lon="0.14757">
        <ele>2626.46</ele>
        <time>2019-03-30T08:56:24Z</time>
      </trkpt>
      <trkpt lat="42.76533" lon="0.14756">
        <ele>2627.42</ele>
        <time>2019-03-30T08:56:32Z</time>
      </trkpt>
      <trkpt lat="42.76532" lon="0.14755">
        <ele>2627.42</ele>
        <time>2019-03-30T08:56:43Z</time>
      </trkpt>
      <trkpt lat="42.76532" lon="0.14754">
        <ele>2628.38</ele>
        <time>2019-03-30T08:56:50Z</time>
      </trkpt>
      <trkpt lat="42.76533" lon="0.14753">
        <ele>2628.86</ele>
        <time>2019-03-30T08:56:58Z</time>
      </trkpt>
      <trkpt lat="42.76532" lon="0.14752">
        <ele>2630.3</ele>
        <time>2019-03-30T08:57:08Z</time>
      </trkpt>
      <trkpt lat="42.76532" lon="0.14752">
        <ele>2630.3</ele>
        <time>2019-03-30T08:57:15Z</time>
      </trkpt>
      <trkpt lat="42.76532" lon="0.14751">
        <ele>2631.27</ele>
        <time>2019-03-30T08:57:20Z</time>
      </trkpt>
      <trkpt lat="42.76532" lon="0.14749">
        <ele>2631.27</ele>
        <time>2019-03-30T08:57:28Z</time>
      </trkpt>
      <trkpt lat="42.76532" lon="0.14748">
        <ele>2631.75</ele>
        <time>2019-03-30T08:57:37Z</time>
      </trkpt>
      <trkpt lat="42.76531" lon="0.14748">
        <ele>2633.19</ele>
        <time>2019-03-30T08:57:44Z</time>
      </trkpt>
      <trkpt lat="42.76531" lon="0.14748">
        <ele>2633.19</ele>
        <time>2019-03-30T08:57:45Z</time>
      </trkpt>
      <trkpt lat="42.76531" lon="0.14747">
        <ele>2633.67</ele>
        <time>2019-03-30T08:57:53Z</time>
      </trkpt>
      <trkpt lat="42.76531" lon="0.14747">
        <ele>2633.67</ele>
        <time>2019-03-30T08:58:04Z</time>
      </trkpt>
      <trkpt lat="42.7653" lon="0.14745">
        <ele>2633.67</ele>
        <time>2019-03-30T08:58:14Z</time>
      </trkpt>
      <trkpt lat="42.76529" lon="0.14744">
        <ele>2634.63</ele>
        <time>2019-03-30T08:58:20Z</time>
      </trkpt>
      <trkpt lat="42.76527" lon="0.14743">
        <ele>2636.07</ele>
        <time>2019-03-30T08:58:28Z</time>
      </trkpt>
      <trkpt lat="42.76526" lon="0.14742">
        <ele>2636.07</ele>
        <time>2019-03-30T08:58:36Z</time>
      </trkpt>
      <trkpt lat="42.76526" lon="0.14741">
        <ele>2637.03</ele>
        <time>2019-03-30T08:58:46Z</time>
      </trkpt>
      <trkpt lat="42.76525" lon="0.14741">
        <ele>2637.51</ele>
        <time>2019-03-30T08:58:56Z</time>
      </trkpt>
      <trkpt lat="42.76525" lon="0.1474">
        <ele>2638.48</ele>
        <time>2019-03-30T08:59:05Z</time>
      </trkpt>
      <trkpt lat="42.76525" lon="0.14739">
        <ele>2638.96</ele>
        <time>2019-03-30T08:59:16Z</time>
      </trkpt>
      <trkpt lat="42.76525" lon="0.14739">
        <ele>2639.44</ele>
        <time>2019-03-30T08:59:25Z</time>
      </trkpt>
      <trkpt lat="42.76525" lon="0.14738">
        <ele>2639.92</ele>
        <time>2019-03-30T08:59:37Z</time>
      </trkpt>
      <trkpt lat="42.76525" lon="0.14737">
        <ele>2639.92</ele>
        <time>2019-03-30T08:59:46Z</time>
      </trkpt>
      <trkpt lat="42.76525" lon="0.14737">
        <ele>2640.88</ele>
        <time>2019-03-30T08:59:54Z</time>
      </trkpt>
      <trkpt lat="42.76525" lon="0.14736">
        <ele>2641.36</ele>
        <time>2019-03-30T09:00:03Z</time>
      </trkpt>
      <trkpt lat="42.76525" lon="0.14735">
        <ele>2641.84</ele>
        <time>2019-03-30T09:00:11Z</time>
      </trkpt>
      <trkpt lat="42.76525" lon="0.14734">
        <ele>2642.32</ele>
        <time>2019-03-30T09:00:18Z</time>
      </trkpt>
      <trkpt lat="42.76525" lon="0.14733">
        <ele>2643.28</ele>
        <time>2019-03-30T09:00:27Z</time>
      </trkpt>
      <trkpt lat="42.76525" lon="0.14732">
        <ele>2643.28</ele>
        <time>2019-03-30T09:00:35Z</time>
      </trkpt>
      <trkpt lat="42.76525" lon="0.14732">
        <ele>2643.76</ele>
        <time>2019-03-30T09:00:46Z</time>
      </trkpt>
      <trkpt lat="42.76525" lon="0.14731">
        <ele>2644.72</ele>
        <time>2019-03-30T09:00:56Z</time>
      </trkpt>
      <trkpt lat="42.76525" lon="0.1473">
        <ele>2645.21</ele>
        <time>2019-03-30T09:01:04Z</time>
      </trkpt>
      <trkpt lat="42.76524" lon="0.14729">
        <ele>2646.17</ele>
        <time>2019-03-30T09:01:11Z</time>
      </trkpt>
      <trkpt lat="42.76525" lon="0.14728">
        <ele>2646.17</ele>
        <time>2019-03-30T09:01:23Z</time>
      </trkpt>
      <trkpt lat="42.76525" lon="0.14727">
        <ele>2646.65</ele>
        <time>2019-03-30T09:01:37Z</time>
      </trkpt>
      <trkpt lat="42.76524" lon="0.14726">
        <ele>2647.13</ele>
        <time>2019-03-30T09:01:48Z</time>
      </trkpt>
      <trkpt lat="42.76524" lon="0.14726">
        <ele>2648.09</ele>
        <time>2019-03-30T09:01:58Z</time>
      </trkpt>
      <trkpt lat="42.76524" lon="0.14727">
        <ele>2648.09</ele>
        <time>2019-03-30T09:02:14Z</time>
      </trkpt>
      <trkpt lat="42.76524" lon="0.14727">
        <ele>2648.09</ele>
        <time>2019-03-30T09:02:28Z</time>
      </trkpt>
      <trkpt lat="42.76524" lon="0.14727">
        <ele>2647.61</ele>
        <time>2019-03-30T09:02:43Z</time>
      </trkpt>
      <trkpt lat="42.76524" lon="0.14727">
        <ele>2648.09</ele>
        <time>2019-03-30T09:03:01Z</time>
      </trkpt>
      <trkpt lat="42.76524" lon="0.14727">
        <ele>2648.09</ele>
        <time>2019-03-30T09:03:18Z</time>
      </trkpt>
      <trkpt lat="42.76524" lon="0.14727">
        <ele>2648.09</ele>
        <time>2019-03-30T09:03:33Z</time>
      </trkpt>
      <trkpt lat="42.76524" lon="0.14727">
        <ele>2648.57</ele>
        <time>2019-03-30T09:03:48Z</time>
      </trkpt>
      <trkpt lat="42.76524" lon="0.14728">
        <ele>2648.09</ele>
        <time>2019-03-30T09:04:05Z</time>
      </trkpt>
      <trkpt lat="42.76524" lon="0.14728">
        <ele>2647.61</ele>
        <time>2019-03-30T09:04:18Z</time>
      </trkpt>
      <trkpt lat="42.76524" lon="0.14727">
        <ele>2650.01</ele>
        <time>2019-03-30T09:04:29Z</time>
      </trkpt>
      <trkpt lat="42.76524" lon="0.14726">
        <ele>2649.53</ele>
        <time>2019-03-30T09:04:38Z</time>
      </trkpt>
      <trkpt lat="42.76524" lon="0.14725">
        <ele>2650.49</ele>
        <time>2019-03-30T09:04:48Z</time>
      </trkpt>
      <trkpt lat="42.76523" lon="0.14725">
        <ele>2650.49</ele>
        <time>2019-03-30T09:04:58Z</time>
      </trkpt>
      <trkpt lat="42.76523" lon="0.14724">
        <ele>2651.45</ele>
        <time>2019-03-30T09:05:07Z</time>
      </trkpt>
      <trkpt lat="42.76523" lon="0.14724">
        <ele>2652.42</ele>
        <time>2019-03-30T09:05:19Z</time>
      </trkpt>
      <trkpt lat="42.76522" lon="0.14723">
        <ele>2652.9</ele>
        <time>2019-03-30T09:05:30Z</time>
      </trkpt>
      <trkpt lat="42.76522" lon="0.14723">
        <ele>2652.9</ele>
        <time>2019-03-30T09:05:46Z</time>
      </trkpt>
      <trkpt lat="42.76522" lon="0.14722">
        <ele>2653.38</ele>
        <time>2019-03-30T09:05:53Z</time>
      </trkpt>
      <trkpt lat="42.76521" lon="0.14722">
        <ele>2653.86</ele>
        <time>2019-03-30T09:06:00Z</time>
      </trkpt>
      <trkpt lat="42.7652" lon="0.14721">
        <ele>2654.34</ele>
        <time>2019-03-30T09:06:07Z</time>
      </trkpt>
      <trkpt lat="42.76519" lon="0.1472">
        <ele>2654.82</ele>
        <time>2019-03-30T09:06:15Z</time>
      </trkpt>
      <trkpt lat="42.76518" lon="0.1472">
        <ele>2655.78</ele>
        <time>2019-03-30T09:06:23Z</time>
      </trkpt>
      <trkpt lat="42.76518" lon="0.14719">
        <ele>2656.74</ele>
        <time>2019-03-30T09:06:30Z</time>
      </trkpt>
      <trkpt lat="42.76519" lon="0.14719">
        <ele>2657.22</ele>
        <time>2019-03-30T09:06:39Z</time>
      </trkpt>
      <trkpt lat="42.76519" lon="0.14719">
        <ele>2657.22</ele>
        <time>2019-03-30T09:06:55Z</time>
      </trkpt>
      <trkpt lat="42.76519" lon="0.14718">
        <ele>2657.7</ele>
        <time>2019-03-30T09:07:08Z</time>
      </trkpt>
      <trkpt lat="42.76519" lon="0.14718">
        <ele>2657.22</ele>
        <time>2019-03-30T09:07:26Z</time>
      </trkpt>
      <trkpt lat="42.7652" lon="0.14718">
        <ele>2657.22</ele>
        <time>2019-03-30T09:07:43Z</time>
      </trkpt>
      <trkpt lat="42.7652" lon="0.14717">
        <ele>2658.18</ele>
        <time>2019-03-30T09:07:51Z</time>
      </trkpt>
      <trkpt lat="42.7652" lon="0.14716">
        <ele>2658.18</ele>
        <time>2019-03-30T09:08:08Z</time>
      </trkpt>
      <trkpt lat="42.76519" lon="0.14715">
        <ele>2658.18</ele>
        <time>2019-03-30T09:08:16Z</time>
      </trkpt>
      <trkpt lat="42.76519" lon="0.14715">
        <ele>2658.66</ele>
        <time>2019-03-30T09:08:25Z</time>
      </trkpt>
      <trkpt lat="42.76517" lon="0.14715">
        <ele>2660.11</ele>
        <time>2019-03-30T09:08:34Z</time>
      </trkpt>
      <trkpt lat="42.76513" lon="0.14713">
        <ele>2661.55</ele>
        <time>2019-03-30T09:08:41Z</time>
      </trkpt>
      <trkpt lat="42.76512" lon="0.14713">
        <ele>2662.51</ele>
        <time>2019-03-30T09:08:48Z</time>
      </trkpt>
      <trkpt lat="42.76511" lon="0.14713">
        <ele>2663.47</ele>
        <time>2019-03-30T09:08:56Z</time>
      </trkpt>
      <trkpt lat="42.7651" lon="0.14713">
        <ele>2663.95</ele>
        <time>2019-03-30T09:09:03Z</time>
      </trkpt>
      <trkpt lat="42.76508" lon="0.14713">
        <ele>2665.39</ele>
        <time>2019-03-30T09:09:11Z</time>
      </trkpt>
      <trkpt lat="42.76507" lon="0.14712">
        <ele>2665.87</ele>
        <time>2019-03-30T09:09:18Z</time>
      </trkpt>
      <trkpt lat="42.76504" lon="0.14712">
        <ele>2667.31</ele>
        <time>2019-03-30T09:09:25Z</time>
      </trkpt>
      <trkpt lat="42.76502" lon="0.14711">
        <ele>2668.28</ele>
        <time>2019-03-30T09:09:34Z</time>
      </trkpt>
      <trkpt lat="42.765" lon="0.14711">
        <ele>2669.72</ele>
        <time>2019-03-30T09:09:42Z</time>
      </trkpt>
      <trkpt lat="42.76497" lon="0.1471">
        <ele>2671.16</ele>
        <time>2019-03-30T09:09:50Z</time>
      </trkpt>
      <trkpt lat="42.76493" lon="0.14713">
        <ele>2672.12</ele>
        <time>2019-03-30T09:09:58Z</time>
      </trkpt>
      <trkpt lat="42.76491" lon="0.14712">
        <ele>2672.6</ele>
        <time>2019-03-30T09:10:05Z</time>
      </trkpt>
      <trkpt lat="42.76487" lon="0.14712">
        <ele>2674.04</ele>
        <time>2019-03-30T09:10:14Z</time>
      </trkpt>
      <trkpt lat="42.76483" lon="0.14712">
        <ele>2675.01</ele>
        <time>2019-03-30T09:10:21Z</time>
      </trkpt>
      <trkpt lat="42.7648" lon="0.14711">
        <ele>2675.97</ele>
        <time>2019-03-30T09:10:27Z</time>
      </trkpt>
      <trkpt lat="42.76477" lon="0.14711">
        <ele>2677.41</ele>
        <time>2019-03-30T09:10:36Z</time>
      </trkpt>
      <trkpt lat="42.76474" lon="0.14711">
        <ele>2677.41</ele>
        <time>2019-03-30T09:10:43Z</time>
      </trkpt>
      <trkpt lat="42.76472" lon="0.14712">
        <ele>2678.37</ele>
        <time>2019-03-30T09:10:50Z</time>
      </trkpt>
      <trkpt lat="42.76469" lon="0.14714">
        <ele>2677.41</ele>
        <time>2019-03-30T09:10:59Z</time>
      </trkpt>
      <trkpt lat="42.76467" lon="0.14715">
        <ele>2676.93</ele>
        <time>2019-03-30T09:11:06Z</time>
      </trkpt>
      <trkpt lat="42.76465" lon="0.14715">
        <ele>2677.89</ele>
        <time>2019-03-30T09:11:12Z</time>
      </trkpt>
      <trkpt lat="42.76465" lon="0.14716">
        <ele>2676.93</ele>
        <time>2019-03-30T09:11:18Z</time>
      </trkpt>
      <trkpt lat="42.76462" lon="0.14715">
        <ele>2676.45</ele>
        <time>2019-03-30T09:11:25Z</time>
      </trkpt>
      <trkpt lat="42.76461" lon="0.14715">
        <ele>2676.93</ele>
        <time>2019-03-30T09:11:27Z</time>
      </trkpt>
      <trkpt lat="42.76456" lon="0.14718">
        <ele>2676.93</ele>
        <time>2019-03-30T09:11:34Z</time>
      </trkpt>
      <trkpt lat="42.76453" lon="0.14716">
        <ele>2677.41</ele>
        <time>2019-03-30T09:11:40Z</time>
      </trkpt>
      <trkpt lat="42.76449" lon="0.14716">
        <ele>2678.37</ele>
        <time>2019-03-30T09:11:48Z</time>
      </trkpt>
      <trkpt lat="42.76447" lon="0.14717">
        <ele>2678.85</ele>
        <time>2019-03-30T09:11:54Z</time>
      </trkpt>
      <trkpt lat="42.76445" lon="0.14717">
        <ele>2680.29</ele>
        <time>2019-03-30T09:12:01Z</time>
      </trkpt>
      <trkpt lat="42.76441" lon="0.14718">
        <ele>2681.25</ele>
        <time>2019-03-30T09:12:09Z</time>
      </trkpt>
      <trkpt lat="42.76438" lon="0.14718">
        <ele>2681.73</ele>
        <time>2019-03-30T09:12:15Z</time>
      </trkpt>
      <trkpt lat="42.76433" lon="0.1472">
        <ele>2683.18</ele>
        <time>2019-03-30T09:12:23Z</time>
      </trkpt>
      <trkpt lat="42.76429" lon="0.1472">
        <ele>2684.62</ele>
        <time>2019-03-30T09:12:30Z</time>
      </trkpt>
      <trkpt lat="42.76426" lon="0.1472">
        <ele>2684.62</ele>
        <time>2019-03-30T09:12:37Z</time>
      </trkpt>
      <trkpt lat="42.76422" lon="0.14723">
        <ele>2684.62</ele>
        <time>2019-03-30T09:12:45Z</time>
      </trkpt>
      <trkpt lat="42.76418" lon="0.14722">
        <ele>2684.14</ele>
        <time>2019-03-30T09:12:52Z</time>
      </trkpt>
      <trkpt lat="42.76415" lon="0.14723">
        <ele>2684.14</ele>
        <time>2019-03-30T09:12:59Z</time>
      </trkpt>
      <trkpt lat="42.76411" lon="0.14725">
        <ele>2684.62</ele>
        <time>2019-03-30T09:13:07Z</time>
      </trkpt>
      <trkpt lat="42.76406" lon="0.14727">
        <ele>2684.62</ele>
        <time>2019-03-30T09:13:14Z</time>
      </trkpt>
      <trkpt lat="42.76401" lon="0.14726">
        <ele>2685.1</ele>
        <time>2019-03-30T09:13:21Z</time>
      </trkpt>
      <trkpt lat="42.76397" lon="0.14727">
        <ele>2685.58</ele>
        <time>2019-03-30T09:13:29Z</time>
      </trkpt>
      <trkpt lat="42.76394" lon="0.14726">
        <ele>2686.54</ele>
        <time>2019-03-30T09:13:38Z</time>
      </trkpt>
      <trkpt lat="42.76393" lon="0.14727">
        <ele>2686.54</ele>
        <time>2019-03-30T09:13:48Z</time>
      </trkpt>
      <trkpt lat="42.7639" lon="0.14727">
        <ele>2686.06</ele>
        <time>2019-03-30T09:13:57Z</time>
      </trkpt>
      <trkpt lat="42.76386" lon="0.14727">
        <ele>2686.06</ele>
        <time>2019-03-30T09:14:03Z</time>
      </trkpt>
      <trkpt lat="42.7638" lon="0.14728">
        <ele>2685.58</ele>
        <time>2019-03-30T09:14:11Z</time>
      </trkpt>
      <trkpt lat="42.76376" lon="0.14727">
        <ele>2686.06</ele>
        <time>2019-03-30T09:14:19Z</time>
      </trkpt>
      <trkpt lat="42.76375" lon="0.14726">
        <ele>2686.54</ele>
        <time>2019-03-30T09:14:21Z</time>
      </trkpt>
      <trkpt lat="42.76368" lon="0.14726">
        <ele>2687.98</ele>
        <time>2019-03-30T09:14:31Z</time>
      </trkpt>
      <trkpt lat="42.76364" lon="0.14725">
        <ele>2688.94</ele>
        <time>2019-03-30T09:14:39Z</time>
      </trkpt>
      <trkpt lat="42.76363" lon="0.14725">
        <ele>2688.94</ele>
        <time>2019-03-30T09:14:47Z</time>
      </trkpt>
      <trkpt lat="42.76363" lon="0.14725">
        <ele>2689.43</ele>
        <time>2019-03-30T09:15:00Z</time>
      </trkpt>
      <trkpt lat="42.76363" lon="0.14725">
        <ele>2688.94</ele>
        <time>2019-03-30T09:15:10Z</time>
      </trkpt>
      <trkpt lat="42.76362" lon="0.14726">
        <ele>2687.98</ele>
        <time>2019-03-30T09:15:18Z</time>
      </trkpt>
      <trkpt lat="42.76362" lon="0.14725">
        <ele>2689.91</ele>
        <time>2019-03-30T09:15:28Z</time>
      </trkpt>
      <trkpt lat="42.76362" lon="0.14725">
        <ele>2684.14</ele>
        <time>2019-03-30T09:15:34Z</time>
      </trkpt>
      <trkpt lat="42.76362" lon="0.14725">
        <ele>2693.75</ele>
        <time>2019-03-30T09:15:35Z</time>
      </trkpt>
      <trkpt lat="42.76362" lon="0.14725">
        <ele>2688.46</ele>
        <time>2019-03-30T09:15:36Z</time>
      </trkpt>
      <trkpt lat="42.76362" lon="0.14725">
        <ele>2687.5</ele>
        <time>2019-03-30T09:15:46Z</time>
      </trkpt>
      <trkpt lat="42.76362" lon="0.14725">
        <ele>2687.5</ele>
        <time>2019-03-30T09:15:58Z</time>
      </trkpt>
      <trkpt lat="42.76362" lon="0.14725">
        <ele>2687.98</ele>
        <time>2019-03-30T09:16:16Z</time>
      </trkpt>
      <trkpt lat="42.76362" lon="0.14725">
        <ele>2688.46</ele>
        <time>2019-03-30T09:16:38Z</time>
      </trkpt>
      <trkpt lat="42.76363" lon="0.14725">
        <ele>2687.5</ele>
        <time>2019-03-30T09:16:57Z</time>
      </trkpt>
      <trkpt lat="42.76363" lon="0.14725">
        <ele>2687.98</ele>
        <time>2019-03-30T09:17:11Z</time>
      </trkpt>
      <trkpt lat="42.76363" lon="0.14725">
        <ele>2687.98</ele>
        <time>2019-03-30T09:17:30Z</time>
      </trkpt>
      <trkpt lat="42.76363" lon="0.14726">
        <ele>2687.98</ele>
        <time>2019-03-30T09:17:50Z</time>
      </trkpt>
      <trkpt lat="42.76363" lon="0.14726">
        <ele>2687.98</ele>
        <time>2019-03-30T09:18:08Z</time>
      </trkpt>
      <trkpt lat="42.76363" lon="0.14726">
        <ele>2687.98</ele>
        <time>2019-03-30T09:18:23Z</time>
      </trkpt>
      <trkpt lat="42.76363" lon="0.14726">
        <ele>2687.98</ele>
        <time>2019-03-30T09:18:43Z</time>
      </trkpt>
      <trkpt lat="42.76364" lon="0.14726">
        <ele>2687.98</ele>
        <time>2019-03-30T09:19:05Z</time>
      </trkpt>
      <trkpt lat="42.76364" lon="0.14726">
        <ele>2687.98</ele>
        <time>2019-03-30T09:19:24Z</time>
      </trkpt>
      <trkpt lat="42.76364" lon="0.14726">
        <ele>2687.5</ele>
        <time>2019-03-30T09:19:43Z</time>
      </trkpt>
      <trkpt lat="42.76363" lon="0.14726">
        <ele>2687.98</ele>
        <time>2019-03-30T09:20:01Z</time>
      </trkpt>
      <trkpt lat="42.76364" lon="0.14726">
        <ele>2687.98</ele>
        <time>2019-03-30T09:20:18Z</time>
      </trkpt>
      <trkpt lat="42.76364" lon="0.14726">
        <ele>2687.98</ele>
        <time>2019-03-30T09:20:35Z</time>
      </trkpt>
      <trkpt lat="42.76364" lon="0.14726">
        <ele>2687.98</ele>
        <time>2019-03-30T09:20:48Z</time>
      </trkpt>
      <trkpt lat="42.76364" lon="0.14726">
        <ele>2687.98</ele>
        <time>2019-03-30T09:21:07Z</time>
      </trkpt>
      <trkpt lat="42.76364" lon="0.14726">
        <ele>2687.98</ele>
        <time>2019-03-30T09:21:29Z</time>
      </trkpt>
      <trkpt lat="42.76364" lon="0.14726">
        <ele>2687.98</ele>
        <time>2019-03-30T09:21:51Z</time>
      </trkpt>
      <trkpt lat="42.76364" lon="0.14726">
        <ele>2687.98</ele>
        <time>2019-03-30T09:22:11Z</time>
      </trkpt>
      <trkpt lat="42.76364" lon="0.14726">
        <ele>2688.46</ele>
        <time>2019-03-30T09:22:33Z</time>
      </trkpt>
      <trkpt lat="42.76363" lon="0.14726">
        <ele>2688.94</ele>
        <time>2019-03-30T09:22:52Z</time>
      </trkpt>
      <trkpt lat="42.76363" lon="0.14726">
        <ele>2688.94</ele>
        <time>2019-03-30T09:23:14Z</time>
      </trkpt>
      <trkpt lat="42.76363" lon="0.14726">
        <ele>2688.94</ele>
        <time>2019-03-30T09:23:38Z</time>
      </trkpt>
      <trkpt lat="42.76363" lon="0.14726">
        <ele>2689.43</ele>
        <time>2019-03-30T09:23:59Z</time>
      </trkpt>
      <trkpt lat="42.76363" lon="0.14725">
        <ele>2688.94</ele>
        <time>2019-03-30T09:24:19Z</time>
      </trkpt>
      <trkpt lat="42.76363" lon="0.14725">
        <ele>2689.43</ele>
        <time>2019-03-30T09:24:41Z</time>
      </trkpt>
      <trkpt lat="42.76362" lon="0.14725">
        <ele>2688.46</ele>
        <time>2019-03-30T09:25:03Z</time>
      </trkpt>
      <trkpt lat="42.76362" lon="0.14725">
        <ele>2688.46</ele>
        <time>2019-03-30T09:25:25Z</time>
      </trkpt>
      <trkpt lat="42.76362" lon="0.14725">
        <ele>2688.46</ele>
        <time>2019-03-30T09:25:46Z</time>
      </trkpt>
      <trkpt lat="42.76362" lon="0.14725">
        <ele>2688.46</ele>
        <time>2019-03-30T09:26:03Z</time>
      </trkpt>
      <trkpt lat="42.76362" lon="0.14724">
        <ele>2688.46</ele>
        <time>2019-03-30T09:26:19Z</time>
      </trkpt>
      <trkpt lat="42.76362" lon="0.14724">
        <ele>2688.46</ele>
        <time>2019-03-30T09:26:38Z</time>
      </trkpt>
      <trkpt lat="42.76362" lon="0.14724">
        <ele>2688.46</ele>
        <time>2019-03-30T09:26:51Z</time>
      </trkpt>
      <trkpt lat="42.76362" lon="0.14724">
        <ele>2688.46</ele>
        <time>2019-03-30T09:27:06Z</time>
      </trkpt>
      <trkpt lat="42.76362" lon="0.14724">
        <ele>2688.46</ele>
        <time>2019-03-30T09:27:26Z</time>
      </trkpt>
      <trkpt lat="42.76362" lon="0.14725">
        <ele>2688.46</ele>
        <time>2019-03-30T09:27:53Z</time>
      </trkpt>
      <trkpt lat="42.76362" lon="0.14725">
        <ele>2688.46</ele>
        <time>2019-03-30T09:28:13Z</time>
      </trkpt>
      <trkpt lat="42.76362" lon="0.14725">
        <ele>2688.46</ele>
        <time>2019-03-30T09:28:36Z</time>
      </trkpt>
      <trkpt lat="42.76362" lon="0.14725">
        <ele>2688.46</ele>
        <time>2019-03-30T09:28:56Z</time>
      </trkpt>
      <trkpt lat="42.76362" lon="0.14725">
        <ele>2688.94</ele>
        <time>2019-03-30T09:29:15Z</time>
      </trkpt>
      <trkpt lat="42.76362" lon="0.14725">
        <ele>2688.46</ele>
        <time>2019-03-30T09:29:39Z</time>
      </trkpt>
      <trkpt lat="42.76362" lon="0.14725">
        <ele>2688.46</ele>
        <time>2019-03-30T09:30:00Z</time>
      </trkpt>
      <trkpt lat="42.76362" lon="0.14725">
        <ele>2688.46</ele>
        <time>2019-03-30T09:30:21Z</time>
      </trkpt>
      <trkpt lat="42.76362" lon="0.14725">
        <ele>2688.94</ele>
        <time>2019-03-30T09:30:41Z</time>
      </trkpt>
      <trkpt lat="42.76362" lon="0.14724">
        <ele>2688.94</ele>
        <time>2019-03-30T09:31:03Z</time>
      </trkpt>
      <trkpt lat="42.76362" lon="0.14724">
        <ele>2688.94</ele>
        <time>2019-03-30T09:31:25Z</time>
      </trkpt>
      <trkpt lat="42.76362" lon="0.14724">
        <ele>2688.94</ele>
        <time>2019-03-30T09:31:48Z</time>
      </trkpt>
      <trkpt lat="42.76362" lon="0.14724">
        <ele>2688.94</ele>
        <time>2019-03-30T09:32:10Z</time>
      </trkpt>
      <trkpt lat="42.76362" lon="0.14725">
        <ele>2688.94</ele>
        <time>2019-03-30T09:32:28Z</time>
      </trkpt>
      <trkpt lat="42.76362" lon="0.14725">
        <ele>2688.94</ele>
        <time>2019-03-30T09:32:42Z</time>
      </trkpt>
      <trkpt lat="42.76362" lon="0.14725">
        <ele>2688.94</ele>
        <time>2019-03-30T09:32:58Z</time>
      </trkpt>
      <trkpt lat="42.76362" lon="0.14725">
        <ele>2689.43</ele>
        <time>2019-03-30T09:33:14Z</time>
      </trkpt>
      <trkpt lat="42.76362" lon="0.14725">
        <ele>2689.91</ele>
        <time>2019-03-30T09:33:32Z</time>
      </trkpt>
      <trkpt lat="42.76362" lon="0.14725">
        <ele>2689.43</ele>
        <time>2019-03-30T09:33:53Z</time>
      </trkpt>
      <trkpt lat="42.76362" lon="0.14725">
        <ele>2689.43</ele>
        <time>2019-03-30T09:34:08Z</time>
      </trkpt>
      <trkpt lat="42.76362" lon="0.14725">
        <ele>2689.43</ele>
        <time>2019-03-30T09:34:27Z</time>
      </trkpt>
      <trkpt lat="42.76363" lon="0.14725">
        <ele>2689.43</ele>
        <time>2019-03-30T09:34:48Z</time>
      </trkpt>
      <trkpt lat="42.76363" lon="0.14725">
        <ele>2689.43</ele>
        <time>2019-03-30T09:35:09Z</time>
      </trkpt>
      <trkpt lat="42.76363" lon="0.14725">
        <ele>2689.91</ele>
        <time>2019-03-30T09:35:33Z</time>
      </trkpt>
      <trkpt lat="42.76363" lon="0.14725">
        <ele>2689.91</ele>
        <time>2019-03-30T09:35:48Z</time>
      </trkpt>
      <trkpt lat="42.76362" lon="0.14724">
        <ele>2689.91</ele>
        <time>2019-03-30T09:36:06Z</time>
      </trkpt>
      <trkpt lat="42.76362" lon="0.14725">
        <ele>2689.91</ele>
        <time>2019-03-30T09:36:26Z</time>
      </trkpt>
      <trkpt lat="42.76362" lon="0.14725">
        <ele>2689.91</ele>
        <time>2019-03-30T09:36:39Z</time>
      </trkpt>
      <trkpt lat="42.76362" lon="0.14724">
        <ele>2689.91</ele>
        <time>2019-03-30T09:36:57Z</time>
      </trkpt>
      <trkpt lat="42.76362" lon="0.14725">
        <ele>2690.39</ele>
        <time>2019-03-30T09:37:15Z</time>
      </trkpt>
      <trkpt lat="42.76363" lon="0.14724">
        <ele>2689.91</ele>
        <time>2019-03-30T09:37:32Z</time>
      </trkpt>
      <trkpt lat="42.76363" lon="0.14724">
        <ele>2690.87</ele>
        <time>2019-03-30T09:37:46Z</time>
      </trkpt>
      <trkpt lat="42.76362" lon="0.14724">
        <ele>2691.35</ele>
        <time>2019-03-30T09:37:51Z</time>
      </trkpt>
      <trkpt lat="42.76362" lon="0.14724">
        <ele>2691.35</ele>
        <time>2019-03-30T09:38:00Z</time>
      </trkpt>
      <trkpt lat="42.76361" lon="0.14724">
        <ele>2691.35</ele>
        <time>2019-03-30T09:38:10Z</time>
      </trkpt>
      <trkpt lat="42.76362" lon="0.14723">
        <ele>2690.87</ele>
        <time>2019-03-30T09:38:20Z</time>
      </trkpt>
      <trkpt lat="42.76363" lon="0.14724">
        <ele>2691.35</ele>
        <time>2019-03-30T09:38:33Z</time>
      </trkpt>
      <trkpt lat="42.76363" lon="0.14723">
        <ele>2691.35</ele>
        <time>2019-03-30T09:38:42Z</time>
      </trkpt>
      <trkpt lat="42.76364" lon="0.14723">
        <ele>2691.35</ele>
        <time>2019-03-30T09:38:52Z</time>
      </trkpt>
      <trkpt lat="42.76368" lon="0.14725">
        <ele>2689.91</ele>
        <time>2019-03-30T09:39:00Z</time>
      </trkpt>
      <trkpt lat="42.76369" lon="0.14724">
        <ele>2689.91</ele>
        <time>2019-03-30T09:39:09Z</time>
      </trkpt>
      <trkpt lat="42.76374" lon="0.14727">
        <ele>2688.94</ele>
        <time>2019-03-30T09:39:17Z</time>
      </trkpt>
      <trkpt lat="42.76378" lon="0.14727">
        <ele>2687.5</ele>
        <time>2019-03-30T09:39:24Z</time>
      </trkpt>
      <trkpt lat="42.76379" lon="0.14727">
        <ele>2687.98</ele>
        <time>2019-03-30T09:39:32Z</time>
      </trkpt>
      <trkpt lat="42.7638" lon="0.14727">
        <ele>2687.98</ele>
        <time>2019-03-30T09:39:41Z</time>
      </trkpt>
      <trkpt lat="42.7638" lon="0.14728">
        <ele>2687.98</ele>
        <time>2019-03-30T09:39:49Z</time>
      </trkpt>
      <trkpt lat="42.76383" lon="0.14728">
        <ele>2687.5</ele>
        <time>2019-03-30T09:40:00Z</time>
      </trkpt>
      <trkpt lat="42.76384" lon="0.14727">
        <ele>2687.98</ele>
        <time>2019-03-30T09:40:05Z</time>
      </trkpt>
      <trkpt lat="42.76389" lon="0.14728">
        <ele>2688.94</ele>
        <time>2019-03-30T09:40:12Z</time>
      </trkpt>
      <trkpt lat="42.76391" lon="0.14728">
        <ele>2688.46</ele>
        <time>2019-03-30T09:40:20Z</time>
      </trkpt>
      <trkpt lat="42.76396" lon="0.14728">
        <ele>2688.46</ele>
        <time>2019-03-30T09:40:26Z</time>
      </trkpt>
      <trkpt lat="42.76401" lon="0.14727">
        <ele>2686.54</ele>
        <time>2019-03-30T09:40:34Z</time>
      </trkpt>
      <trkpt lat="42.76406" lon="0.14726">
        <ele>2686.06</ele>
        <time>2019-03-30T09:40:40Z</time>
      </trkpt>
      <trkpt lat="42.7641" lon="0.14724">
        <ele>2686.54</ele>
        <time>2019-03-30T09:40:45Z</time>
      </trkpt>
      <trkpt lat="42.76415" lon="0.14721">
        <ele>2686.06</ele>
        <time>2019-03-30T09:40:53Z</time>
      </trkpt>
      <trkpt lat="42.76418" lon="0.14721">
        <ele>2686.54</ele>
        <time>2019-03-30T09:40:58Z</time>
      </trkpt>
      <trkpt lat="42.76422" lon="0.14722">
        <ele>2686.54</ele>
        <time>2019-03-30T09:41:05Z</time>
      </trkpt>
      <trkpt lat="42.76422" lon="0.14721">
        <ele>2687.02</ele>
        <time>2019-03-30T09:41:14Z</time>
      </trkpt>
      <trkpt lat="42.76427" lon="0.1472">
        <ele>2687.02</ele>
        <time>2019-03-30T09:41:21Z</time>
      </trkpt>
      <trkpt lat="42.76431" lon="0.1472">
        <ele>2686.06</ele>
        <time>2019-03-30T09:41:28Z</time>
      </trkpt>
      <trkpt lat="42.76436" lon="0.14719">
        <ele>2685.1</ele>
        <time>2019-03-30T09:41:36Z</time>
      </trkpt>
      <trkpt lat="42.76437" lon="0.14718">
        <ele>2684.62</ele>
        <time>2019-03-30T09:41:45Z</time>
      </trkpt>
      <trkpt lat="42.76437" lon="0.14719">
        <ele>2684.14</ele>
        <time>2019-03-30T09:42:01Z</time>
      </trkpt>
      <trkpt lat="42.76443" lon="0.14719">
        <ele>2683.66</ele>
        <time>2019-03-30T09:42:08Z</time>
      </trkpt>
      <trkpt lat="42.76448" lon="0.14718">
        <ele>2681.25</ele>
        <time>2019-03-30T09:42:13Z</time>
      </trkpt>
      <trkpt lat="42.76454" lon="0.14716">
        <ele>2679.81</ele>
        <time>2019-03-30T09:42:19Z</time>
      </trkpt>
      <trkpt lat="42.76459" lon="0.14716">
        <ele>2679.33</ele>
        <time>2019-03-30T09:42:25Z</time>
      </trkpt>
      <trkpt lat="42.76462" lon="0.14716">
        <ele>2679.33</ele>
        <time>2019-03-30T09:42:32Z</time>
      </trkpt>
      <trkpt lat="42.76466" lon="0.14714">
        <ele>2680.29</ele>
        <time>2019-03-30T09:42:40Z</time>
      </trkpt>
      <trkpt lat="42.76471" lon="0.14712">
        <ele>2680.77</ele>
        <time>2019-03-30T09:42:47Z</time>
      </trkpt>
      <trkpt lat="42.76474" lon="0.14711">
        <ele>2680.77</ele>
        <time>2019-03-30T09:42:53Z</time>
      </trkpt>
      <trkpt lat="42.76479" lon="0.14711">
        <ele>2679.81</ele>
        <time>2019-03-30T09:43:00Z</time>
      </trkpt>
      <trkpt lat="42.76484" lon="0.14712">
        <ele>2677.41</ele>
        <time>2019-03-30T09:43:07Z</time>
      </trkpt>
      <trkpt lat="42.76485" lon="0.14712">
        <ele>2676.45</ele>
        <time>2019-03-30T09:43:13Z</time>
      </trkpt>
      <trkpt lat="42.76488" lon="0.14711">
        <ele>2676.45</ele>
        <time>2019-03-30T09:43:19Z</time>
      </trkpt>
      <trkpt lat="42.76493" lon="0.14711">
        <ele>2675.01</ele>
        <time>2019-03-30T09:43:26Z</time>
      </trkpt>
      <trkpt lat="42.76497" lon="0.14709">
        <ele>2673.56</ele>
        <time>2019-03-30T09:43:32Z</time>
      </trkpt>
      <trkpt lat="42.76499" lon="0.14709">
        <ele>2673.08</ele>
        <time>2019-03-30T09:43:36Z</time>
      </trkpt>
      <trkpt lat="42.76503" lon="0.1471">
        <ele>2671.64</ele>
        <time>2019-03-30T09:43:44Z</time>
      </trkpt>
      <trkpt lat="42.76505" lon="0.1471">
        <ele>2669.72</ele>
        <time>2019-03-30T09:43:49Z</time>
      </trkpt>
      <trkpt lat="42.76507" lon="0.14709">
        <ele>2668.28</ele>
        <time>2019-03-30T09:43:55Z</time>
      </trkpt>
      <trkpt lat="42.76509" lon="0.14711">
        <ele>2666.35</ele>
        <time>2019-03-30T09:44:01Z</time>
      </trkpt>
      <trkpt lat="42.76511" lon="0.14711">
        <ele>2665.87</ele>
        <time>2019-03-30T09:44:06Z</time>
      </trkpt>
      <trkpt lat="42.76514" lon="0.14712">
        <ele>2664.43</ele>
        <time>2019-03-30T09:44:13Z</time>
      </trkpt>
      <trkpt lat="42.76515" lon="0.14712">
        <ele>2663.47</ele>
        <time>2019-03-30T09:44:23Z</time>
      </trkpt>
      <trkpt lat="42.76516" lon="0.14712">
        <ele>2662.99</ele>
        <time>2019-03-30T09:44:29Z</time>
      </trkpt>
      <trkpt lat="42.76519" lon="0.14712">
        <ele>2662.51</ele>
        <time>2019-03-30T09:44:37Z</time>
      </trkpt>
      <trkpt lat="42.76519" lon="0.14712">
        <ele>2662.51</ele>
        <time>2019-03-30T09:44:42Z</time>
      </trkpt>
      <trkpt lat="42.76518" lon="0.14713">
        <ele>2661.55</ele>
        <time>2019-03-30T09:44:50Z</time>
      </trkpt>
      <trkpt lat="42.76518" lon="0.14713">
        <ele>2661.07</ele>
        <time>2019-03-30T09:44:52Z</time>
      </trkpt>
      <trkpt lat="42.76519" lon="0.14712">
        <ele>2660.59</ele>
        <time>2019-03-30T09:44:56Z</time>
      </trkpt>
      <trkpt lat="42.76519" lon="0.14713">
        <ele>2661.07</ele>
        <time>2019-03-30T09:45:07Z</time>
      </trkpt>
      <trkpt lat="42.76519" lon="0.14713">
        <ele>2660.59</ele>
        <time>2019-03-30T09:45:17Z</time>
      </trkpt>
      <trkpt lat="42.76519" lon="0.14713">
        <ele>2660.59</ele>
        <time>2019-03-30T09:45:33Z</time>
      </trkpt>
      <trkpt lat="42.76519" lon="0.14713">
        <ele>2660.59</ele>
        <time>2019-03-30T09:45:44Z</time>
      </trkpt>
      <trkpt lat="42.76519" lon="0.14713">
        <ele>2660.59</ele>
        <time>2019-03-30T09:45:53Z</time>
      </trkpt>
      <trkpt lat="42.76519" lon="0.14713">
        <ele>2660.59</ele>
        <time>2019-03-30T09:46:07Z</time>
      </trkpt>
      <trkpt lat="42.76519" lon="0.14713">
        <ele>2660.59</ele>
        <time>2019-03-30T09:46:20Z</time>
      </trkpt>
      <trkpt lat="42.7652" lon="0.14712">
        <ele>2660.11</ele>
        <time>2019-03-30T09:46:27Z</time>
      </trkpt>
      <trkpt lat="42.7652" lon="0.14711">
        <ele>2659.62</ele>
        <time>2019-03-30T09:46:34Z</time>
      </trkpt>
      <trkpt lat="42.76519" lon="0.1471">
        <ele>2658.66</ele>
        <time>2019-03-30T09:46:40Z</time>
      </trkpt>
      <trkpt lat="42.76519" lon="0.14709">
        <ele>2658.66</ele>
        <time>2019-03-30T09:46:52Z</time>
      </trkpt>
      <trkpt lat="42.76518" lon="0.14703">
        <ele>2657.7</ele>
        <time>2019-03-30T09:46:59Z</time>
      </trkpt>
      <trkpt lat="42.76518" lon="0.14701">
        <ele>2656.74</ele>
        <time>2019-03-30T09:47:06Z</time>
      </trkpt>
      <trkpt lat="42.76519" lon="0.147">
        <ele>2655.78</ele>
        <time>2019-03-30T09:47:16Z</time>
      </trkpt>
      <trkpt lat="42.76522" lon="0.14699">
        <ele>2654.82</ele>
        <time>2019-03-30T09:47:24Z</time>
      </trkpt>
      <trkpt lat="42.76526" lon="0.14698">
        <ele>2653.38</ele>
        <time>2019-03-30T09:47:32Z</time>
      </trkpt>
      <trkpt lat="42.76527" lon="0.14697">
        <ele>2652.42</ele>
        <time>2019-03-30T09:47:38Z</time>
      </trkpt>
      <trkpt lat="42.76528" lon="0.14696">
        <ele>2651.45</ele>
        <time>2019-03-30T09:47:43Z</time>
      </trkpt>
      <trkpt lat="42.76529" lon="0.14694">
        <ele>2650.49</ele>
        <time>2019-03-30T09:47:51Z</time>
      </trkpt>
      <trkpt lat="42.7653" lon="0.14694">
        <ele>2649.53</ele>
        <time>2019-03-30T09:47:59Z</time>
      </trkpt>
      <trkpt lat="42.7653" lon="0.14694">
        <ele>2649.05</ele>
        <time>2019-03-30T09:48:07Z</time>
      </trkpt>
      <trkpt lat="42.76532" lon="0.14694">
        <ele>2648.57</ele>
        <time>2019-03-30T09:48:15Z</time>
      </trkpt>
      <trkpt lat="42.76533" lon="0.14694">
        <ele>2648.09</ele>
        <time>2019-03-30T09:48:22Z</time>
      </trkpt>
      <trkpt lat="42.76534" lon="0.14694">
        <ele>2647.13</ele>
        <time>2019-03-30T09:48:27Z</time>
      </trkpt>
      <trkpt lat="42.76535" lon="0.1469">
        <ele>2647.61</ele>
        <time>2019-03-30T09:48:33Z</time>
      </trkpt>
      <trkpt lat="42.76537" lon="0.14689">
        <ele>2645.69</ele>
        <time>2019-03-30T09:48:36Z</time>
      </trkpt>
      <trkpt lat="42.76538" lon="0.14688">
        <ele>2645.21</ele>
        <time>2019-03-30T09:48:43Z</time>
      </trkpt>
      <trkpt lat="42.76538" lon="0.14688">
        <ele>2644.24</ele>
        <time>2019-03-30T09:48:51Z</time>
      </trkpt>
      <trkpt lat="42.76538" lon="0.14688">
        <ele>2644.24</ele>
        <time>2019-03-30T09:48:59Z</time>
      </trkpt>
      <trkpt lat="42.7654" lon="0.14689">
        <ele>2643.76</ele>
        <time>2019-03-30T09:49:06Z</time>
      </trkpt>
      <trkpt lat="42.76541" lon="0.14689">
        <ele>2642.8</ele>
        <time>2019-03-30T09:49:12Z</time>
      </trkpt>
      <trkpt lat="42.76543" lon="0.14688">
        <ele>2641.84</ele>
        <time>2019-03-30T09:49:17Z</time>
      </trkpt>
      <trkpt lat="42.76547" lon="0.14687">
        <ele>2640.88</ele>
        <time>2019-03-30T09:49:24Z</time>
      </trkpt>
      <trkpt lat="42.76551" lon="0.14687">
        <ele>2638.96</ele>
        <time>2019-03-30T09:49:31Z</time>
      </trkpt>
      <trkpt lat="42.76555" lon="0.14684">
        <ele>2637.51</ele>
        <time>2019-03-30T09:49:37Z</time>
      </trkpt>
      <trkpt lat="42.76556" lon="0.14683">
        <ele>2636.07</ele>
        <time>2019-03-30T09:49:42Z</time>
      </trkpt>
      <trkpt lat="42.76557" lon="0.14682">
        <ele>2636.07</ele>
        <time>2019-03-30T09:49:43Z</time>
      </trkpt>
      <trkpt lat="42.76563" lon="0.14682">
        <ele>2634.15</ele>
        <time>2019-03-30T09:49:50Z</time>
      </trkpt>
      <trkpt lat="42.76567" lon="0.14681">
        <ele>2632.71</ele>
        <time>2019-03-30T09:49:57Z</time>
      </trkpt>
      <trkpt lat="42.76571" lon="0.1468">
        <ele>2631.27</ele>
        <time>2019-03-30T09:50:03Z</time>
      </trkpt>
      <trkpt lat="42.76575" lon="0.14675">
        <ele>2629.34</ele>
        <time>2019-03-30T09:50:10Z</time>
      </trkpt>
      <trkpt lat="42.76579" lon="0.14673">
        <ele>2627.9</ele>
        <time>2019-03-30T09:50:16Z</time>
      </trkpt>
      <trkpt lat="42.76583" lon="0.14673">
        <ele>2626.46</ele>
        <time>2019-03-30T09:50:23Z</time>
      </trkpt>
      <trkpt lat="42.76584" lon="0.14673">
        <ele>2626.46</ele>
        <time>2019-03-30T09:50:24Z</time>
      </trkpt>
      <trkpt lat="42.76589" lon="0.14671">
        <ele>2625.5</ele>
        <time>2019-03-30T09:50:31Z</time>
      </trkpt>
      <trkpt lat="42.76595" lon="0.14668">
        <ele>2623.58</ele>
        <time>2019-03-30T09:50:39Z</time>
      </trkpt>
      <trkpt lat="42.766" lon="0.14664">
        <ele>2622.61</ele>
        <time>2019-03-30T09:50:47Z</time>
      </trkpt>
      <trkpt lat="42.76604" lon="0.1466">
        <ele>2621.65</ele>
        <time>2019-03-30T09:50:54Z</time>
      </trkpt>
      <trkpt lat="42.76607" lon="0.14657">
        <ele>2619.73</ele>
        <time>2019-03-30T09:51:00Z</time>
      </trkpt>
      <trkpt lat="42.7661" lon="0.14654">
        <ele>2617.81</ele>
        <time>2019-03-30T09:51:06Z</time>
      </trkpt>
      <trkpt lat="42.76611" lon="0.14654">
        <ele>2616.37</ele>
        <time>2019-03-30T09:51:12Z</time>
      </trkpt>
      <trkpt lat="42.76613" lon="0.14653">
        <ele>2615.4</ele>
        <time>2019-03-30T09:51:18Z</time>
      </trkpt>
      <trkpt lat="42.76616" lon="0.14652">
        <ele>2614.44</ele>
        <time>2019-03-30T09:51:21Z</time>
      </trkpt>
      <trkpt lat="42.76617" lon="0.1465">
        <ele>2614.44</ele>
        <time>2019-03-30T09:51:23Z</time>
      </trkpt>
      <trkpt lat="42.7662" lon="0.14646">
        <ele>2613</ele>
        <time>2019-03-30T09:51:28Z</time>
      </trkpt>
      <trkpt lat="42.76623" lon="0.14643">
        <ele>2611.08</ele>
        <time>2019-03-30T09:51:36Z</time>
      </trkpt>
      <trkpt lat="42.76624" lon="0.14643">
        <ele>2611.08</ele>
        <time>2019-03-30T09:51:37Z</time>
      </trkpt>
      <trkpt lat="42.76627" lon="0.14641">
        <ele>2609.64</ele>
        <time>2019-03-30T09:51:42Z</time>
      </trkpt>
      <trkpt lat="42.76631" lon="0.1464">
        <ele>2608.67</ele>
        <time>2019-03-30T09:51:48Z</time>
      </trkpt>
      <trkpt lat="42.76633" lon="0.14641">
        <ele>2608.67</ele>
        <time>2019-03-30T09:51:50Z</time>
      </trkpt>
      <trkpt lat="42.76635" lon="0.1464">
        <ele>2606.75</ele>
        <time>2019-03-30T09:51:54Z</time>
      </trkpt>
      <trkpt lat="42.7664" lon="0.14636">
        <ele>2605.31</ele>
        <time>2019-03-30T09:52:01Z</time>
      </trkpt>
      <trkpt lat="42.76641" lon="0.14635">
        <ele>2604.35</ele>
        <time>2019-03-30T09:52:03Z</time>
      </trkpt>
      <trkpt lat="42.76644" lon="0.14635">
        <ele>2603.87</ele>
        <time>2019-03-30T09:52:10Z</time>
      </trkpt>
      <trkpt lat="42.76647" lon="0.14634">
        <ele>2602.91</ele>
        <time>2019-03-30T09:52:15Z</time>
      </trkpt>
      <trkpt lat="42.76652" lon="0.14634">
        <ele>2601.46</ele>
        <time>2019-03-30T09:52:21Z</time>
      </trkpt>
      <trkpt lat="42.76656" lon="0.14632">
        <ele>2599.54</ele>
        <time>2019-03-30T09:52:28Z</time>
      </trkpt>
      <trkpt lat="42.7666" lon="0.14631">
        <ele>2598.58</ele>
        <time>2019-03-30T09:52:34Z</time>
      </trkpt>
      <trkpt lat="42.76664" lon="0.14626">
        <ele>2595.7</ele>
        <time>2019-03-30T09:52:41Z</time>
      </trkpt>
      <trkpt lat="42.76668" lon="0.14621">
        <ele>2593.77</ele>
        <time>2019-03-30T09:52:49Z</time>
      </trkpt>
      <trkpt lat="42.76671" lon="0.14618">
        <ele>2591.85</ele>
        <time>2019-03-30T09:52:56Z</time>
      </trkpt>
      <trkpt lat="42.76674" lon="0.14616">
        <ele>2589.45</ele>
        <time>2019-03-30T09:53:03Z</time>
      </trkpt>
      <trkpt lat="42.76675" lon="0.14615">
        <ele>2589.45</ele>
        <time>2019-03-30T09:53:04Z</time>
      </trkpt>
      <trkpt lat="42.76675" lon="0.14614">
        <ele>2589.93</ele>
        <time>2019-03-30T09:53:05Z</time>
      </trkpt>
      <trkpt lat="42.76678" lon="0.14611">
        <ele>2587.53</ele>
        <time>2019-03-30T09:53:11Z</time>
      </trkpt>
      <trkpt lat="42.7668" lon="0.1461">
        <ele>2587.04</ele>
        <time>2019-03-30T09:53:15Z</time>
      </trkpt>
      <trkpt lat="42.76685" lon="0.1461">
        <ele>2585.12</ele>
        <time>2019-03-30T09:53:22Z</time>
      </trkpt>
      <trkpt lat="42.76685" lon="0.1461">
        <ele>2585.12</ele>
        <time>2019-03-30T09:53:23Z</time>
      </trkpt>
      <trkpt lat="42.7669" lon="0.14609">
        <ele>2583.2</ele>
        <time>2019-03-30T09:53:30Z</time>
      </trkpt>
      <trkpt lat="42.76691" lon="0.14607">
        <ele>2581.76</ele>
        <time>2019-03-30T09:53:35Z</time>
      </trkpt>
      <trkpt lat="42.76693" lon="0.14606">
        <ele>2580.32</ele>
        <time>2019-03-30T09:53:41Z</time>
      </trkpt>
      <trkpt lat="42.76696" lon="0.14605">
        <ele>2578.39</ele>
        <time>2019-03-30T09:53:46Z</time>
      </trkpt>
      <trkpt lat="42.76696" lon="0.14605">
        <ele>2578.39</ele>
        <time>2019-03-30T09:53:47Z</time>
      </trkpt>
      <trkpt lat="42.767" lon="0.14603">
        <ele>2576.47</ele>
        <time>2019-03-30T09:53:53Z</time>
      </trkpt>
      <trkpt lat="42.76701" lon="0.14603">
        <ele>2574.55</ele>
        <time>2019-03-30T09:54:00Z</time>
      </trkpt>
      <trkpt lat="42.76702" lon="0.14603">
        <ele>2574.07</ele>
        <time>2019-03-30T09:54:03Z</time>
      </trkpt>
      <trkpt lat="42.76705" lon="0.14602">
        <ele>2573.11</ele>
        <time>2019-03-30T09:54:09Z</time>
      </trkpt>
      <trkpt lat="42.76709" lon="0.14602">
        <ele>2571.18</ele>
        <time>2019-03-30T09:54:16Z</time>
      </trkpt>
      <trkpt lat="42.76713" lon="0.146">
        <ele>2569.26</ele>
        <time>2019-03-30T09:54:23Z</time>
      </trkpt>
      <trkpt lat="42.76716" lon="0.14599">
        <ele>2567.34</ele>
        <time>2019-03-30T09:54:30Z</time>
      </trkpt>
      <trkpt lat="42.76718" lon="0.14598">
        <ele>2566.38</ele>
        <time>2019-03-30T09:54:36Z</time>
      </trkpt>
      <trkpt lat="42.76719" lon="0.14597">
        <ele>2565.9</ele>
        <time>2019-03-30T09:54:39Z</time>
      </trkpt>
      <trkpt lat="42.76721" lon="0.14597">
        <ele>2564.45</ele>
        <time>2019-03-30T09:54:46Z</time>
      </trkpt>
      <trkpt lat="42.76723" lon="0.14597">
        <ele>2562.53</ele>
        <time>2019-03-30T09:54:53Z</time>
      </trkpt>
      <trkpt lat="42.76726" lon="0.14596">
        <ele>2560.61</ele>
        <time>2019-03-30T09:55:00Z</time>
      </trkpt>
      <trkpt lat="42.7673" lon="0.14594">
        <ele>2559.17</ele>
        <time>2019-03-30T09:55:06Z</time>
      </trkpt>
      <trkpt lat="42.76732" lon="0.1459">
        <ele>2557.73</ele>
        <time>2019-03-30T09:55:12Z</time>
      </trkpt>
      <trkpt lat="42.76735" lon="0.14588">
        <ele>2555.8</ele>
        <time>2019-03-30T09:55:19Z</time>
      </trkpt>
      <trkpt lat="42.76738" lon="0.14586">
        <ele>2554.84</ele>
        <time>2019-03-30T09:55:25Z</time>
      </trkpt>
      <trkpt lat="42.76738" lon="0.14585">
        <ele>2554.36</ele>
        <time>2019-03-30T09:55:28Z</time>
      </trkpt>
      <trkpt lat="42.7674" lon="0.14583">
        <ele>2552.92</ele>
        <time>2019-03-30T09:55:35Z</time>
      </trkpt>
      <trkpt lat="42.76742" lon="0.14582">
        <ele>2551.48</ele>
        <time>2019-03-30T09:55:40Z</time>
      </trkpt>
      <trkpt lat="42.76743" lon="0.14581">
        <ele>2550.03</ele>
        <time>2019-03-30T09:55:43Z</time>
      </trkpt>
      <trkpt lat="42.76744" lon="0.14581">
        <ele>2549.07</ele>
        <time>2019-03-30T09:55:47Z</time>
      </trkpt>
      <trkpt lat="42.76751" lon="0.14582">
        <ele>2547.15</ele>
        <time>2019-03-30T09:55:56Z</time>
      </trkpt>
      <trkpt lat="42.76754" lon="0.14582">
        <ele>2545.71</ele>
        <time>2019-03-30T09:56:03Z</time>
      </trkpt>
      <trkpt lat="42.76758" lon="0.14581">
        <ele>2544.75</ele>
        <time>2019-03-30T09:56:11Z</time>
      </trkpt>
      <trkpt lat="42.7676" lon="0.14582">
        <ele>2544.27</ele>
        <time>2019-03-30T09:56:16Z</time>
      </trkpt>
      <trkpt lat="42.76765" lon="0.14583">
        <ele>2542.34</ele>
        <time>2019-03-30T09:56:26Z</time>
      </trkpt>
      <trkpt lat="42.7677" lon="0.14584">
        <ele>2540.42</ele>
        <time>2019-03-30T09:56:33Z</time>
      </trkpt>
      <trkpt lat="42.76773" lon="0.14586">
        <ele>2539.46</ele>
        <time>2019-03-30T09:56:39Z</time>
      </trkpt>
      <trkpt lat="42.76778" lon="0.14584">
        <ele>2537.54</ele>
        <time>2019-03-30T09:56:46Z</time>
      </trkpt>
      <trkpt lat="42.7678" lon="0.14586">
        <ele>2535.61</ele>
        <time>2019-03-30T09:56:54Z</time>
      </trkpt>
      <trkpt lat="42.76781" lon="0.14584">
        <ele>2534.65</ele>
        <time>2019-03-30T09:56:56Z</time>
      </trkpt>
      <trkpt lat="42.76783" lon="0.14581">
        <ele>2533.69</ele>
        <time>2019-03-30T09:57:01Z</time>
      </trkpt>
      <trkpt lat="42.76786" lon="0.14576">
        <ele>2532.25</ele>
        <time>2019-03-30T09:57:08Z</time>
      </trkpt>
      <trkpt lat="42.76789" lon="0.14574">
        <ele>2530.81</ele>
        <time>2019-03-30T09:57:16Z</time>
      </trkpt>
      <trkpt lat="42.76792" lon="0.14571">
        <ele>2528.89</ele>
        <time>2019-03-30T09:57:22Z</time>
      </trkpt>
      <trkpt lat="42.76792" lon="0.14571">
        <ele>2528.89</ele>
        <time>2019-03-30T09:57:23Z</time>
      </trkpt>
      <trkpt lat="42.76799" lon="0.14566">
        <ele>2527.44</ele>
        <time>2019-03-30T09:57:31Z</time>
      </trkpt>
      <trkpt lat="42.76801" lon="0.14562">
        <ele>2526.96</ele>
        <time>2019-03-30T09:57:38Z</time>
      </trkpt>
      <trkpt lat="42.76801" lon="0.14562">
        <ele>2526.48</ele>
        <time>2019-03-30T09:57:44Z</time>
      </trkpt>
      <trkpt lat="42.76801" lon="0.14562">
        <ele>2526.48</ele>
        <time>2019-03-30T09:57:51Z</time>
      </trkpt>
      <trkpt lat="42.76803" lon="0.1456">
        <ele>2526.96</ele>
        <time>2019-03-30T09:57:58Z</time>
      </trkpt>
      <trkpt lat="42.76806" lon="0.14559">
        <ele>2526</ele>
        <time>2019-03-30T09:58:04Z</time>
      </trkpt>
      <trkpt lat="42.7681" lon="0.14556">
        <ele>2524.08</ele>
        <time>2019-03-30T09:58:13Z</time>
      </trkpt>
      <trkpt lat="42.76811" lon="0.14555">
        <ele>2523.6</ele>
        <time>2019-03-30T09:58:21Z</time>
      </trkpt>
      <trkpt lat="42.76811" lon="0.14555">
        <ele>2523.12</ele>
        <time>2019-03-30T09:58:27Z</time>
      </trkpt>
      <trkpt lat="42.76809" lon="0.14557">
        <ele>2522.16</ele>
        <time>2019-03-30T09:58:33Z</time>
      </trkpt>
      <trkpt lat="42.76809" lon="0.14557">
        <ele>2522.64</ele>
        <time>2019-03-30T09:58:41Z</time>
      </trkpt>
      <trkpt lat="42.76809" lon="0.14557">
        <ele>2522.64</ele>
        <time>2019-03-30T09:58:52Z</time>
      </trkpt>
      <trkpt lat="42.76809" lon="0.14557">
        <ele>2522.64</ele>
        <time>2019-03-30T09:59:05Z</time>
      </trkpt>
      <trkpt lat="42.76809" lon="0.14558">
        <ele>2522.64</ele>
        <time>2019-03-30T09:59:12Z</time>
      </trkpt>
      <trkpt lat="42.76809" lon="0.14558">
        <ele>2522.64</ele>
        <time>2019-03-30T09:59:25Z</time>
      </trkpt>
      <trkpt lat="42.76809" lon="0.14558">
        <ele>2522.64</ele>
        <time>2019-03-30T09:59:37Z</time>
      </trkpt>
      <trkpt lat="42.76808" lon="0.1456">
        <ele>2522.64</ele>
        <time>2019-03-30T09:59:44Z</time>
      </trkpt>
      <trkpt lat="42.76807" lon="0.1456">
        <ele>2523.12</ele>
        <time>2019-03-30T09:59:58Z</time>
      </trkpt>
      <trkpt lat="42.76806" lon="0.14566">
        <ele>2523.12</ele>
        <time>2019-03-30T10:00:03Z</time>
      </trkpt>
      <trkpt lat="42.76805" lon="0.14569">
        <ele>2523.12</ele>
        <time>2019-03-30T10:00:05Z</time>
      </trkpt>
      <trkpt lat="42.76802" lon="0.14581">
        <ele>2522.64</ele>
        <time>2019-03-30T10:00:12Z</time>
      </trkpt>
      <trkpt lat="42.76802" lon="0.14593">
        <ele>2522.16</ele>
        <time>2019-03-30T10:00:19Z</time>
      </trkpt>
      <trkpt lat="42.76804" lon="0.14602">
        <ele>2522.16</ele>
        <time>2019-03-30T10:00:26Z</time>
      </trkpt>
      <trkpt lat="42.76803" lon="0.14606">
        <ele>2521.68</ele>
        <time>2019-03-30T10:00:32Z</time>
      </trkpt>
      <trkpt lat="42.76803" lon="0.14606">
        <ele>2521.68</ele>
        <time>2019-03-30T10:00:34Z</time>
      </trkpt>
      <trkpt lat="42.768" lon="0.14615">
        <ele>2521.19</ele>
        <time>2019-03-30T10:00:39Z</time>
      </trkpt>
      <trkpt lat="42.76798" lon="0.14623">
        <ele>2520.71</ele>
        <time>2019-03-30T10:00:46Z</time>
      </trkpt>
      <trkpt lat="42.76796" lon="0.14632">
        <ele>2519.75</ele>
        <time>2019-03-30T10:00:52Z</time>
      </trkpt>
      <trkpt lat="42.7679" lon="0.14637">
        <ele>2520.23</ele>
        <time>2019-03-30T10:00:58Z</time>
      </trkpt>
      <trkpt lat="42.76784" lon="0.14644">
        <ele>2519.27</ele>
        <time>2019-03-30T10:01:05Z</time>
      </trkpt>
      <trkpt lat="42.76781" lon="0.14647">
        <ele>2518.79</ele>
        <time>2019-03-30T10:01:08Z</time>
      </trkpt>
      <trkpt lat="42.76776" lon="0.14657">
        <ele>2517.83</ele>
        <time>2019-03-30T10:01:14Z</time>
      </trkpt>
      <trkpt lat="42.76769" lon="0.14667">
        <ele>2517.35</ele>
        <time>2019-03-30T10:01:22Z</time>
      </trkpt>
      <trkpt lat="42.76768" lon="0.1467">
        <ele>2516.87</ele>
        <time>2019-03-30T10:01:24Z</time>
      </trkpt>
      <trkpt lat="42.76761" lon="0.14681">
        <ele>2516.87</ele>
        <time>2019-03-30T10:01:31Z</time>
      </trkpt>
      <trkpt lat="42.76757" lon="0.14689">
        <ele>2516.39</ele>
        <time>2019-03-30T10:01:36Z</time>
      </trkpt>
      <trkpt lat="42.76753" lon="0.14698">
        <ele>2515.43</ele>
        <time>2019-03-30T10:01:42Z</time>
      </trkpt>
      <trkpt lat="42.76749" lon="0.14708">
        <ele>2514.95</ele>
        <time>2019-03-30T10:01:49Z</time>
      </trkpt>
      <trkpt lat="42.76747" lon="0.14712">
        <ele>2514.47</ele>
        <time>2019-03-30T10:01:51Z</time>
      </trkpt>
      <trkpt lat="42.76741" lon="0.14724">
        <ele>2513.5</ele>
        <time>2019-03-30T10:01:59Z</time>
      </trkpt>
      <trkpt lat="42.76736" lon="0.14733">
        <ele>2512.06</ele>
        <time>2019-03-30T10:02:06Z</time>
      </trkpt>
      <trkpt lat="42.76731" lon="0.1474">
        <ele>2511.58</ele>
        <time>2019-03-30T10:02:12Z</time>
      </trkpt>
      <trkpt lat="42.76727" lon="0.14747">
        <ele>2511.58</ele>
        <time>2019-03-30T10:02:19Z</time>
      </trkpt>
      <trkpt lat="42.76726" lon="0.14747">
        <ele>2511.1</ele>
        <time>2019-03-30T10:02:20Z</time>
      </trkpt>
      <trkpt lat="42.76724" lon="0.1475">
        <ele>2511.1</ele>
        <time>2019-03-30T10:02:23Z</time>
      </trkpt>
      <trkpt lat="42.76721" lon="0.14756">
        <ele>2510.62</ele>
        <time>2019-03-30T10:02:28Z</time>
      </trkpt>
      <trkpt lat="42.76718" lon="0.14759">
        <ele>2510.62</ele>
        <time>2019-03-30T10:02:31Z</time>
      </trkpt>
      <trkpt lat="42.76714" lon="0.14767">
        <ele>2510.14</ele>
        <time>2019-03-30T10:02:38Z</time>
      </trkpt>
      <trkpt lat="42.76713" lon="0.1477">
        <ele>2509.66</ele>
        <time>2019-03-30T10:02:41Z</time>
      </trkpt>
      <trkpt lat="42.76711" lon="0.14775">
        <ele>2509.18</ele>
        <time>2019-03-30T10:02:44Z</time>
      </trkpt>
      <trkpt lat="42.7671" lon="0.14781">
        <ele>2508.22</ele>
        <time>2019-03-30T10:02:51Z</time>
      </trkpt>
      <trkpt lat="42.7671" lon="0.14784">
        <ele>2507.74</ele>
        <time>2019-03-30T10:02:53Z</time>
      </trkpt>
      <trkpt lat="42.76707" lon="0.148">
        <ele>2507.26</ele>
        <time>2019-03-30T10:03:02Z</time>
      </trkpt>
      <trkpt lat="42.76705" lon="0.14811">
        <ele>2505.81</ele>
        <time>2019-03-30T10:03:09Z</time>
      </trkpt>
      <trkpt lat="42.76704" lon="0.14812">
        <ele>2505.33</ele>
        <time>2019-03-30T10:03:10Z</time>
      </trkpt>
      <trkpt lat="42.76703" lon="0.1482">
        <ele>2505.33</ele>
        <time>2019-03-30T10:03:15Z</time>
      </trkpt>
      <trkpt lat="42.76701" lon="0.1483">
        <ele>2502.93</ele>
        <time>2019-03-30T10:03:21Z</time>
      </trkpt>
      <trkpt lat="42.767" lon="0.14835">
        <ele>2502.93</ele>
        <time>2019-03-30T10:03:24Z</time>
      </trkpt>
      <trkpt lat="42.767" lon="0.14841">
        <ele>2502.93</ele>
        <time>2019-03-30T10:03:27Z</time>
      </trkpt>
      <trkpt lat="42.76698" lon="0.14853">
        <ele>2501.01</ele>
        <time>2019-03-30T10:03:34Z</time>
      </trkpt>
      <trkpt lat="42.76697" lon="0.14869">
        <ele>2499.08</ele>
        <time>2019-03-30T10:03:42Z</time>
      </trkpt>
      <trkpt lat="42.76694" lon="0.14879">
        <ele>2498.6</ele>
        <time>2019-03-30T10:03:48Z</time>
      </trkpt>
      <trkpt lat="42.76692" lon="0.14887">
        <ele>2498.12</ele>
        <time>2019-03-30T10:03:53Z</time>
      </trkpt>
      <trkpt lat="42.76688" lon="0.14901">
        <ele>2497.16</ele>
        <time>2019-03-30T10:04:01Z</time>
      </trkpt>
      <trkpt lat="42.76686" lon="0.14915">
        <ele>2495.72</ele>
        <time>2019-03-30T10:04:08Z</time>
      </trkpt>
      <trkpt lat="42.76684" lon="0.14924">
        <ele>2495.24</ele>
        <time>2019-03-30T10:04:13Z</time>
      </trkpt>
      <trkpt lat="42.76683" lon="0.14935">
        <ele>2494.28</ele>
        <time>2019-03-30T10:04:19Z</time>
      </trkpt>
      <trkpt lat="42.76681" lon="0.14942">
        <ele>2492.84</ele>
        <time>2019-03-30T10:04:25Z</time>
      </trkpt>
      <trkpt lat="42.7668" lon="0.14949">
        <ele>2491.39</ele>
        <time>2019-03-30T10:04:29Z</time>
      </trkpt>
      <trkpt lat="42.76679" lon="0.14951">
        <ele>2490.91</ele>
        <time>2019-03-30T10:04:31Z</time>
      </trkpt>
      <trkpt lat="42.76677" lon="0.14957">
        <ele>2491.39</ele>
        <time>2019-03-30T10:04:35Z</time>
      </trkpt>
      <trkpt lat="42.76675" lon="0.14962">
        <ele>2489.95</ele>
        <time>2019-03-30T10:04:38Z</time>
      </trkpt>
      <trkpt lat="42.76672" lon="0.14967">
        <ele>2489.95</ele>
        <time>2019-03-30T10:04:42Z</time>
      </trkpt>
      <trkpt lat="42.76671" lon="0.1497">
        <ele>2489.47</ele>
        <time>2019-03-30T10:04:44Z</time>
      </trkpt>
      <trkpt lat="42.76666" lon="0.14978">
        <ele>2488.99</ele>
        <time>2019-03-30T10:04:50Z</time>
      </trkpt>
      <trkpt lat="42.76666" lon="0.1498">
        <ele>2488.99</ele>
        <time>2019-03-30T10:04:51Z</time>
      </trkpt>
      <trkpt lat="42.76664" lon="0.14987">
        <ele>2488.51</ele>
        <time>2019-03-30T10:04:55Z</time>
      </trkpt>
      <trkpt lat="42.76662" lon="0.14998">
        <ele>2488.03</ele>
        <time>2019-03-30T10:05:01Z</time>
      </trkpt>
      <trkpt lat="42.76662" lon="0.15009">
        <ele>2487.55</ele>
        <time>2019-03-30T10:05:08Z</time>
      </trkpt>
      <trkpt lat="42.76662" lon="0.15012">
        <ele>2487.55</ele>
        <time>2019-03-30T10:05:10Z</time>
      </trkpt>
      <trkpt lat="42.76663" lon="0.15026">
        <ele>2486.59</ele>
        <time>2019-03-30T10:05:18Z</time>
      </trkpt>
      <trkpt lat="42.76663" lon="0.15038">
        <ele>2485.63</ele>
        <time>2019-03-30T10:05:25Z</time>
      </trkpt>
      <trkpt lat="42.76662" lon="0.15041">
        <ele>2485.63</ele>
        <time>2019-03-30T10:05:31Z</time>
      </trkpt>
      <trkpt lat="42.76662" lon="0.15045">
        <ele>2485.15</ele>
        <time>2019-03-30T10:05:37Z</time>
      </trkpt>
      <trkpt lat="42.76663" lon="0.15052">
        <ele>2485.15</ele>
        <time>2019-03-30T10:05:44Z</time>
      </trkpt>
      <trkpt lat="42.76663" lon="0.15055">
        <ele>2485.15</ele>
        <time>2019-03-30T10:05:52Z</time>
      </trkpt>
      <trkpt lat="42.76663" lon="0.15061">
        <ele>2485.15</ele>
        <time>2019-03-30T10:05:59Z</time>
      </trkpt>
      <trkpt lat="42.76663" lon="0.15062">
        <ele>2485.63</ele>
        <time>2019-03-30T10:06:07Z</time>
      </trkpt>
      <trkpt lat="42.76661" lon="0.15064">
        <ele>2486.59</ele>
        <time>2019-03-30T10:06:14Z</time>
      </trkpt>
      <trkpt lat="42.7666" lon="0.15066">
        <ele>2487.55</ele>
        <time>2019-03-30T10:06:20Z</time>
      </trkpt>
      <trkpt lat="42.76658" lon="0.15067">
        <ele>2488.99</ele>
        <time>2019-03-30T10:06:28Z</time>
      </trkpt>
      <trkpt lat="42.76656" lon="0.15073">
        <ele>2490.43</ele>
        <time>2019-03-30T10:06:36Z</time>
      </trkpt>
      <trkpt lat="42.76655" lon="0.15074">
        <ele>2490.91</ele>
        <time>2019-03-30T10:06:42Z</time>
      </trkpt>
      <trkpt lat="42.76654" lon="0.15076">
        <ele>2491.39</ele>
        <time>2019-03-30T10:06:50Z</time>
      </trkpt>
      <trkpt lat="42.76654" lon="0.15077">
        <ele>2491.39</ele>
        <time>2019-03-30T10:07:00Z</time>
      </trkpt>
      <trkpt lat="42.76654" lon="0.15077">
        <ele>2491.39</ele>
        <time>2019-03-30T10:07:07Z</time>
      </trkpt>
      <trkpt lat="42.76653" lon="0.15076">
        <ele>2491.39</ele>
        <time>2019-03-30T10:07:14Z</time>
      </trkpt>
      <trkpt lat="42.76654" lon="0.15075">
        <ele>2490.91</ele>
        <time>2019-03-30T10:07:25Z</time>
      </trkpt>
      <trkpt lat="42.76655" lon="0.15073">
        <ele>2490.91</ele>
        <time>2019-03-30T10:07:35Z</time>
      </trkpt>
      <trkpt lat="42.76656" lon="0.15071">
        <ele>2490.43</ele>
        <time>2019-03-30T10:07:43Z</time>
      </trkpt>
      <trkpt lat="42.76657" lon="0.15068">
        <ele>2489.47</ele>
        <time>2019-03-30T10:07:50Z</time>
      </trkpt>
      <trkpt lat="42.76658" lon="0.15067">
        <ele>2488.51</ele>
        <time>2019-03-30T10:07:57Z</time>
      </trkpt>
      <trkpt lat="42.76661" lon="0.15068">
        <ele>2488.03</ele>
        <time>2019-03-30T10:08:02Z</time>
      </trkpt>
      <trkpt lat="42.76661" lon="0.15066">
        <ele>2487.55</ele>
        <time>2019-03-30T10:08:09Z</time>
      </trkpt>
      <trkpt lat="42.76661" lon="0.15065">
        <ele>2486.59</ele>
        <time>2019-03-30T10:08:15Z</time>
      </trkpt>
      <trkpt lat="42.76663" lon="0.15063">
        <ele>2486.11</ele>
        <time>2019-03-30T10:08:20Z</time>
      </trkpt>
      <trkpt lat="42.76664" lon="0.15061">
        <ele>2485.15</ele>
        <time>2019-03-30T10:08:25Z</time>
      </trkpt>
      <trkpt lat="42.76665" lon="0.15057">
        <ele>2484.66</ele>
        <time>2019-03-30T10:08:30Z</time>
      </trkpt>
      <trkpt lat="42.76664" lon="0.15054">
        <ele>2484.66</ele>
        <time>2019-03-30T10:08:34Z</time>
      </trkpt>
      <trkpt lat="42.76665" lon="0.1505">
        <ele>2484.66</ele>
        <time>2019-03-30T10:08:40Z</time>
      </trkpt>
      <trkpt lat="42.76664" lon="0.1505">
        <ele>2484.66</ele>
        <time>2019-03-30T10:08:50Z</time>
      </trkpt>
      <trkpt lat="42.76664" lon="0.1505">
        <ele>2484.66</ele>
        <time>2019-03-30T10:08:58Z</time>
      </trkpt>
      <trkpt lat="42.76664" lon="0.1505">
        <ele>2484.18</ele>
        <time>2019-03-30T10:09:06Z</time>
      </trkpt>
      <trkpt lat="42.76665" lon="0.15049">
        <ele>2483.7</ele>
        <time>2019-03-30T10:09:24Z</time>
      </trkpt>
      <trkpt lat="42.76666" lon="0.1505">
        <ele>2483.7</ele>
        <time>2019-03-30T10:09:43Z</time>
      </trkpt>
      <trkpt lat="42.76666" lon="0.15049">
        <ele>2483.7</ele>
        <time>2019-03-30T10:09:59Z</time>
      </trkpt>
      <trkpt lat="42.76665" lon="0.15049">
        <ele>2483.22</ele>
        <time>2019-03-30T10:10:15Z</time>
      </trkpt>
      <trkpt lat="42.76665" lon="0.15048">
        <ele>2483.22</ele>
        <time>2019-03-30T10:10:32Z</time>
      </trkpt>
      <trkpt lat="42.76665" lon="0.15048">
        <ele>2483.22</ele>
        <time>2019-03-30T10:10:48Z</time>
      </trkpt>
      <trkpt lat="42.76665" lon="0.15048">
        <ele>2483.7</ele>
        <time>2019-03-30T10:11:06Z</time>
      </trkpt>
      <trkpt lat="42.76665" lon="0.15048">
        <ele>2483.7</ele>
        <time>2019-03-30T10:11:19Z</time>
      </trkpt>
      <trkpt lat="42.76665" lon="0.15049">
        <ele>2483.7</ele>
        <time>2019-03-30T10:11:26Z</time>
      </trkpt>
      <trkpt lat="42.76665" lon="0.15048">
        <ele>2483.7</ele>
        <time>2019-03-30T10:11:43Z</time>
      </trkpt>
      <trkpt lat="42.76665" lon="0.15048">
        <ele>2483.7</ele>
        <time>2019-03-30T10:11:59Z</time>
      </trkpt>
      <trkpt lat="42.76665" lon="0.15049">
        <ele>2483.7</ele>
        <time>2019-03-30T10:12:16Z</time>
      </trkpt>
      <trkpt lat="42.76664" lon="0.15049">
        <ele>2483.7</ele>
        <time>2019-03-30T10:12:34Z</time>
      </trkpt>
      <trkpt lat="42.76664" lon="0.15049">
        <ele>2483.7</ele>
        <time>2019-03-30T10:12:51Z</time>
      </trkpt>
      <trkpt lat="42.76664" lon="0.15049">
        <ele>2483.7</ele>
        <time>2019-03-30T10:13:07Z</time>
      </trkpt>
      <trkpt lat="42.76664" lon="0.15049">
        <ele>2484.18</ele>
        <time>2019-03-30T10:13:25Z</time>
      </trkpt>
      <trkpt lat="42.76664" lon="0.15048">
        <ele>2483.7</ele>
        <time>2019-03-30T10:13:45Z</time>
      </trkpt>
      <trkpt lat="42.76664" lon="0.15048">
        <ele>2484.18</ele>
        <time>2019-03-30T10:14:04Z</time>
      </trkpt>
      <trkpt lat="42.76664" lon="0.15048">
        <ele>2483.7</ele>
        <time>2019-03-30T10:14:29Z</time>
      </trkpt>
      <trkpt lat="42.76663" lon="0.15048">
        <ele>2484.18</ele>
        <time>2019-03-30T10:14:53Z</time>
      </trkpt>
      <trkpt lat="42.76663" lon="0.15048">
        <ele>2484.18</ele>
        <time>2019-03-30T10:15:13Z</time>
      </trkpt>
      <trkpt lat="42.76664" lon="0.15048">
        <ele>2484.18</ele>
        <time>2019-03-30T10:15:35Z</time>
      </trkpt>
      <trkpt lat="42.76663" lon="0.15049">
        <ele>2484.66</ele>
        <time>2019-03-30T10:15:41Z</time>
      </trkpt>
      <trkpt lat="42.76663" lon="0.15049">
        <ele>2485.15</ele>
        <time>2019-03-30T10:15:48Z</time>
      </trkpt>
      <trkpt lat="42.76663" lon="0.15049">
        <ele>2485.15</ele>
        <time>2019-03-30T10:15:56Z</time>
      </trkpt>
      <trkpt lat="42.76663" lon="0.15049">
        <ele>2485.15</ele>
        <time>2019-03-30T10:16:08Z</time>
      </trkpt>
      <trkpt lat="42.76663" lon="0.1505">
        <ele>2485.63</ele>
        <time>2019-03-30T10:16:17Z</time>
      </trkpt>
      <trkpt lat="42.76663" lon="0.1505">
        <ele>2485.15</ele>
        <time>2019-03-30T10:16:26Z</time>
      </trkpt>
      <trkpt lat="42.76663" lon="0.15049">
        <ele>2485.15</ele>
        <time>2019-03-30T10:16:34Z</time>
      </trkpt>
      <trkpt lat="42.76663" lon="0.15049">
        <ele>2485.63</ele>
        <time>2019-03-30T10:16:51Z</time>
      </trkpt>
      <trkpt lat="42.76663" lon="0.15049">
        <ele>2485.15</ele>
        <time>2019-03-30T10:17:03Z</time>
      </trkpt>
      <trkpt lat="42.76663" lon="0.1505">
        <ele>2485.15</ele>
        <time>2019-03-30T10:17:11Z</time>
      </trkpt>
      <trkpt lat="42.76663" lon="0.1505">
        <ele>2485.15</ele>
        <time>2019-03-30T10:17:21Z</time>
      </trkpt>
      <trkpt lat="42.76664" lon="0.1505">
        <ele>2484.66</ele>
        <time>2019-03-30T10:17:30Z</time>
      </trkpt>
      <trkpt lat="42.76664" lon="0.1505">
        <ele>2484.66</ele>
        <time>2019-03-30T10:17:41Z</time>
      </trkpt>
      <trkpt lat="42.76663" lon="0.15049">
        <ele>2484.66</ele>
        <time>2019-03-30T10:17:51Z</time>
      </trkpt>
      <trkpt lat="42.76664" lon="0.15049">
        <ele>2485.63</ele>
        <time>2019-03-30T10:18:06Z</time>
      </trkpt>
      <trkpt lat="42.76664" lon="0.1505">
        <ele>2485.63</ele>
        <time>2019-03-30T10:18:17Z</time>
      </trkpt>
      <trkpt lat="42.76664" lon="0.15049">
        <ele>2484.66</ele>
        <time>2019-03-30T10:18:29Z</time>
      </trkpt>
      <trkpt lat="42.76664" lon="0.15049">
        <ele>2485.63</ele>
        <time>2019-03-30T10:18:41Z</time>
      </trkpt>
      <trkpt lat="42.76664" lon="0.1505">
        <ele>2485.63</ele>
        <time>2019-03-30T10:18:49Z</time>
      </trkpt>
      <trkpt lat="42.76664" lon="0.1505">
        <ele>2485.63</ele>
        <time>2019-03-30T10:19:01Z</time>
      </trkpt>
      <trkpt lat="42.76664" lon="0.1505">
        <ele>2485.63</ele>
        <time>2019-03-30T10:19:12Z</time>
      </trkpt>
      <trkpt lat="42.76664" lon="0.1505">
        <ele>2485.63</ele>
        <time>2019-03-30T10:19:28Z</time>
      </trkpt>
      <trkpt lat="42.76664" lon="0.15049">
        <ele>2485.15</ele>
        <time>2019-03-30T10:19:41Z</time>
      </trkpt>
      <trkpt lat="42.76664" lon="0.15049">
        <ele>2486.11</ele>
        <time>2019-03-30T10:19:59Z</time>
      </trkpt>
      <trkpt lat="42.76665" lon="0.15049">
        <ele>2485.15</ele>
        <time>2019-03-30T10:20:09Z</time>
      </trkpt>
      <trkpt lat="42.76665" lon="0.15049">
        <ele>2485.15</ele>
        <time>2019-03-30T10:20:24Z</time>
      </trkpt>
      <trkpt lat="42.76665" lon="0.15049">
        <ele>2485.15</ele>
        <time>2019-03-30T10:20:31Z</time>
      </trkpt>
      <trkpt lat="42.76666" lon="0.15049">
        <ele>2485.15</ele>
        <time>2019-03-30T10:20:33Z</time>
      </trkpt>
      <trkpt lat="42.76673" lon="0.15066">
        <ele>2481.78</ele>
        <time>2019-03-30T10:20:38Z</time>
      </trkpt>
      <trkpt lat="42.76673" lon="0.15094">
        <ele>2478.42</ele>
        <time>2019-03-30T10:20:43Z</time>
      </trkpt>
      <trkpt lat="42.76673" lon="0.15107">
        <ele>2476.01</ele>
        <time>2019-03-30T10:20:46Z</time>
      </trkpt>
      <trkpt lat="42.76677" lon="0.15128">
        <ele>2471.21</ele>
        <time>2019-03-30T10:20:50Z</time>
      </trkpt>
      <trkpt lat="42.76678" lon="0.15139">
        <ele>2467.84</ele>
        <time>2019-03-30T10:20:52Z</time>
      </trkpt>
      <trkpt lat="42.7668" lon="0.15149">
        <ele>2466.88</ele>
        <time>2019-03-30T10:20:54Z</time>
      </trkpt>
      <trkpt lat="42.7668" lon="0.15154">
        <ele>2463.04</ele>
        <time>2019-03-30T10:20:55Z</time>
      </trkpt>
      <trkpt lat="42.76681" lon="0.15159">
        <ele>2464.96</ele>
        <time>2019-03-30T10:20:56Z</time>
      </trkpt>
      <trkpt lat="42.76684" lon="0.15169">
        <ele>2460.63</ele>
        <time>2019-03-30T10:20:58Z</time>
      </trkpt>
      <trkpt lat="42.76686" lon="0.15175">
        <ele>2461.59</ele>
        <time>2019-03-30T10:20:59Z</time>
      </trkpt>
      <trkpt lat="42.76691" lon="0.15186">
        <ele>2456.79</ele>
        <time>2019-03-30T10:21:01Z</time>
      </trkpt>
      <trkpt lat="42.76691" lon="0.15192">
        <ele>2457.27</ele>
        <time>2019-03-30T10:21:02Z</time>
      </trkpt>
      <trkpt lat="42.76691" lon="0.15202">
        <ele>2453.9</ele>
        <time>2019-03-30T10:21:04Z</time>
      </trkpt>
      <trkpt lat="42.76689" lon="0.15207">
        <ele>2455.82</ele>
        <time>2019-03-30T10:21:09Z</time>
      </trkpt>
      <trkpt lat="42.76689" lon="0.15208">
        <ele>2455.82</ele>
        <time>2019-03-30T10:21:17Z</time>
      </trkpt>
      <trkpt lat="42.76697" lon="0.15218">
        <ele>2451.5</ele>
        <time>2019-03-30T10:21:22Z</time>
      </trkpt>
      <trkpt lat="42.76698" lon="0.15223">
        <ele>2452.46</ele>
        <time>2019-03-30T10:21:23Z</time>
      </trkpt>
      <trkpt lat="42.76703" lon="0.15233">
        <ele>2449.1</ele>
        <time>2019-03-30T10:21:25Z</time>
      </trkpt>
      <trkpt lat="42.76706" lon="0.15238">
        <ele>2449.58</ele>
        <time>2019-03-30T10:21:26Z</time>
      </trkpt>
      <trkpt lat="42.76713" lon="0.15255">
        <ele>2445.73</ele>
        <time>2019-03-30T10:21:29Z</time>
      </trkpt>
      <trkpt lat="42.76716" lon="0.15261">
        <ele>2444.29</ele>
        <time>2019-03-30T10:21:30Z</time>
      </trkpt>
      <trkpt lat="42.76718" lon="0.15272">
        <ele>2441.41</ele>
        <time>2019-03-30T10:21:32Z</time>
      </trkpt>
      <trkpt lat="42.76722" lon="0.15287">
        <ele>2439</ele>
        <time>2019-03-30T10:21:35Z</time>
      </trkpt>
      <trkpt lat="42.76727" lon="0.15305">
        <ele>2435.16</ele>
        <time>2019-03-30T10:21:38Z</time>
      </trkpt>
      <trkpt lat="42.7673" lon="0.15311">
        <ele>2435.16</ele>
        <time>2019-03-30T10:21:39Z</time>
      </trkpt>
      <trkpt lat="42.76733" lon="0.15325">
        <ele>2431.31</ele>
        <time>2019-03-30T10:21:41Z</time>
      </trkpt>
      <trkpt lat="42.76736" lon="0.1533">
        <ele>2432.27</ele>
        <time>2019-03-30T10:21:42Z</time>
      </trkpt>
      <trkpt lat="42.76738" lon="0.15341">
        <ele>2428.43</ele>
        <time>2019-03-30T10:21:44Z</time>
      </trkpt>
      <trkpt lat="42.76743" lon="0.15351">
        <ele>2424.1</ele>
        <time>2019-03-30T10:21:46Z</time>
      </trkpt>
      <trkpt lat="42.76743" lon="0.15357">
        <ele>2424.58</ele>
        <time>2019-03-30T10:21:47Z</time>
      </trkpt>
      <trkpt lat="42.7675" lon="0.15373">
        <ele>2419.78</ele>
        <time>2019-03-30T10:21:50Z</time>
      </trkpt>
      <trkpt lat="42.76751" lon="0.15379">
        <ele>2420.26</ele>
        <time>2019-03-30T10:21:51Z</time>
      </trkpt>
      <trkpt lat="42.7676" lon="0.15393">
        <ele>2416.41</ele>
        <time>2019-03-30T10:21:54Z</time>
      </trkpt>
      <trkpt lat="42.76762" lon="0.15398">
        <ele>2416.89</ele>
        <time>2019-03-30T10:21:55Z</time>
      </trkpt>
      <trkpt lat="42.76767" lon="0.15409">
        <ele>2413.53</ele>
        <time>2019-03-30T10:21:57Z</time>
      </trkpt>
      <trkpt lat="42.7677" lon="0.15414">
        <ele>2414.49</ele>
        <time>2019-03-30T10:21:58Z</time>
      </trkpt>
      <trkpt lat="42.76775" lon="0.15426">
        <ele>2410.64</ele>
        <time>2019-03-30T10:22:00Z</time>
      </trkpt>
      <trkpt lat="42.76777" lon="0.15432">
        <ele>2410.64</ele>
        <time>2019-03-30T10:22:01Z</time>
      </trkpt>
      <trkpt lat="42.76784" lon="0.1545">
        <ele>2407.28</ele>
        <time>2019-03-30T10:22:04Z</time>
      </trkpt>
      <trkpt lat="42.76791" lon="0.15464">
        <ele>2404.88</ele>
        <time>2019-03-30T10:22:07Z</time>
      </trkpt>
      <trkpt lat="42.76792" lon="0.15469">
        <ele>2404.88</ele>
        <time>2019-03-30T10:22:08Z</time>
      </trkpt>
      <trkpt lat="42.76798" lon="0.15487">
        <ele>2401.99</ele>
        <time>2019-03-30T10:22:11Z</time>
      </trkpt>
      <trkpt lat="42.76804" lon="0.15499">
        <ele>2399.11</ele>
        <time>2019-03-30T10:22:13Z</time>
      </trkpt>
      <trkpt lat="42.76808" lon="0.15519">
        <ele>2395.74</ele>
        <time>2019-03-30T10:22:16Z</time>
      </trkpt>
      <trkpt lat="42.76809" lon="0.1553">
        <ele>2394.78</ele>
        <time>2019-03-30T10:22:18Z</time>
      </trkpt>
      <trkpt lat="42.76813" lon="0.15544">
        <ele>2392.38</ele>
        <time>2019-03-30T10:22:21Z</time>
      </trkpt>
      <trkpt lat="42.76813" lon="0.1555">
        <ele>2392.38</ele>
        <time>2019-03-30T10:22:22Z</time>
      </trkpt>
      <trkpt lat="42.76819" lon="0.15567">
        <ele>2389.01</ele>
        <time>2019-03-30T10:22:25Z</time>
      </trkpt>
      <trkpt lat="42.76818" lon="0.15573">
        <ele>2388.53</ele>
        <time>2019-03-30T10:22:26Z</time>
      </trkpt>
      <trkpt lat="42.7682" lon="0.156">
        <ele>2385.17</ele>
        <time>2019-03-30T10:22:31Z</time>
      </trkpt>
      <trkpt lat="42.76819" lon="0.15604">
        <ele>2385.17</ele>
        <time>2019-03-30T10:22:32Z</time>
      </trkpt>
      <trkpt lat="42.76821" lon="0.15615">
        <ele>2384.69</ele>
        <time>2019-03-30T10:22:34Z</time>
      </trkpt>
      <trkpt lat="42.76825" lon="0.15632">
        <ele>2382.28</ele>
        <time>2019-03-30T10:22:37Z</time>
      </trkpt>
      <trkpt lat="42.7683" lon="0.15648">
        <ele>2378.92</ele>
        <time>2019-03-30T10:22:40Z</time>
      </trkpt>
      <trkpt lat="42.76831" lon="0.15653">
        <ele>2378.92</ele>
        <time>2019-03-30T10:22:41Z</time>
      </trkpt>
      <trkpt lat="42.76834" lon="0.15663">
        <ele>2376.52</ele>
        <time>2019-03-30T10:22:43Z</time>
      </trkpt>
      <trkpt lat="42.76833" lon="0.15668">
        <ele>2376.52</ele>
        <time>2019-03-30T10:22:47Z</time>
      </trkpt>
      <trkpt lat="42.76832" lon="0.15669">
        <ele>2376.52</ele>
        <time>2019-03-30T10:23:03Z</time>
      </trkpt>
      <trkpt lat="42.76833" lon="0.1567">
        <ele>2376.04</ele>
        <time>2019-03-30T10:23:08Z</time>
      </trkpt>
      <trkpt lat="42.76838" lon="0.15682">
        <ele>2372.67</ele>
        <time>2019-03-30T10:23:12Z</time>
      </trkpt>
      <trkpt lat="42.7684" lon="0.15687">
        <ele>2372.67</ele>
        <time>2019-03-30T10:23:13Z</time>
      </trkpt>
      <trkpt lat="42.76843" lon="0.15698">
        <ele>2369.31</ele>
        <time>2019-03-30T10:23:15Z</time>
      </trkpt>
      <trkpt lat="42.76845" lon="0.15709">
        <ele>2368.35</ele>
        <time>2019-03-30T10:23:17Z</time>
      </trkpt>
      <trkpt lat="42.76849" lon="0.1572">
        <ele>2364.5</ele>
        <time>2019-03-30T10:23:19Z</time>
      </trkpt>
      <trkpt lat="42.76853" lon="0.1573">
        <ele>2363.54</ele>
        <time>2019-03-30T10:23:21Z</time>
      </trkpt>
      <trkpt lat="42.76856" lon="0.15742">
        <ele>2359.69</ele>
        <time>2019-03-30T10:23:23Z</time>
      </trkpt>
      <trkpt lat="42.76863" lon="0.1575">
        <ele>2355.37</ele>
        <time>2019-03-30T10:23:25Z</time>
      </trkpt>
      <trkpt lat="42.76867" lon="0.15761">
        <ele>2353.93</ele>
        <time>2019-03-30T10:23:27Z</time>
      </trkpt>
      <trkpt lat="42.76873" lon="0.1577">
        <ele>2349.6</ele>
        <time>2019-03-30T10:23:29Z</time>
      </trkpt>
      <trkpt lat="42.76884" lon="0.15783">
        <ele>2345.27</ele>
        <time>2019-03-30T10:23:32Z</time>
      </trkpt>
      <trkpt lat="42.76888" lon="0.15796">
        <ele>2343.35</ele>
        <time>2019-03-30T10:23:34Z</time>
      </trkpt>
      <trkpt lat="42.76899" lon="0.15809">
        <ele>2338.54</ele>
        <time>2019-03-30T10:23:37Z</time>
      </trkpt>
      <trkpt lat="42.76901" lon="0.15814">
        <ele>2339.02</ele>
        <time>2019-03-30T10:23:38Z</time>
      </trkpt>
      <trkpt lat="42.76912" lon="0.15823">
        <ele>2335.66</ele>
        <time>2019-03-30T10:23:41Z</time>
      </trkpt>
      <trkpt lat="42.76915" lon="0.15826">
        <ele>2335.66</ele>
        <time>2019-03-30T10:23:42Z</time>
      </trkpt>
      <trkpt lat="42.76926" lon="0.15834">
        <ele>2332.3</ele>
        <time>2019-03-30T10:23:45Z</time>
      </trkpt>
      <trkpt lat="42.7693" lon="0.15838">
        <ele>2331.81</ele>
        <time>2019-03-30T10:23:46Z</time>
      </trkpt>
      <trkpt lat="42.76951" lon="0.15852">
        <ele>2324.12</ele>
        <time>2019-03-30T10:23:51Z</time>
      </trkpt>
      <trkpt lat="42.76962" lon="0.15861">
        <ele>2320.76</ele>
        <time>2019-03-30T10:23:54Z</time>
      </trkpt>
      <trkpt lat="42.76972" lon="0.15872">
        <ele>2318.36</ele>
        <time>2019-03-30T10:23:57Z</time>
      </trkpt>
      <trkpt lat="42.76981" lon="0.15873">
        <ele>2314.51</ele>
        <time>2019-03-30T10:23:59Z</time>
      </trkpt>
      <trkpt lat="42.76991" lon="0.15884">
        <ele>2310.67</ele>
        <time>2019-03-30T10:24:02Z</time>
      </trkpt>
      <trkpt lat="42.76999" lon="0.1589">
        <ele>2307.3</ele>
        <time>2019-03-30T10:24:04Z</time>
      </trkpt>
      <trkpt lat="42.77009" lon="0.15894">
        <ele>2304.42</ele>
        <time>2019-03-30T10:24:06Z</time>
      </trkpt>
      <trkpt lat="42.77017" lon="0.15903">
        <ele>2301.53</ele>
        <time>2019-03-30T10:24:08Z</time>
      </trkpt>
      <trkpt lat="42.77028" lon="0.15906">
        <ele>2297.21</ele>
        <time>2019-03-30T10:24:11Z</time>
      </trkpt>
      <trkpt lat="42.77039" lon="0.15912">
        <ele>2295.28</ele>
        <time>2019-03-30T10:24:14Z</time>
      </trkpt>
      <trkpt lat="42.77043" lon="0.15916">
        <ele>2290.48</ele>
        <time>2019-03-30T10:24:15Z</time>
      </trkpt>
      <trkpt lat="42.77047" lon="0.15918">
        <ele>2292.4</ele>
        <time>2019-03-30T10:24:16Z</time>
      </trkpt>
      <trkpt lat="42.77056" lon="0.15922">
        <ele>2288.08</ele>
        <time>2019-03-30T10:24:18Z</time>
      </trkpt>
      <trkpt lat="42.77059" lon="0.15926">
        <ele>2288.56</ele>
        <time>2019-03-30T10:24:19Z</time>
      </trkpt>
      <trkpt lat="42.77071" lon="0.15931">
        <ele>2283.75</ele>
        <time>2019-03-30T10:24:22Z</time>
      </trkpt>
      <trkpt lat="42.77082" lon="0.15939">
        <ele>2279.9</ele>
        <time>2019-03-30T10:24:25Z</time>
      </trkpt>
      <trkpt lat="42.77094" lon="0.15947">
        <ele>2277.5</ele>
        <time>2019-03-30T10:24:28Z</time>
      </trkpt>
      <trkpt lat="42.77109" lon="0.15957">
        <ele>2270.77</ele>
        <time>2019-03-30T10:24:32Z</time>
      </trkpt>
      <trkpt lat="42.77114" lon="0.15966">
        <ele>2269.81</ele>
        <time>2019-03-30T10:24:34Z</time>
      </trkpt>
      <trkpt lat="42.77121" lon="0.15977">
        <ele>2265.48</ele>
        <time>2019-03-30T10:24:36Z</time>
      </trkpt>
      <trkpt lat="42.77123" lon="0.15983">
        <ele>2264.04</ele>
        <time>2019-03-30T10:24:37Z</time>
      </trkpt>
      <trkpt lat="42.77136" lon="0.16006">
        <ele>2256.35</ele>
        <time>2019-03-30T10:24:42Z</time>
      </trkpt>
      <trkpt lat="42.77135" lon="0.16013">
        <ele>2255.39</ele>
        <time>2019-03-30T10:24:44Z</time>
      </trkpt>
      <trkpt lat="42.77134" lon="0.16015">
        <ele>2255.87</ele>
        <time>2019-03-30T10:24:49Z</time>
      </trkpt>
      <trkpt lat="42.77134" lon="0.16015">
        <ele>2255.87</ele>
        <time>2019-03-30T10:25:06Z</time>
      </trkpt>
      <trkpt lat="42.77134" lon="0.16015">
        <ele>2255.87</ele>
        <time>2019-03-30T10:25:23Z</time>
      </trkpt>
      <trkpt lat="42.77134" lon="0.16015">
        <ele>2255.87</ele>
        <time>2019-03-30T10:25:36Z</time>
      </trkpt>
      <trkpt lat="42.77133" lon="0.16015">
        <ele>2255.87</ele>
        <time>2019-03-30T10:25:42Z</time>
      </trkpt>
      <trkpt lat="42.77141" lon="0.16024">
        <ele>2252.99</ele>
        <time>2019-03-30T10:25:46Z</time>
      </trkpt>
      <trkpt lat="42.77146" lon="0.16033">
        <ele>2251.54</ele>
        <time>2019-03-30T10:25:48Z</time>
      </trkpt>
      <trkpt lat="42.77152" lon="0.16043">
        <ele>2247.7</ele>
        <time>2019-03-30T10:25:50Z</time>
      </trkpt>
      <trkpt lat="42.77161" lon="0.16056">
        <ele>2243.85</ele>
        <time>2019-03-30T10:25:53Z</time>
      </trkpt>
      <trkpt lat="42.77169" lon="0.16065">
        <ele>2239.53</ele>
        <time>2019-03-30T10:25:56Z</time>
      </trkpt>
      <trkpt lat="42.77182" lon="0.16065">
        <ele>2237.13</ele>
        <time>2019-03-30T10:26:00Z</time>
      </trkpt>
      <trkpt lat="42.77185" lon="0.16063">
        <ele>2234.24</ele>
        <time>2019-03-30T10:26:01Z</time>
      </trkpt>
      <trkpt lat="42.77193" lon="0.16063">
        <ele>2234.24</ele>
        <time>2019-03-30T10:26:03Z</time>
      </trkpt>
      <trkpt lat="42.77196" lon="0.16055">
        <ele>2232.32</ele>
        <time>2019-03-30T10:26:06Z</time>
      </trkpt>
      <trkpt lat="42.77202" lon="0.16044">
        <ele>2229.43</ele>
        <time>2019-03-30T10:26:09Z</time>
      </trkpt>
      <trkpt lat="42.77204" lon="0.16034">
        <ele>2226.07</ele>
        <time>2019-03-30T10:26:11Z</time>
      </trkpt>
      <trkpt lat="42.77214" lon="0.16024">
        <ele>2223.19</ele>
        <time>2019-03-30T10:26:14Z</time>
      </trkpt>
      <trkpt lat="42.77215" lon="0.16012">
        <ele>2218.86</ele>
        <time>2019-03-30T10:26:16Z</time>
      </trkpt>
      <trkpt lat="42.77222" lon="0.15999">
        <ele>2216.46</ele>
        <time>2019-03-30T10:26:19Z</time>
      </trkpt>
      <trkpt lat="42.77224" lon="0.15987">
        <ele>2212.61</ele>
        <time>2019-03-30T10:26:21Z</time>
      </trkpt>
      <trkpt lat="42.77232" lon="0.1598">
        <ele>2209.73</ele>
        <time>2019-03-30T10:26:23Z</time>
      </trkpt>
      <trkpt lat="42.77235" lon="0.15968">
        <ele>2206.84</ele>
        <time>2019-03-30T10:26:25Z</time>
      </trkpt>
      <trkpt lat="42.77234" lon="0.15957">
        <ele>2203</ele>
        <time>2019-03-30T10:26:27Z</time>
      </trkpt>
      <trkpt lat="42.77241" lon="0.15941">
        <ele>2199.63</ele>
        <time>2019-03-30T10:26:30Z</time>
      </trkpt>
      <trkpt lat="42.77245" lon="0.1593">
        <ele>2196.27</ele>
        <time>2019-03-30T10:26:32Z</time>
      </trkpt>
      <trkpt lat="42.77248" lon="0.15915">
        <ele>2193.87</ele>
        <time>2019-03-30T10:26:35Z</time>
      </trkpt>
      <trkpt lat="42.77253" lon="0.15902">
        <ele>2190.98</ele>
        <time>2019-03-30T10:26:38Z</time>
      </trkpt>
      <trkpt lat="42.7725" lon="0.15889">
        <ele>2187.62</ele>
        <time>2019-03-30T10:26:41Z</time>
      </trkpt>
      <trkpt lat="42.77248" lon="0.15877">
        <ele>2186.18</ele>
        <time>2019-03-30T10:26:43Z</time>
      </trkpt>
      <trkpt lat="42.77247" lon="0.15864">
        <ele>2182.33</ele>
        <time>2019-03-30T10:26:45Z</time>
      </trkpt>
      <trkpt lat="42.77243" lon="0.15846">
        <ele>2178</ele>
        <time>2019-03-30T10:26:48Z</time>
      </trkpt>
      <trkpt lat="42.77238" lon="0.15834">
        <ele>2175.12</ele>
        <time>2019-03-30T10:26:50Z</time>
      </trkpt>
      <trkpt lat="42.77234" lon="0.15817">
        <ele>2172.72</ele>
        <time>2019-03-30T10:26:53Z</time>
      </trkpt>
      <trkpt lat="42.77229" lon="0.15799">
        <ele>2170.79</ele>
        <time>2019-03-30T10:26:56Z</time>
      </trkpt>
      <trkpt lat="42.77223" lon="0.15787">
        <ele>2168.39</ele>
        <time>2019-03-30T10:26:58Z</time>
      </trkpt>
      <trkpt lat="42.77218" lon="0.15775">
        <ele>2167.43</ele>
        <time>2019-03-30T10:27:00Z</time>
      </trkpt>
      <trkpt lat="42.77216" lon="0.15769">
        <ele>2166.95</ele>
        <time>2019-03-30T10:27:01Z</time>
      </trkpt>
      <trkpt lat="42.77219" lon="0.15754">
        <ele>2165.03</ele>
        <time>2019-03-30T10:27:05Z</time>
      </trkpt>
      <trkpt lat="42.7723" lon="0.15754">
        <ele>2162.62</ele>
        <time>2019-03-30T10:27:10Z</time>
      </trkpt>
      <trkpt lat="42.7723" lon="0.15753">
        <ele>2162.14</ele>
        <time>2019-03-30T10:27:15Z</time>
      </trkpt>
      <trkpt lat="42.77229" lon="0.15753">
        <ele>2162.62</ele>
        <time>2019-03-30T10:27:26Z</time>
      </trkpt>
      <trkpt lat="42.7723" lon="0.15753">
        <ele>2162.14</ele>
        <time>2019-03-30T10:27:33Z</time>
      </trkpt>
      <trkpt lat="42.77231" lon="0.15755">
        <ele>2162.14</ele>
        <time>2019-03-30T10:27:44Z</time>
      </trkpt>
      <trkpt lat="42.77231" lon="0.15755">
        <ele>2162.14</ele>
        <time>2019-03-30T10:27:59Z</time>
      </trkpt>
      <trkpt lat="42.77232" lon="0.15755">
        <ele>2162.14</ele>
        <time>2019-03-30T10:28:09Z</time>
      </trkpt>
      <trkpt lat="42.77233" lon="0.15755">
        <ele>2162.14</ele>
        <time>2019-03-30T10:28:21Z</time>
      </trkpt>
      <trkpt lat="42.77232" lon="0.15755">
        <ele>2162.14</ele>
        <time>2019-03-30T10:28:38Z</time>
      </trkpt>
      <trkpt lat="42.77232" lon="0.15755">
        <ele>2161.66</ele>
        <time>2019-03-30T10:28:52Z</time>
      </trkpt>
      <trkpt lat="42.77232" lon="0.15755">
        <ele>2161.66</ele>
        <time>2019-03-30T10:29:08Z</time>
      </trkpt>
      <trkpt lat="42.77233" lon="0.15756">
        <ele>2161.66</ele>
        <time>2019-03-30T10:29:29Z</time>
      </trkpt>
      <trkpt lat="42.77233" lon="0.15756">
        <ele>2161.66</ele>
        <time>2019-03-30T10:29:44Z</time>
      </trkpt>
      <trkpt lat="42.77233" lon="0.15756">
        <ele>2161.66</ele>
        <time>2019-03-30T10:29:53Z</time>
      </trkpt>
      <trkpt lat="42.77233" lon="0.15757">
        <ele>2161.66</ele>
        <time>2019-03-30T10:29:55Z</time>
      </trkpt>
      <trkpt lat="42.77247" lon="0.15772">
        <ele>2159.74</ele>
        <time>2019-03-30T10:30:02Z</time>
      </trkpt>
      <trkpt lat="42.77251" lon="0.15779">
        <ele>2159.26</ele>
        <time>2019-03-30T10:30:04Z</time>
      </trkpt>
      <trkpt lat="42.77257" lon="0.15786">
        <ele>2157.82</ele>
        <time>2019-03-30T10:30:06Z</time>
      </trkpt>
      <trkpt lat="42.77261" lon="0.15792">
        <ele>2157.34</ele>
        <time>2019-03-30T10:30:08Z</time>
      </trkpt>
      <trkpt lat="42.7728" lon="0.15816">
        <ele>2154.93</ele>
        <time>2019-03-30T10:30:15Z</time>
      </trkpt>
      <trkpt lat="42.77295" lon="0.15831">
        <ele>2153.01</ele>
        <time>2019-03-30T10:30:20Z</time>
      </trkpt>
      <trkpt lat="42.773" lon="0.15838">
        <ele>2152.53</ele>
        <time>2019-03-30T10:30:22Z</time>
      </trkpt>
      <trkpt lat="42.77318" lon="0.15856">
        <ele>2149.65</ele>
        <time>2019-03-30T10:30:27Z</time>
      </trkpt>
      <trkpt lat="42.77328" lon="0.15891">
        <ele>2146.28</ele>
        <time>2019-03-30T10:30:34Z</time>
      </trkpt>
      <trkpt lat="42.77331" lon="0.15917">
        <ele>2144.36</ele>
        <time>2019-03-30T10:30:39Z</time>
      </trkpt>
      <trkpt lat="42.77331" lon="0.15928">
        <ele>2143.4</ele>
        <time>2019-03-30T10:30:41Z</time>
      </trkpt>
      <trkpt lat="42.77332" lon="0.15966">
        <ele>2139.55</ele>
        <time>2019-03-30T10:30:47Z</time>
      </trkpt>
      <trkpt lat="42.77332" lon="0.1601">
        <ele>2136.19</ele>
        <time>2019-03-30T10:30:55Z</time>
      </trkpt>
      <trkpt lat="42.77332" lon="0.16022">
        <ele>2135.23</ele>
        <time>2019-03-30T10:30:57Z</time>
      </trkpt>
      <trkpt lat="42.77332" lon="0.16047">
        <ele>2132.82</ele>
        <time>2019-03-30T10:31:01Z</time>
      </trkpt>
      <trkpt lat="42.77333" lon="0.1608">
        <ele>2130.42</ele>
        <time>2019-03-30T10:31:06Z</time>
      </trkpt>
      <trkpt lat="42.77338" lon="0.16111">
        <ele>2127.05</ele>
        <time>2019-03-30T10:31:11Z</time>
      </trkpt>
      <trkpt lat="42.77339" lon="0.16118">
        <ele>2126.57</ele>
        <time>2019-03-30T10:31:12Z</time>
      </trkpt>
      <trkpt lat="42.77346" lon="0.16155">
        <ele>2122.73</ele>
        <time>2019-03-30T10:31:18Z</time>
      </trkpt>
      <trkpt lat="42.7735" lon="0.16178">
        <ele>2119.36</ele>
        <time>2019-03-30T10:31:22Z</time>
      </trkpt>
      <trkpt lat="42.77349" lon="0.16194">
        <ele>2118.4</ele>
        <time>2019-03-30T10:31:26Z</time>
      </trkpt>
      <trkpt lat="42.77349" lon="0.16197">
        <ele>2118.88</ele>
        <time>2019-03-30T10:31:35Z</time>
      </trkpt>
      <trkpt lat="42.77348" lon="0.162">
        <ele>2118.88</ele>
        <time>2019-03-30T10:31:52Z</time>
      </trkpt>
      <trkpt lat="42.77348" lon="0.162">
        <ele>2118.88</ele>
        <time>2019-03-30T10:31:57Z</time>
      </trkpt>
      <trkpt lat="42.77352" lon="0.16204">
        <ele>2117.92</ele>
        <time>2019-03-30T10:32:00Z</time>
      </trkpt>
      <trkpt lat="42.77366" lon="0.16223">
        <ele>2115.04</ele>
        <time>2019-03-30T10:32:06Z</time>
      </trkpt>
      <trkpt lat="42.77376" lon="0.16223">
        <ele>2113.6</ele>
        <time>2019-03-30T10:32:11Z</time>
      </trkpt>
      <trkpt lat="42.77382" lon="0.16218">
        <ele>2112.63</ele>
        <time>2019-03-30T10:32:16Z</time>
      </trkpt>
      <trkpt lat="42.77395" lon="0.16223">
        <ele>2107.35</ele>
        <time>2019-03-30T10:32:19Z</time>
      </trkpt>
      <trkpt lat="42.774" lon="0.16223">
        <ele>2105.91</ele>
        <time>2019-03-30T10:32:20Z</time>
      </trkpt>
      <trkpt lat="42.77418" lon="0.1623">
        <ele>2096.29</ele>
        <time>2019-03-30T10:32:24Z</time>
      </trkpt>
      <trkpt lat="42.77422" lon="0.16233">
        <ele>2095.81</ele>
        <time>2019-03-30T10:32:25Z</time>
      </trkpt>
      <trkpt lat="42.77432" lon="0.16233">
        <ele>2089.56</ele>
        <time>2019-03-30T10:32:27Z</time>
      </trkpt>
      <trkpt lat="42.7744" lon="0.16242">
        <ele>2085.72</ele>
        <time>2019-03-30T10:32:29Z</time>
      </trkpt>
      <trkpt lat="42.77455" lon="0.16252">
        <ele>2079.47</ele>
        <time>2019-03-30T10:32:32Z</time>
      </trkpt>
      <trkpt lat="42.7746" lon="0.16254">
        <ele>2076.1</ele>
        <time>2019-03-30T10:32:33Z</time>
      </trkpt>
      <trkpt lat="42.77466" lon="0.16263">
        <ele>2072.74</ele>
        <time>2019-03-30T10:32:35Z</time>
      </trkpt>
      <trkpt lat="42.7747" lon="0.16264">
        <ele>2072.74</ele>
        <time>2019-03-30T10:32:36Z</time>
      </trkpt>
      <trkpt lat="42.7748" lon="0.16258">
        <ele>2068.89</ele>
        <time>2019-03-30T10:32:38Z</time>
      </trkpt>
      <trkpt lat="42.77485" lon="0.16257">
        <ele>2065.05</ele>
        <time>2019-03-30T10:32:39Z</time>
      </trkpt>
      <trkpt lat="42.77491" lon="0.16265">
        <ele>2063.61</ele>
        <time>2019-03-30T10:32:41Z</time>
      </trkpt>
      <trkpt lat="42.775" lon="0.16267">
        <ele>2059.76</ele>
        <time>2019-03-30T10:32:43Z</time>
      </trkpt>
      <trkpt lat="42.77509" lon="0.1627">
        <ele>2055.44</ele>
        <time>2019-03-30T10:32:45Z</time>
      </trkpt>
      <trkpt lat="42.77513" lon="0.16274">
        <ele>2054.96</ele>
        <time>2019-03-30T10:32:46Z</time>
      </trkpt>
      <trkpt lat="42.77522" lon="0.16275">
        <ele>2050.63</ele>
        <time>2019-03-30T10:32:48Z</time>
      </trkpt>
      <trkpt lat="42.77535" lon="0.16277">
        <ele>2048.23</ele>
        <time>2019-03-30T10:32:51Z</time>
      </trkpt>
      <trkpt lat="42.77542" lon="0.16276">
        <ele>2043.9</ele>
        <time>2019-03-30T10:32:53Z</time>
      </trkpt>
      <trkpt lat="42.77553" lon="0.16282">
        <ele>2041.02</ele>
        <time>2019-03-30T10:32:56Z</time>
      </trkpt>
      <trkpt lat="42.77562" lon="0.1628">
        <ele>2036.69</ele>
        <time>2019-03-30T10:32:58Z</time>
      </trkpt>
      <trkpt lat="42.77575" lon="0.16286">
        <ele>2032.36</ele>
        <time>2019-03-30T10:33:01Z</time>
      </trkpt>
      <trkpt lat="42.77584" lon="0.16292">
        <ele>2025.64</ele>
        <time>2019-03-30T10:33:03Z</time>
      </trkpt>
      <trkpt lat="42.77591" lon="0.16299">
        <ele>2022.27</ele>
        <time>2019-03-30T10:33:05Z</time>
      </trkpt>
      <trkpt lat="42.77597" lon="0.16299">
        <ele>2018.91</ele>
        <time>2019-03-30T10:33:06Z</time>
      </trkpt>
      <trkpt lat="42.77608" lon="0.16305">
        <ele>2015.06</ele>
        <time>2019-03-30T10:33:09Z</time>
      </trkpt>
      <trkpt lat="42.77628" lon="0.16313">
        <ele>2005.45</ele>
        <time>2019-03-30T10:33:14Z</time>
      </trkpt>
      <trkpt lat="42.77633" lon="0.16316">
        <ele>2002.08</ele>
        <time>2019-03-30T10:33:17Z</time>
      </trkpt>
      <trkpt lat="42.77633" lon="0.16315">
        <ele>2002.08</ele>
        <time>2019-03-30T10:33:26Z</time>
      </trkpt>
      <trkpt lat="42.77633" lon="0.16315">
        <ele>2002.08</ele>
        <time>2019-03-30T10:33:36Z</time>
      </trkpt>
      <trkpt lat="42.77647" lon="0.16317">
        <ele>1997.76</ele>
        <time>2019-03-30T10:33:40Z</time>
      </trkpt>
      <trkpt lat="42.77655" lon="0.16327">
        <ele>1994.39</ele>
        <time>2019-03-30T10:33:42Z</time>
      </trkpt>
      <trkpt lat="42.7767" lon="0.16336">
        <ele>1988.62</ele>
        <time>2019-03-30T10:33:45Z</time>
      </trkpt>
      <trkpt lat="42.77677" lon="0.16348">
        <ele>1985.26</ele>
        <time>2019-03-30T10:33:47Z</time>
      </trkpt>
      <trkpt lat="42.77687" lon="0.16351">
        <ele>1984.78</ele>
        <time>2019-03-30T10:33:49Z</time>
      </trkpt>
      <trkpt lat="42.77692" lon="0.16356">
        <ele>1979.49</ele>
        <time>2019-03-30T10:33:50Z</time>
      </trkpt>
      <trkpt lat="42.77698" lon="0.16367">
        <ele>1979.01</ele>
        <time>2019-03-30T10:33:52Z</time>
      </trkpt>
      <trkpt lat="42.7771" lon="0.16372">
        <ele>1973.72</ele>
        <time>2019-03-30T10:33:54Z</time>
      </trkpt>
      <trkpt lat="42.77716" lon="0.16382">
        <ele>1972.76</ele>
        <time>2019-03-30T10:33:56Z</time>
      </trkpt>
      <trkpt lat="42.77727" lon="0.16386">
        <ele>1967.48</ele>
        <time>2019-03-30T10:33:58Z</time>
      </trkpt>
      <trkpt lat="42.77733" lon="0.16396">
        <ele>1965.55</ele>
        <time>2019-03-30T10:34:00Z</time>
      </trkpt>
      <trkpt lat="42.77748" lon="0.16404">
        <ele>1959.3</ele>
        <time>2019-03-30T10:34:03Z</time>
      </trkpt>
      <trkpt lat="42.77759" lon="0.16418">
        <ele>1958.34</ele>
        <time>2019-03-30T10:34:06Z</time>
      </trkpt>
      <trkpt lat="42.77764" lon="0.1642">
        <ele>1955.46</ele>
        <time>2019-03-30T10:34:07Z</time>
      </trkpt>
      <trkpt lat="42.77768" lon="0.16425">
        <ele>1952.09</ele>
        <time>2019-03-30T10:34:08Z</time>
      </trkpt>
      <trkpt lat="42.77783" lon="0.16442">
        <ele>1948.25</ele>
        <time>2019-03-30T10:34:12Z</time>
      </trkpt>
      <trkpt lat="42.7779" lon="0.16453">
        <ele>1945.85</ele>
        <time>2019-03-30T10:34:14Z</time>
      </trkpt>
      <trkpt lat="42.778" lon="0.16464">
        <ele>1941.04</ele>
        <time>2019-03-30T10:34:17Z</time>
      </trkpt>
      <trkpt lat="42.77812" lon="0.16474">
        <ele>1937.19</ele>
        <time>2019-03-30T10:34:20Z</time>
      </trkpt>
      <trkpt lat="42.77819" lon="0.16481">
        <ele>1934.79</ele>
        <time>2019-03-30T10:34:22Z</time>
      </trkpt>
      <trkpt lat="42.77828" lon="0.16485">
        <ele>1931.91</ele>
        <time>2019-03-30T10:34:24Z</time>
      </trkpt>
      <trkpt lat="42.77838" lon="0.16497">
        <ele>1929.98</ele>
        <time>2019-03-30T10:34:27Z</time>
      </trkpt>
      <trkpt lat="42.77848" lon="0.16499">
        <ele>1925.66</ele>
        <time>2019-03-30T10:34:29Z</time>
      </trkpt>
      <trkpt lat="42.77853" lon="0.1651">
        <ele>1922.29</ele>
        <time>2019-03-30T10:34:31Z</time>
      </trkpt>
      <trkpt lat="42.77856" lon="0.16514">
        <ele>1922.77</ele>
        <time>2019-03-30T10:34:32Z</time>
      </trkpt>
      <trkpt lat="42.77865" lon="0.16515">
        <ele>1917.97</ele>
        <time>2019-03-30T10:34:34Z</time>
      </trkpt>
      <trkpt lat="42.77873" lon="0.16524">
        <ele>1913.64</ele>
        <time>2019-03-30T10:34:36Z</time>
      </trkpt>
      <trkpt lat="42.77885" lon="0.16535">
        <ele>1910.76</ele>
        <time>2019-03-30T10:34:39Z</time>
      </trkpt>
      <trkpt lat="42.77889" lon="0.16539">
        <ele>1907.39</ele>
        <time>2019-03-30T10:34:40Z</time>
      </trkpt>
      <trkpt lat="42.77893" lon="0.16553">
        <ele>1904.99</ele>
        <time>2019-03-30T10:34:43Z</time>
      </trkpt>
      <trkpt lat="42.77894" lon="0.16558">
        <ele>1903.07</ele>
        <time>2019-03-30T10:34:45Z</time>
      </trkpt>
      <trkpt lat="42.77893" lon="0.16557">
        <ele>1903.07</ele>
        <time>2019-03-30T10:34:54Z</time>
      </trkpt>
      <trkpt lat="42.77894" lon="0.16556">
        <ele>1903.07</ele>
        <time>2019-03-30T10:35:05Z</time>
      </trkpt>
      <trkpt lat="42.77893" lon="0.16555">
        <ele>1903.07</ele>
        <time>2019-03-30T10:35:20Z</time>
      </trkpt>
      <trkpt lat="42.77893" lon="0.16555">
        <ele>1903.07</ele>
        <time>2019-03-30T10:35:35Z</time>
      </trkpt>
      <trkpt lat="42.77894" lon="0.16556">
        <ele>1902.59</ele>
        <time>2019-03-30T10:35:40Z</time>
      </trkpt>
      <trkpt lat="42.77902" lon="0.16561">
        <ele>1900.18</ele>
        <time>2019-03-30T10:35:44Z</time>
      </trkpt>
      <trkpt lat="42.77913" lon="0.16564">
        <ele>1896.34</ele>
        <time>2019-03-30T10:35:47Z</time>
      </trkpt>
      <trkpt lat="42.77925" lon="0.16577">
        <ele>1892.01</ele>
        <time>2019-03-30T10:35:51Z</time>
      </trkpt>
      <trkpt lat="42.77929" lon="0.16586">
        <ele>1889.13</ele>
        <time>2019-03-30T10:35:53Z</time>
      </trkpt>
      <trkpt lat="42.77932" lon="0.16589">
        <ele>1888.65</ele>
        <time>2019-03-30T10:35:54Z</time>
      </trkpt>
      <trkpt lat="42.77935" lon="0.16597">
        <ele>1883.84</ele>
        <time>2019-03-30T10:35:56Z</time>
      </trkpt>
      <trkpt lat="42.77936" lon="0.16602">
        <ele>1883.84</ele>
        <time>2019-03-30T10:35:57Z</time>
      </trkpt>
      <trkpt lat="42.77943" lon="0.16607">
        <ele>1883.36</ele>
        <time>2019-03-30T10:35:59Z</time>
      </trkpt>
      <trkpt lat="42.77956" lon="0.16617">
        <ele>1876.15</ele>
        <time>2019-03-30T10:36:03Z</time>
      </trkpt>
      <trkpt lat="42.77963" lon="0.16621">
        <ele>1874.71</ele>
        <time>2019-03-30T10:36:05Z</time>
      </trkpt>
      <trkpt lat="42.77978" lon="0.16629">
        <ele>1866.06</ele>
        <time>2019-03-30T10:36:09Z</time>
      </trkpt>
      <trkpt lat="42.77982" lon="0.16639">
        <ele>1860.29</ele>
        <time>2019-03-30T10:36:12Z</time>
      </trkpt>
      <trkpt lat="42.77988" lon="0.16654">
        <ele>1857.89</ele>
        <time>2019-03-30T10:36:15Z</time>
      </trkpt>
      <trkpt lat="42.7799" lon="0.16656">
        <ele>1857.89</ele>
        <time>2019-03-30T10:36:16Z</time>
      </trkpt>
      <trkpt lat="42.77998" lon="0.16659">
        <ele>1850.68</ele>
        <time>2019-03-30T10:36:18Z</time>
      </trkpt>
      <trkpt lat="42.78006" lon="0.16675">
        <ele>1848.27</ele>
        <time>2019-03-30T10:36:21Z</time>
      </trkpt>
      <trkpt lat="42.78013" lon="0.16677">
        <ele>1844.91</ele>
        <time>2019-03-30T10:36:23Z</time>
      </trkpt>
      <trkpt lat="42.78017" lon="0.16681">
        <ele>1839.14</ele>
        <time>2019-03-30T10:36:24Z</time>
      </trkpt>
      <trkpt lat="42.7802" lon="0.16686">
        <ele>1838.66</ele>
        <time>2019-03-30T10:36:25Z</time>
      </trkpt>
      <trkpt lat="42.78029" lon="0.16689">
        <ele>1834.33</ele>
        <time>2019-03-30T10:36:27Z</time>
      </trkpt>
      <trkpt lat="42.78036" lon="0.16698">
        <ele>1830.97</ele>
        <time>2019-03-30T10:36:29Z</time>
      </trkpt>
      <trkpt lat="42.78039" lon="0.16704">
        <ele>1830.49</ele>
        <time>2019-03-30T10:36:30Z</time>
      </trkpt>
      <trkpt lat="42.78055" lon="0.16713">
        <ele>1824.72</ele>
        <time>2019-03-30T10:36:34Z</time>
      </trkpt>
      <trkpt lat="42.78065" lon="0.16728">
        <ele>1823.76</ele>
        <time>2019-03-30T10:36:37Z</time>
      </trkpt>
      <trkpt lat="42.78077" lon="0.16736">
        <ele>1817.99</ele>
        <time>2019-03-30T10:36:40Z</time>
      </trkpt>
      <trkpt lat="42.78091" lon="0.16744">
        <ele>1817.51</ele>
        <time>2019-03-30T10:36:43Z</time>
      </trkpt>
      <trkpt lat="42.78101" lon="0.16748">
        <ele>1812.22</ele>
        <time>2019-03-30T10:36:45Z</time>
      </trkpt>
      <trkpt lat="42.78117" lon="0.16757">
        <ele>1807.42</ele>
        <time>2019-03-30T10:36:49Z</time>
      </trkpt>
      <trkpt lat="42.78126" lon="0.16765">
        <ele>1805.01</ele>
        <time>2019-03-30T10:36:51Z</time>
      </trkpt>
      <trkpt lat="42.78138" lon="0.16769">
        <ele>1801.17</ele>
        <time>2019-03-30T10:36:54Z</time>
      </trkpt>
      <trkpt lat="42.78142" lon="0.16772">
        <ele>1797.32</ele>
        <time>2019-03-30T10:36:55Z</time>
      </trkpt>
      <trkpt lat="42.78145" lon="0.16776">
        <ele>1797.32</ele>
        <time>2019-03-30T10:36:56Z</time>
      </trkpt>
      <trkpt lat="42.78157" lon="0.16777">
        <ele>1793.96</ele>
        <time>2019-03-30T10:36:59Z</time>
      </trkpt>
      <trkpt lat="42.78174" lon="0.16785">
        <ele>1787.71</ele>
        <time>2019-03-30T10:37:03Z</time>
      </trkpt>
      <trkpt lat="42.78179" lon="0.16784">
        <ele>1787.71</ele>
        <time>2019-03-30T10:37:04Z</time>
      </trkpt>
      <trkpt lat="42.78195" lon="0.16774">
        <ele>1782.9</ele>
        <time>2019-03-30T10:37:07Z</time>
      </trkpt>
      <trkpt lat="42.78214" lon="0.16776">
        <ele>1779.54</ele>
        <time>2019-03-30T10:37:11Z</time>
      </trkpt>
      <trkpt lat="42.78218" lon="0.16773">
        <ele>1778.1</ele>
        <time>2019-03-30T10:37:12Z</time>
      </trkpt>
      <trkpt lat="42.78237" lon="0.16762">
        <ele>1771.37</ele>
        <time>2019-03-30T10:37:17Z</time>
      </trkpt>
      <trkpt lat="42.7825" lon="0.16754">
        <ele>1768.96</ele>
        <time>2019-03-30T10:37:20Z</time>
      </trkpt>
      <trkpt lat="42.78252" lon="0.16751">
        <ele>1768.96</ele>
        <time>2019-03-30T10:37:21Z</time>
      </trkpt>
      <trkpt lat="42.78267" lon="0.16745">
        <ele>1765.12</ele>
        <time>2019-03-30T10:37:26Z</time>
      </trkpt>
      <trkpt lat="42.78271" lon="0.16743">
        <ele>1764.64</ele>
        <time>2019-03-30T10:37:30Z</time>
      </trkpt>
      <trkpt lat="42.78271" lon="0.16743">
        <ele>1764.64</ele>
        <time>2019-03-30T10:37:32Z</time>
      </trkpt>
      <trkpt lat="42.78277" lon="0.16738">
        <ele>1764.64</ele>
        <time>2019-03-30T10:37:39Z</time>
      </trkpt>
      <trkpt lat="42.78281" lon="0.16734">
        <ele>1764.64</ele>
        <time>2019-03-30T10:37:43Z</time>
      </trkpt>
      <trkpt lat="42.78287" lon="0.16726">
        <ele>1764.64</ele>
        <time>2019-03-30T10:37:51Z</time>
      </trkpt>
      <trkpt lat="42.78291" lon="0.1672">
        <ele>1764.64</ele>
        <time>2019-03-30T10:37:59Z</time>
      </trkpt>
      <trkpt lat="42.78294" lon="0.16717">
        <ele>1764.16</ele>
        <time>2019-03-30T10:38:06Z</time>
      </trkpt>
      <trkpt lat="42.78293" lon="0.16717">
        <ele>1764.16</ele>
        <time>2019-03-30T10:38:14Z</time>
      </trkpt>
      <trkpt lat="42.78292" lon="0.16715">
        <ele>1764.16</ele>
        <time>2019-03-30T10:38:22Z</time>
      </trkpt>
      <trkpt lat="42.78293" lon="0.16715">
        <ele>1764.16</ele>
        <time>2019-03-30T10:38:30Z</time>
      </trkpt>
      <trkpt lat="42.78293" lon="0.16713">
        <ele>1764.16</ele>
        <time>2019-03-30T10:38:40Z</time>
      </trkpt>
      <trkpt lat="42.78293" lon="0.16712">
        <ele>1763.68</ele>
        <time>2019-03-30T10:38:48Z</time>
      </trkpt>
      <trkpt lat="42.78294" lon="0.16713">
        <ele>1763.68</ele>
        <time>2019-03-30T10:38:54Z</time>
      </trkpt>
      <trkpt lat="42.78294" lon="0.16713">
        <ele>1764.16</ele>
        <time>2019-03-30T10:39:04Z</time>
      </trkpt>
      <trkpt lat="42.78292" lon="0.16713">
        <ele>1763.68</ele>
        <time>2019-03-30T10:39:17Z</time>
      </trkpt>
      <trkpt lat="42.78292" lon="0.16713">
        <ele>1763.68</ele>
        <time>2019-03-30T10:39:25Z</time>
      </trkpt>
      <trkpt lat="42.78292" lon="0.16716">
        <ele>1763.2</ele>
        <time>2019-03-30T10:39:31Z</time>
      </trkpt>
      <trkpt lat="42.78293" lon="0.16724">
        <ele>1761.75</ele>
        <time>2019-03-30T10:39:39Z</time>
      </trkpt>
      <trkpt lat="42.78293" lon="0.16731">
        <ele>1759.35</ele>
        <time>2019-03-30T10:39:46Z</time>
      </trkpt>
      <trkpt lat="42.78295" lon="0.16735">
        <ele>1758.87</ele>
        <time>2019-03-30T10:39:50Z</time>
      </trkpt>
      <trkpt lat="42.78297" lon="0.16742">
        <ele>1756.95</ele>
        <time>2019-03-30T10:39:57Z</time>
      </trkpt>
      <trkpt lat="42.78297" lon="0.16747">
        <ele>1755.5</ele>
        <time>2019-03-30T10:40:03Z</time>
      </trkpt>
      <trkpt lat="42.78297" lon="0.16755">
        <ele>1754.06</ele>
        <time>2019-03-30T10:40:09Z</time>
      </trkpt>
      <trkpt lat="42.78297" lon="0.16756">
        <ele>1754.06</ele>
        <time>2019-03-30T10:40:10Z</time>
      </trkpt>
      <trkpt lat="42.78297" lon="0.16765">
        <ele>1752.14</ele>
        <time>2019-03-30T10:40:17Z</time>
      </trkpt>
      <trkpt lat="42.78298" lon="0.16775">
        <ele>1750.7</ele>
        <time>2019-03-30T10:40:25Z</time>
      </trkpt>
      <trkpt lat="42.78298" lon="0.16778">
        <ele>1750.22</ele>
        <time>2019-03-30T10:40:27Z</time>
      </trkpt>
      <trkpt lat="42.78298" lon="0.16787">
        <ele>1748.29</ele>
        <time>2019-03-30T10:40:35Z</time>
      </trkpt>
      <trkpt lat="42.78299" lon="0.16794">
        <ele>1747.33</ele>
        <time>2019-03-30T10:40:41Z</time>
      </trkpt>
      <trkpt lat="42.783" lon="0.16801">
        <ele>1745.89</ele>
        <time>2019-03-30T10:40:46Z</time>
      </trkpt>
      <trkpt lat="42.78299" lon="0.16811">
        <ele>1744.93</ele>
        <time>2019-03-30T10:40:53Z</time>
      </trkpt>
      <trkpt lat="42.78299" lon="0.16813">
        <ele>1744.45</ele>
        <time>2019-03-30T10:40:55Z</time>
      </trkpt>
      <trkpt lat="42.78299" lon="0.16817">
        <ele>1743.49</ele>
        <time>2019-03-30T10:40:58Z</time>
      </trkpt>
      <trkpt lat="42.783" lon="0.16826">
        <ele>1741.57</ele>
        <time>2019-03-30T10:41:04Z</time>
      </trkpt>
      <trkpt lat="42.78301" lon="0.1684">
        <ele>1739.16</ele>
        <time>2019-03-30T10:41:13Z</time>
      </trkpt>
      <trkpt lat="42.78302" lon="0.16845">
        <ele>1738.68</ele>
        <time>2019-03-30T10:41:16Z</time>
      </trkpt>
      <trkpt lat="42.78306" lon="0.16856">
        <ele>1736.76</ele>
        <time>2019-03-30T10:41:24Z</time>
      </trkpt>
      <trkpt lat="42.78307" lon="0.1686">
        <ele>1735.8</ele>
        <time>2019-03-30T10:41:28Z</time>
      </trkpt>
      <trkpt lat="42.78308" lon="0.16866">
        <ele>1734.36</ele>
        <time>2019-03-30T10:41:33Z</time>
      </trkpt>
      <trkpt lat="42.78311" lon="0.16877">
        <ele>1731.95</ele>
        <time>2019-03-30T10:41:41Z</time>
      </trkpt>
      <trkpt lat="42.78313" lon="0.16886">
        <ele>1730.51</ele>
        <time>2019-03-30T10:41:48Z</time>
      </trkpt>
      <trkpt lat="42.78314" lon="0.16888">
        <ele>1730.03</ele>
        <time>2019-03-30T10:41:50Z</time>
      </trkpt>
      <trkpt lat="42.78314" lon="0.16896">
        <ele>1729.07</ele>
        <time>2019-03-30T10:41:56Z</time>
      </trkpt>
      <trkpt lat="42.78319" lon="0.16902">
        <ele>1727.63</ele>
        <time>2019-03-30T10:42:03Z</time>
      </trkpt>
      <trkpt lat="42.78326" lon="0.16905">
        <ele>1726.18</ele>
        <time>2019-03-30T10:42:09Z</time>
      </trkpt>
      <trkpt lat="42.78334" lon="0.16903">
        <ele>1724.74</ele>
        <time>2019-03-30T10:42:15Z</time>
      </trkpt>
      <trkpt lat="42.78341" lon="0.16896">
        <ele>1723.78</ele>
        <time>2019-03-30T10:42:25Z</time>
      </trkpt>
      <trkpt lat="42.78342" lon="0.16892">
        <ele>1723.78</ele>
        <time>2019-03-30T10:42:28Z</time>
      </trkpt>
      <trkpt lat="42.78343" lon="0.16889">
        <ele>1723.78</ele>
        <time>2019-03-30T10:42:31Z</time>
      </trkpt>
      <trkpt lat="42.78342" lon="0.16881">
        <ele>1724.26</ele>
        <time>2019-03-30T10:42:38Z</time>
      </trkpt>
      <trkpt lat="42.78341" lon="0.16868">
        <ele>1723.78</ele>
        <time>2019-03-30T10:42:44Z</time>
      </trkpt>
      <trkpt lat="42.78344" lon="0.16857">
        <ele>1723.78</ele>
        <time>2019-03-30T10:42:50Z</time>
      </trkpt>
      <trkpt lat="42.78345" lon="0.16844">
        <ele>1724.74</ele>
        <time>2019-03-30T10:42:57Z</time>
      </trkpt>
      <trkpt lat="42.78346" lon="0.16839">
        <ele>1724.74</ele>
        <time>2019-03-30T10:43:01Z</time>
      </trkpt>
      <trkpt lat="42.78345" lon="0.16836">
        <ele>1724.74</ele>
        <time>2019-03-30T10:43:03Z</time>
      </trkpt>
      <trkpt lat="42.78344" lon="0.16823">
        <ele>1725.7</ele>
        <time>2019-03-30T10:43:10Z</time>
      </trkpt>
      <trkpt lat="42.78343" lon="0.16821">
        <ele>1726.18</ele>
        <time>2019-03-30T10:43:12Z</time>
      </trkpt>
      <trkpt lat="42.78342" lon="0.16812">
        <ele>1726.18</ele>
        <time>2019-03-30T10:43:17Z</time>
      </trkpt>
      <trkpt lat="42.78341" lon="0.16806">
        <ele>1726.67</ele>
        <time>2019-03-30T10:43:24Z</time>
      </trkpt>
      <trkpt lat="42.78341" lon="0.16805">
        <ele>1726.67</ele>
        <time>2019-03-30T10:43:30Z</time>
      </trkpt>
      <trkpt lat="42.78341" lon="0.16805">
        <ele>1727.15</ele>
        <time>2019-03-30T10:43:38Z</time>
      </trkpt>
    </trkseg>
  </trk>
</gpx>